GEFSSE_con_probscp_000.txt.gz
Probability
0 0 0 0 0 0 0 0 0 0 1 3 4 2 1 0 0 0 0 0 0 0 0 0 0 0 0 0 0 0 0 0 0 0 0 0 0 0 0 0 0 0 0
0 0 0 0 0 0 0 0 0 0 0 1 1 1 0 0 0 0 0 0 0 0 0 0 0 0 0 0 0 0 0 0 0 0 0 0 0 0 0 0 0 0 0
0 0 0 0 0 0 0 0 0 0 0 0 0 0 0 0 0 0 0 0 0 0 0 0 0 0 0 0 0 0 0 0 0 0 0 0 0 0 0 0 0 0 0
0 0 0 0 0 0 0 0 0 0 0 0 0 0 0 0 0 0 0 0 0 0 0 0 0 0 0 0 0 0 0 0 0 0 0 0 0 0 0 0 0 0 0
0 0 0 0 0 0 0 0 0 0 0 0 0 0 0 0 0 0 0 0 0 0 0 0 0 0 0 0 0 0 0 0 0 0 0 0 0 0 0 0 0 0 0
0 0 0 0 0 0 0 0 0 0 0 0 0 0 0 0 0 0 0 0 0 0 0 0 0 0 0 0 0 0 0 0 0 0 0 0 0 0 0 0 0 0 0
0 0 0 0 0 0 0 0 0 0 0 0 0 0 0 0 0 0 0 0 0 0 0 0 0 0 0 0 0 0 0 0 0 0 0 0 0 0 0 0 0 0 0
0 0 0 0 0 0 0 0 0 0 0 0 0 0 0 0 0 0 0 0 0 0 0 0 0 0 0 0 0 0 0 0 0 0 0 0 0 0 0 0 0 0 0
0 0 0 0 0 0 0 0 0 0 0 0 0 0 0 0 0 0 0 0 0 0 0 0 0 0 0 0 0 0 0 0 0 0 0 0 0 0 0 0 0 1 1
0 0 0 0 0 0 0 0 0 0 0 0 0 0 0 0 0 0 0 0 0 0 0 0 0 0 0 0 0 0 0 0 0 0 0 0 0 0 0 0 0 0 0
0 0 0 0 0 1 1 1 1 0 0 0 0 0 0 0 0 0 0 0 0 0 0 0 0 0 0 0 0 0 0 0 0 0 0 0 0 0 0 0 0 0 0
0 0 0 0 0 2 3 3 3 1 0 0 0 0 0 0 0 0 0 0 0 0 0 0 0 0 0 0 0 0 0 0 0 0 0 0 0 0 0 0 0 0 0
0 0 0 0 0 1 2 4 4 2 0 0 0 1 0 0 0 0 0 0 0 0 0 0 0 0 0 0 0 0 0 0 0 0 0 0 0 0 0 0 0 0 0
0 0 0 0 0 0 1 2 2 1 0 0 0 0 0 0 0 0 0 0 0 0 0 0 0 0 0 0 0 0 0 0 0 0 0 0 0 0 0 0 0 0 0
0 0 1 1 2 2 1 1 0 0 0 1 0 0 0 0 0 0 0 0 0 0 0 0 0 0 0 0 0 0 0 0 0 1 0 0 1 0 0 0 0 0 0
2 3 4 4 6 8 6 3 1 0 1 2 1 0 0 0 0 0 0 0 0 0 0 0 0 0 0 0 0 0 0 0 0 0 0 1 1 0 0 0 0 1 1
12 13 11 10 13 14 11 6 2 3 5 5 2 0 0 0 0 0 0 0 0 0 0 0 0 0 0 0 0 0 0 0 0 0 0 1 1 1 3 3 3 3 4
19 19 19 22 25 22 13 8 8 11 12 9 3 0 0 0 0 0 0 0 0 0 0 0 0 0 0 0 0 0 0 0 0 0 0 1 1 2 6 10 10 9 8
11 13 18 33 43 34 19 12 15 20 21 16 7 1 0 0 0 0 0 0 0 0 0 0 0 0 0 1 0 0 0 0 0 0 0 0 0 2 6 13 19 20 19
8 8 12 27 46 49 40 34 33 36 38 33 19 8 6 6 6 4 1 0 0 0 0 0 0 0 1 2 1 0 0 0 0 0 0 0 0 0 4 10 19 28 33
11 8 6 11 26 42 50 54 60 63 62 55 43 33 29 24 15 7 2 0 0 0 0 0 0 0 1 1 0 0 0 0 0 0 0 0 0 0 1 5 10 19 26
5 3 1 1 6 15 26 40 55 62 61 58 55 50 43 28 14 5 1 0 0 0 0 0 0 0 0 0 0 0 0 0 0 0 0 0 0 0 0 1 2 5 8
0 0 0 0 0 1 3 11 21 28 32 35 37 32 23 12 4 1 0 0 0 0 0 0 0 0 0 0 0 0 0 0 0 0 0 0 0 0 0 0 0 0 0
0 0 1 0 0 1 2 2 3 7 10 11 11 7 2 0 0 0 0 0 0 0 0 0 0 0 0 0 0 0 0 0 0 0 0 0 0 0 0 0 0 0 0
0 0 0 0 0 1 2 2 2 3 3 2 1 1 0 0 0 0 0 0 0 0 0 0 0 0 0 0 0 0 0 0 0 0 0 0 0 0 0 0 0 0 0
0 0 0 0 0 0 1 1 1 1 0 0 0 0 0 0 0 0 0 0 0 0 0 0 0 0 0 0 0 0 0 0 0 0 0 0 0 0 0 0 0 0 0

GEFSSE_con_probscp_006.txt.gz
Probability
0 0 0 0 0 0 0 0 0 0 0 0 0 0 0 0 0 0 0 0 0 0 0 0 0 0 0 0 0 0 0 0 0 0 0 0 0 0 0 0 0 0 0
0 0 0 0 0 0 0 0 0 0 0 0 0 0 0 0 0 0 0 0 0 0 0 0 0 0 0 0 0 0 0 0 0 0 0 0 0 0 0 0 0 0 0
0 0 0 0 0 0 0 0 0 0 0 0 0 0 0 0 0 0 0 0 0 0 0 0 0 0 0 0 0 0 0 0 0 0 0 0 0 0 0 0 0 0 0
0 0 0 0 0 0 0 0 0 0 0 0 0 0 0 0 0 0 0 0 0 0 0 0 0 0 0 0 0 0 0 0 0 0 0 0 0 0 0 0 0 0 0
0 0 0 0 0 0 0 0 0 0 0 0 0 0 0 0 0 0 0 0 0 0 0 0 0 0 0 0 0 0 0 0 0 0 0 0 0 0 0 0 0 0 0
0 0 0 0 0 0 0 0 0 0 0 0 0 0 0 0 0 0 0 0 0 0 0 0 0 0 0 0 0 0 0 0 0 0 0 0 0 0 0 0 0 0 0
0 0 0 0 0 0 0 0 0 0 0 0 0 0 0 0 0 0 0 0 0 0 0 0 0 0 0 0 0 0 0 0 0 0 0 0 0 0 0 0 0 0 0
0 0 0 0 0 0 0 0 0 0 0 0 0 0 0 0 0 0 0 0 0 0 0 0 0 0 0 0 0 0 0 0 0 0 0 0 0 0 0 0 0 0 0
0 0 0 0 0 0 0 0 0 0 0 0 0 0 0 0 0 0 0 0 0 0 0 0 0 0 0 0 0 0 0 0 0 0 0 0 0 0 0 0 0 0 0
0 0 0 0 0 0 0 0 0 0 0 0 0 0 0 0 0 0 0 0 0 0 0 0 0 0 0 0 0 0 0 0 0 0 0 0 0 0 0 0 0 0 0
0 0 0 0 0 0 0 0 0 0 0 0 0 0 0 0 0 1 2 2 0 0 0 0 0 0 0 0 0 0 0 0 0 0 0 0 0 0 0 0 0 0 0
0 0 0 0 0 0 0 0 0 0 0 0 0 0 0 0 0 2 4 3 0 0 0 0 0 0 0 0 0 0 0 0 0 0 0 1 0 0 0 0 0 0 0
0 0 0 0 0 0 0 0 0 0 1 0 0 0 0 0 0 1 2 2 0 0 0 0 0 0 0 0 0 0 0 0 0 0 0 0 0 0 0 0 0 0 0
2 1 1 1 2 3 5 4 2 1 2 1 1 1 0 0 0 0 0 0 0 0 0 0 0 0 0 0 0 0 0 0 0 0 0 0 0 0 0 0 0 0 0
6 3 2 2 5 14 24 25 15 9 8 8 7 7 4 2 0 0 0 0 0 0 0 0 0 0 0 0 0 0 0 0 0 0 0 0 0 0 0 0 0 0 0
18 12 5 3 8 23 41 48 35 21 19 21 25 29 27 22 18 12 4 1 1 1 1 1 0 0 0 0 0 0 0 0 0 0 0 0 0 0 0 0 0 0 0
50 43 33 26 24 33 50 59 47 28 26 38 51 59 57 50 45 35 18 9 9 9 7 5 2 0 0 1 2 2 2 1 0 0 0 0 0 0 2 3 2 2 3
85 82 77 69 62 59 68 73 59 42 42 56 70 78 74 63 58 54 41 32 33 31 24 14 6 4 4 4 5 8 11 10 5 1 0 0 0 1 6 11 10 6 6
99 99 99 97 92 88 90 90 82 72 70 71 75 82 81 69 60 60 60 57 58 60 52 38 27 23 19 11 7 14 23 22 12 4 2 1 1 2 6 17 19 10 5
94 96 99 100 99 98 99 98 97 94 90 82 78 80 82 73 61 60 68 70 73 79 77 67 56 42 26 13 6 13 23 20 12 7 5 2 0 1 3 13 23 21 16
86 88 92 95 95 96 98 99 100 99 96 88 79 73 71 65 55 55 64 72 79 84 84 80 69 42 18 7 3 5 9 7 5 6 4 1 0 0 0 8 26 41 47
71 71 74 79 82 84 86 88 92 94 91 85 76 67 61 55 48 47 56 65 76 84 82 75 59 32 9 1 0 0 0 0 1 2 2 1 0 0 0 6 27 52 61
41 44 51 61 70 71 70 71 77 82 82 78 74 66 57 48 39 36 39 46 60 74 72 55 35 17 5 1 1 2 3 3 2 1 2 1 0 0 1 5 19 36 42
13 18 31 49 64 67 61 57 61 67 71 72 72 66 56 41 27 19 18 22 35 48 45 26 11 4 1 1 2 3 5 5 3 1 1 1 1 1 2 4 8 14 17
1 4 15 33 50 54 49 45 46 50 57 64 67 64 53 34 16 6 4 5 11 21 20 10 3 2 2 1 1 2 3 3 2 0 0 1 2 2 2 2 2 4 6
0 1 6 18 32 36 34 34 37 41 47 57 65 61 47 28 11 4 1 1 3 10 13 8 2 2 2 2 1 1 1 0 0 0 0 0 1 2 1 1 1 2 3

GEFSSE_con_probscp_012.txt.gz
Probability
0 0 0 0 0 0 0 0 0 0 0 0 0 0 0 0 0 0 0 0 0 0 0 0 0 0 0 0 0 0 0 0 0 0 0 0 0 0 0 0 0 0 0
0 0 0 0 0 0 0 0 0 0 0 0 0 0 0 0 0 0 0 0 0 0 0 0 0 0 0 0 0 0 0 0 0 0 0 0 0 0 0 0 0 0 0
0 0 0 0 0 0 0 0 0 0 0 0 0 0 0 0 0 0 0 0 0 0 0 0 0 0 0 0 0 0 0 0 0 0 0 0 0 0 0 0 0 0 0
0 0 0 0 0 0 0 0 0 0 0 0 0 0 0 0 0 0 0 0 0 0 0 0 0 0 0 0 0 0 0 0 0 0 0 0 0 0 0 0 0 0 0
0 0 0 0 0 0 0 0 0 0 0 0 0 0 0 0 0 0 0 0 0 0 0 0 0 0 0 0 0 0 0 0 0 0 0 0 0 0 0 0 0 0 0
0 0 0 0 0 0 0 0 0 0 0 0 0 0 0 0 0 0 0 0 0 0 0 0 0 0 0 0 0 0 0 0 0 0 0 0 0 0 0 0 0 0 0
2 2 1 0 0 0 0 0 0 0 0 0 0 0 0 0 0 0 0 0 0 0 0 0 0 0 0 0 0 0 0 0 0 0 0 0 1 3 2 1 0 0 0
10 9 4 0 0 0 0 0 0 0 0 0 0 0 0 0 0 0 0 0 0 0 0 0 0 0 0 0 0 0 0 0 0 0 0 3 13 21 17 7 1 0 0
23 21 9 0 0 0 0 1 0 0 0 0 0 0 0 0 0 0 0 0 0 0 0 0 0 0 0 0 0 0 0 0 0 0 0 11 37 53 42 20 5 1 0
33 32 15 1 0 0 0 0 0 0 0 0 0 0 0 0 2 3 3 2 2 3 5 6 6 3 1 0 0 0 0 0 0 0 0 18 55 76 62 34 13 4 1
42 39 22 7 4 2 0 1 0 0 0 0 1 3 3 2 3 12 22 28 29 28 31 32 28 19 9 2 0 0 0 0 0 0 3 25 63 83 71 44 21 8 4
58 52 37 28 23 11 8 12 7 3 6 7 7 15 21 12 5 19 49 69 72 68 61 54 45 31 16 4 0 0 0 0 0 0 8 36 69 82 73 49 25 11 6
76 73 63 62 58 36 30 40 30 19 28 35 33 42 51 36 14 23 62 91 96 88 70 52 42 31 14 4 2 3 1 0 0 0 14 44 71 77 66 45 24 11 6
89 88 87 90 87 73 64 71 66 53 60 71 72 72 75 64 38 38 68 92 96 91 75 59 53 45 28 18 14 13 7 4 4 4 19 49 70 72 62 44 27 15 9
96 95 97 99 99 95 91 92 90 85 86 92 94 92 88 84 71 65 80 95 97 92 85 82 80 75 65 53 43 33 22 17 20 24 35 58 75 77 73 62 48 32 24
98 98 99 100 100 100 100 100 99 98 97 97 98 98 96 94 92 89 93 98 99 93 87 92 95 94 90 84 74 58 42 37 46 57 63 73 84 88 88 85 76 62 52
99 100 100 100 100 100 100 100 100 100 100 99 100 100 99 99 99 99 99 100 100 96 93 96 98 98 97 94 88 76 63 61 70 81 87 89 92 94 96 97 93 85 78
100 100 100 100 100 100 100 100 100 100 100 100 100 100 100 100 100 100 100 100 100 100 100 100 99 98 96 93 89 82 76 75 79 86 93 96 96 96 97 99 98 94 89
100 100 100 99 99 100 100 100 100 100 99 100 100 100 100 100 100 100 100 100 100 100 100 100 99 97 94 91 88 81 74 72 73 79 87 93 93 93 94 95 97 95 93
100 100 100 99 99 99 100 100 100 100 100 100 100 100 100 100 100 100 100 100 100 100 100 100 99 96 94 93 90 82 68 59 60 69 79 83 81 78 78 82 89 93 93
98 98 98 98 98 99 100 100 100 100 100 100 100 100 100 100 100 100 100 100 100 100 100 100 100 98 97 97 95 86 66 48 43 55 71 78 72 63 54 56 70 84 88
78 78 81 89 94 96 98 100 100 100 100 100 100 100 100 100 100 100 100 100 100 99 99 99 100 99 97 97 94 82 62 44 35 42 64 79 78 67 46 32 42 64 77
41 41 50 66 78 86 93 97 97 98 98 99 100 100 99 100 100 100 100 100 99 97 97 98 99 96 93 89 82 71 55 43 36 37 54 74 84 79 58 31 23 41 61
11 13 26 44 60 75 87 92 93 91 90 95 98 100 100 100 100 100 100 99 98 96 95 94 93 88 79 69 60 51 42 36 30 24 31 50 63 66 58 37 21 27 42
2 5 17 37 58 74 83 89 90 86 85 90 95 99 100 100 100 100 98 97 96 93 88 83 77 68 55 41 33 29 25 22 17 10 10 17 25 32 35 30 21 19 24
1 4 14 38 63 76 83 89 90 87 86 89 93 97 99 100 100 99 97 96 95 90 81 73 64 49 33 22 17 15 14 13 10 6 3 3 5 11 18 20 16 12 12

GEFSSE_con_probscp_018.txt.gz
Probability
0 0 0 0 0 0 0 0 0 0 0 0 0 0 0 0 0 0 0 0 0 0 0 0 0 0 0 0 0 0 0 0 0 0 0 0 0 0 0 0 0 0 0
0 0 0 0 0 0 0 0 0 0 0 0 0 0 0 0 0 0 0 0 0 0 0 0 0 0 0 0 0 0 0 0 0 0 0 0 0 0 0 0 0 0 0
0 0 0 0 0 0 0 0 0 0 0 0 0 0 0 0 0 0 0 0 0 0 0 0 0 0 0 0 0 0 0 0 0 0 0 0 0 0 0 0 0 0 0
0 0 0 0 0 0 0 0 0 0 0 0 0 0 0 0 0 0 0 0 0 0 0 0 0 0 0 0 0 0 0 0 0 0 0 0 0 0 0 0 0 0 0
0 0 1 1 1 1 1 0 0 0 0 0 0 0 0 0 0 0 0 0 0 0 0 0 0 0 0 0 0 0 0 0 0 0 0 0 0 0 0 0 0 0 0
0 1 3 5 5 5 4 2 0 0 0 0 0 0 0 0 0 0 0 0 0 0 0 0 0 0 0 0 0 0 0 0 0 0 0 0 0 0 0 0 0 0 0
0 2 8 16 20 18 14 8 4 2 1 0 0 0 0 0 0 0 0 0 0 0 0 0 0 0 0 0 0 0 0 0 0 0 0 0 0 0 0 0 0 0 0
1 4 13 28 38 39 32 21 12 6 2 0 0 0 0 0 0 0 0 0 0 0 0 0 0 0 0 0 0 0 0 0 0 0 0 0 0 0 0 0 0 0 0
1 5 14 27 40 46 41 29 17 8 2 0 0 0 0 0 0 0 0 0 0 0 0 0 0 0 0 0 0 0 0 0 0 0 0 0 0 0 1 1 1 1 1
0 4 11 21 28 31 28 23 16 8 2 0 0 0 0 0 0 0 0 0 0 0 0 0 0 0 0 0 0 0 0 0 0 0 0 0 0 0 1 5 11 14 14
1 4 13 23 26 22 17 14 11 6 1 0 0 0 0 0 0 0 0 0 0 0 0 0 0 0 0 0 0 0 0 0 0 0 0 0 0 0 4 15 30 41 44
6 7 18 33 38 29 18 12 10 6 1 0 1 2 3 2 0 0 0 0 0 0 0 0 0 0 0 0 0 0 0 0 0 0 0 0 0 2 10 29 49 63 68
20 15 20 37 44 33 16 13 17 12 6 4 4 5 8 7 4 2 1 1 1 3 5 5 6 5 3 1 0 0 0 0 0 0 0 1 2 6 19 42 63 72 75
44 28 22 33 36 23 11 16 29 26 17 15 12 15 23 27 23 17 12 9 11 21 29 28 23 16 9 3 1 0 0 0 0 0 0 3 11 20 33 56 74 79 79
66 50 40 43 39 26 22 32 45 47 39 32 30 36 50 61 58 50 40 32 36 52 64 62 50 36 20 8 2 1 1 1 1 1 1 8 26 44 58 74 85 87 85
84 77 72 70 64 56 56 62 70 71 66 60 59 65 77 87 88 83 74 67 68 77 85 82 71 56 39 22 11 8 7 6 6 6 4 11 33 61 79 89 92 92 91
95 95 94 92 88 86 86 87 90 89 84 77 73 75 83 91 95 97 94 91 88 88 89 86 77 70 60 45 31 23 17 13 11 11 10 13 29 58 83 93 94 95 95
98 99 100 99 99 98 97 95 94 89 78 64 55 54 60 69 82 93 95 93 90 90 90 86 79 74 70 60 47 34 21 13 9 10 12 14 25 48 75 89 94 95 96
98 98 99 98 97 96 93 88 82 72 57 44 35 30 32 42 62 83 90 89 88 91 91 88 81 74 66 58 48 33 18 8 5 6 8 11 21 39 59 77 88 91 91
90 89 88 84 79 75 72 66 57 47 37 34 32 28 30 40 58 78 89 90 91 94 94 89 81 70 60 52 42 28 13 5 4 4 4 5 12 22 37 57 73 80 82
71 69 64 57 48 44 42 37 30 23 21 25 31 35 41 51 65 79 89 92 94 95 93 89 82 72 62 54 41 24 10 4 3 4 3 2 3 6 16 34 50 59 64
46 45 42 37 31 27 24 21 15 10 10 14 21 29 37 47 60 74 83 89 92 91 88 85 80 73 65 55 41 22 8 2 2 3 3 1 0 1 5 14 24 32 38
29 30 32 33 32 29 25 19 11 6 5 7 9 13 19 27 38 53 66 74 78 79 76 71 66 62 56 46 36 23 10 2 0 1 1 0 0 1 2 3 6 11 15
19 21 25 30 32 31 26 18 8 3 3 4 3 3 5 8 14 26 41 51 56 58 58 52 46 46 43 34 27 21 13 4 1 0 0 0 0 1 1 0 0 2 3
10 13 19 25 27 26 21 12 4 1 1 2 2 1 1 0 2 9 21 31 37 40 40 35 32 33 32 26 20 16 11 7 3 1 0 0 0 0 0 0 0 0 0
5 9 17 21 22 22 17 9 3 1 0 1 1 0 0 0 1 4 12 21 28 31 30 27 26 25 23 20 16 11 9 8 5 2 1 0 0 0 0 0 0 0 0

GEFSSE_con_probscp_024.txt.gz
Probability
0 0 0 0 0 0 0 0 0 0 0 0 0 0 0 0 0 0 0 0 0 0 0 0 0 0 0 0 0 0 0 0 0 0 0 0 0 0 0 0 0 0 0
0 0 0 0 0 0 0 0 0 0 0 0 0 0 0 0 0 0 0 0 0 0 0 0 0 0 0 0 0 0 0 0 0 0 0 0 0 0 0 0 0 0 0
0 0 0 0 0 0 0 0 0 0 0 0 0 0 0 0 0 0 0 0 0 0 0 0 0 0 0 0 0 0 0 0 0 0 0 0 0 0 0 0 0 0 0
0 0 0 0 0 0 0 0 0 0 0 0 0 0 0 0 0 0 0 0 0 0 0 0 0 0 0 0 0 0 0 0 0 0 0 0 0 0 0 0 0 0 0
0 0 0 0 0 0 0 0 0 0 0 0 0 0 0 0 0 0 0 0 0 0 0 0 0 0 0 0 0 0 0 0 0 0 0 0 0 0 0 0 0 0 0
0 0 0 0 0 0 0 0 0 0 0 0 0 0 0 0 0 0 0 0 0 0 0 0 0 0 0 0 0 0 0 0 0 0 0 0 0 0 0 0 0 0 0
0 0 0 1 0 0 0 0 0 0 0 0 0 0 0 0 0 0 0 0 0 0 0 0 0 0 0 0 0 0 0 0 0 0 0 0 0 0 0 0 0 0 0
0 0 1 2 3 3 2 1 1 0 0 0 0 0 0 0 0 0 0 0 0 0 0 0 0 0 0 0 0 0 0 0 0 0 0 0 0 0 0 0 0 0 0
0 0 1 3 5 7 7 6 5 3 2 1 1 0 0 0 0 0 0 0 0 0 0 0 0 0 0 0 0 0 0 0 0 0 0 0 0 0 0 0 0 0 0
0 0 0 2 5 8 12 16 17 14 12 9 6 3 2 1 0 0 0 0 0 0 0 0 0 0 0 0 0 0 0 0 0 0 0 0 0 0 0 0 0 0 0
0 0 0 1 4 9 16 25 32 33 30 26 18 12 8 5 2 1 0 0 0 0 0 0 0 0 0 0 0 0 0 0 0 0 0 0 0 0 0 0 0 0 0
0 0 0 1 4 11 21 32 42 48 48 44 37 29 23 15 10 7 5 3 1 0 1 1 1 1 1 1 1 1 1 0 0 0 0 0 0 0 0 0 0 0 0
0 0 0 2 5 13 25 36 44 52 54 52 50 48 45 39 33 29 26 21 14 9 6 7 8 7 7 8 7 6 5 3 1 0 0 0 0 0 0 0 0 0 0
2 1 1 4 7 14 25 32 37 45 49 49 51 58 67 69 64 59 56 51 43 34 26 22 20 16 15 15 14 14 12 7 3 1 0 0 0 0 0 0 0 0 0
10 6 5 9 15 22 28 26 26 31 37 41 44 56 74 84 82 77 74 71 68 66 58 48 38 29 25 21 17 17 16 11 6 3 1 0 0 0 0 0 0 0 0
29 22 16 19 28 35 35 27 19 18 25 33 38 48 66 80 83 78 74 74 78 82 79 69 57 46 38 30 22 21 22 18 13 8 4 2 1 0 0 0 0 1 1
52 45 36 37 43 44 37 28 20 18 26 36 43 49 61 76 81 78 75 78 83 85 83 78 70 61 52 44 36 35 36 32 23 15 9 6 5 3 2 2 2 3 4
70 65 61 60 58 48 37 31 30 33 42 52 57 59 65 76 83 82 83 86 89 90 87 83 77 69 61 56 50 49 50 46 33 19 12 9 8 7 6 6 6 7 9
72 70 67 65 58 47 37 33 34 38 47 54 55 54 58 68 76 81 85 88 91 92 89 85 81 75 68 61 55 53 54 53 41 24 14 12 10 9 9 7 8 11 13
53 52 49 44 39 34 30 25 22 23 27 30 29 29 35 43 52 62 71 77 81 83 83 81 78 77 73 66 58 51 50 50 43 29 21 17 12 7 6 5 6 9 12
27 26 25 22 19 19 18 14 10 7 7 8 8 9 12 17 23 32 44 55 61 66 71 73 73 73 75 73 64 51 42 38 35 31 26 20 12 6 3 2 3 6 11
9 10 11 10 10 11 12 11 8 4 3 3 2 2 2 3 5 11 20 29 37 46 56 62 65 69 73 75 68 51 32 21 19 21 21 15 9 4 1 1 1 4 9
3 5 7 7 7 9 12 13 11 6 3 2 1 1 0 0 1 3 6 10 16 25 35 44 53 61 66 69 65 51 30 14 7 7 8 7 5 3 1 0 0 2 5
4 5 5 5 6 8 11 14 12 7 3 1 0 0 0 0 0 1 1 2 5 9 14 23 36 49 57 60 60 51 33 17 7 2 1 1 2 2 2 1 1 2 3
3 4 4 4 4 5 6 7 7 4 2 1 0 0 0 0 0 0 0 0 1 2 4 9 20 35 47 52 54 51 41 29 18 8 3 1 1 1 2 2 2 3 4
2 2 3 3 2 2 2 2 2 1 1 0 0 0 0 0 0 0 0 0 0 0 1 3 11 26 38 45 49 51 48 41 28 14 5 2 1 0 1 1 2 3 4

GEFSSE_con_probscp_030.txt.gz
Probability
0 0 0 0 0 0 0 0 0 0 0 0 0 0 0 0 0 0 0 0 0 0 0 0 0 0 0 0 0 0 0 0 0 0 0 0 0 0 0 0 0 0 0
0 0 0 0 0 0 0 0 0 0 0 0 0 0 0 0 0 0 0 0 0 0 0 0 0 0 0 0 0 0 0 0 0 0 0 0 0 0 0 0 0 0 0
0 0 0 0 0 0 0 0 0 0 0 0 0 0 0 0 0 0 0 0 0 0 0 0 0 0 0 0 0 0 0 0 0 0 0 0 0 0 0 0 0 0 0
0 0 0 0 0 0 0 0 0 0 0 0 0 0 0 0 0 0 0 0 0 0 0 0 0 0 0 0 0 0 0 0 0 0 0 0 0 0 0 0 0 0 0
0 0 0 0 0 0 0 0 0 0 0 0 0 0 0 0 0 0 0 0 0 0 0 0 0 0 0 0 0 0 0 0 0 0 0 0 0 0 0 0 0 0 0
0 0 0 0 0 0 0 0 0 0 0 0 0 0 0 0 0 0 0 0 0 0 0 0 0 0 0 0 0 0 0 0 0 0 0 0 0 0 0 0 0 0 0
0 0 0 0 0 0 0 0 0 0 0 0 0 0 0 0 0 0 0 0 0 0 0 0 0 0 0 0 0 0 0 0 0 0 0 0 0 0 0 0 0 0 0
0 0 0 0 0 0 0 0 0 0 0 0 0 0 0 0 0 0 0 0 0 0 0 0 0 0 0 1 1 1 0 0 0 0 0 0 0 0 0 0 0 0 0
0 0 0 0 0 0 0 0 0 0 0 0 0 0 0 0 0 0 0 0 0 0 0 0 0 0 0 1 2 1 0 0 0 0 0 2 3 2 0 0 0 0 0
0 0 0 0 0 0 0 1 1 1 1 0 0 1 1 0 1 2 4 7 6 2 0 0 1 1 1 1 3 3 2 0 0 0 1 8 14 8 1 0 0 0 0
0 0 0 0 0 0 1 2 2 2 2 1 0 1 2 1 1 4 13 24 20 8 2 2 3 3 2 1 6 11 6 0 0 1 7 23 32 19 4 0 0 0 0
0 0 0 0 1 1 2 3 3 4 5 3 1 2 4 4 2 4 19 37 34 17 10 10 11 8 6 6 14 19 10 1 2 4 19 45 51 27 6 1 0 0 0
0 0 0 2 5 7 8 8 7 9 10 9 7 9 16 21 18 17 28 41 41 34 30 31 29 19 14 17 21 20 12 7 9 13 31 59 58 29 8 1 1 0 0
0 0 1 5 13 21 22 22 19 16 15 17 21 25 35 45 42 39 47 49 49 55 58 57 51 39 32 31 27 20 15 16 19 25 43 60 55 29 8 3 2 2 2
0 2 7 15 28 41 47 45 37 29 23 24 30 36 44 53 51 48 55 59 59 68 75 74 69 62 58 51 39 29 24 25 30 36 45 55 52 31 10 3 4 4 4
6 12 22 32 45 59 65 62 50 38 30 28 31 35 38 43 44 44 49 56 62 71 79 81 80 79 78 70 57 46 40 38 40 41 41 47 49 34 14 6 5 5 5
21 31 42 49 58 67 67 61 49 36 27 26 27 28 28 31 36 40 43 48 59 70 78 84 86 87 87 82 73 63 55 52 50 47 44 44 43 33 22 17 14 11 9
41 52 60 61 63 65 62 53 40 26 21 19 18 15 15 19 24 30 33 39 50 62 73 82 88 91 92 89 82 74 68 64 60 55 50 47 45 38 33 33 33 28 22
61 66 71 67 61 56 51 42 28 17 13 10 6 4 6 9 11 12 16 23 31 44 57 70 82 90 94 91 85 80 76 74 70 63 59 57 54 48 41 42 46 41 35
77 76 70 61 51 43 36 27 17 9 6 3 1 1 2 3 2 2 4 7 12 21 34 49 65 78 85 86 83 79 77 75 74 74 73 70 64 54 46 47 51 48 43
84 76 60 47 38 32 26 19 12 6 3 1 0 0 1 1 0 0 0 1 3 8 17 29 44 55 62 70 74 72 67 66 71 78 82 79 70 61 54 53 57 59 59
75 63 47 36 29 26 24 20 15 9 4 1 0 0 0 0 0 1 1 1 1 4 8 17 28 32 37 50 62 63 54 48 53 66 79 81 75 68 61 55 59 67 71
54 47 38 33 29 28 28 25 20 15 8 3 1 1 1 1 0 1 1 1 1 2 4 10 15 18 24 36 50 57 50 37 35 48 67 78 78 73 65 58 58 64 68
37 34 30 31 34 36 39 39 31 19 9 5 4 4 3 2 0 0 0 0 0 1 3 4 5 9 17 26 39 53 55 47 41 42 53 66 74 74 71 67 65 65 66
29 24 23 32 42 48 55 60 52 34 20 14 11 8 5 2 1 0 0 0 0 0 1 1 2 5 10 17 28 42 52 59 60 55 49 54 64 69 74 77 77 73 71
27 20 20 34 50 58 66 73 68 52 35 25 20 13 6 3 2 1 0 0 0 0 0 0 1 2 5 11 22 33 45 58 68 64 53 51 55 61 74 83 83 78 76

GEFSSE_con_probscp_036.txt.gz
Probability
0 0 0 0 0 0 0 0 0 0 0 0 0 0 0 0 0 0 0 0 0 0 0 0 0 0 0 0 0 0 0 0 0 0 0 0 0 0 0 0 0 0 0
0 0 0 0 0 0 0 0 0 0 0 0 0 0 0 0 0 0 0 0 0 0 0 0 0 0 0 0 0 0 0 0 0 0 0 0 0 0 0 0 0 0 0
0 0 0 0 0 0 0 0 0 0 0 0 0 0 0 0 0 0 0 0 0 0 0 0 0 0 0 0 0 0 0 0 0 0 0 0 0 0 0 0 0 0 0
0 0 0 0 0 0 0 0 0 0 0 0 0 0 0 0 0 0 0 0 0 0 0 0 0 0 0 0 0 0 0 0 0 0 0 0 0 0 0 0 0 0 0
0 0 0 0 0 0 0 0 0 0 0 0 0 0 0 0 0 0 0 0 0 0 0 0 0 0 0 0 0 0 0 0 0 0 0 0 0 0 0 0 0 0 0
0 0 0 0 0 0 0 0 0 0 0 0 0 0 0 0 0 0 0 0 0 0 0 0 0 0 0 0 0 0 0 0 0 0 0 0 0 1 1 0 0 0 0
0 0 0 0 0 0 0 0 0 0 0 0 0 0 0 0 0 0 0 0 0 0 0 0 0 0 0 0 0 0 0 0 0 0 0 1 6 10 8 3 1 0 0
1 1 0 0 0 0 0 0 0 0 0 0 0 0 0 0 0 0 0 0 0 0 0 0 0 0 0 1 2 1 1 0 0 0 0 6 24 36 27 12 4 1 1
5 3 1 0 0 0 0 0 0 1 1 1 1 1 1 1 1 2 3 4 4 3 3 3 2 1 2 5 6 5 3 1 0 0 0 15 49 70 57 32 15 7 4
10 7 3 1 1 0 1 1 3 4 5 5 4 3 3 2 5 13 20 21 18 16 16 18 16 14 14 17 19 17 12 6 1 0 1 23 65 90 83 60 34 17 9
12 9 7 10 10 4 6 12 12 11 12 11 11 15 16 10 9 23 40 46 46 45 48 51 48 41 36 35 40 42 33 16 4 0 4 30 72 96 95 81 57 32 17
11 8 14 31 32 16 21 35 27 24 32 28 26 40 47 31 15 22 46 66 73 75 79 81 77 67 56 46 50 63 58 33 11 3 12 44 81 99 99 92 76 49 30
12 9 23 54 58 36 43 58 47 46 61 59 53 69 78 62 35 29 50 76 86 89 90 90 87 79 66 51 48 64 69 48 26 17 30 63 90 99 99 97 86 62 42
23 21 39 72 77 62 63 71 67 70 82 84 83 88 94 86 64 53 66 82 86 87 87 87 85 80 69 55 50 57 63 56 43 42 58 80 94 98 98 96 87 65 46
47 44 61 86 91 84 79 79 79 84 90 95 96 97 97 94 83 74 79 86 82 78 80 82 81 79 73 64 57 53 54 54 55 65 80 91 95 96 95 93 84 64 48
75 72 81 95 98 96 91 87 83 84 90 94 96 95 93 92 86 77 75 77 74 70 72 75 77 78 77 71 63 54 50 50 57 68 81 90 94 93 92 90 84 70 60
91 90 93 98 100 99 96 90 82 80 86 89 87 87 86 83 74 60 53 55 59 59 61 64 68 73 74 72 68 63 58 56 59 62 66 77 87 89 90 91 86 78 73
96 97 98 99 100 100 98 90 80 80 84 78 69 70 72 63 49 36 29 31 36 37 38 42 50 60 64 64 65 67 67 66 63 60 59 67 78 84 86 89 88 83 80
97 97 97 97 97 97 95 87 79 78 74 59 50 55 53 38 25 18 15 15 16 15 15 20 30 40 46 48 47 53 62 66 65 63 62 64 70 74 76 83 89 87 83
94 94 93 92 91 91 88 81 75 69 56 39 38 46 37 18 10 8 6 4 4 4 4 7 12 18 24 27 25 30 44 55 62 66 66 65 66 67 69 78 86 89 86
86 86 85 84 84 84 81 75 71 64 46 31 34 41 28 9 3 2 1 0 0 0 1 2 3 5 8 12 13 14 23 36 48 59 67 71 71 70 72 74 80 86 88
71 72 73 74 75 76 74 70 68 63 47 35 40 43 29 12 5 3 2 1 1 0 0 0 1 2 2 4 8 10 11 17 26 37 54 67 74 78 76 72 75 83 86
56 58 61 65 66 68 69 67 67 63 52 48 54 55 43 25 14 9 6 3 2 1 0 1 3 5 3 2 6 11 11 10 11 17 26 40 58 75 78 73 72 78 82
44 50 57 63 67 70 70 70 72 68 60 61 67 68 58 43 30 24 18 12 7 3 1 2 4 5 5 2 4 8 12 11 8 6 7 14 32 57 72 73 71 75 78
35 44 56 65 72 76 77 79 80 75 69 70 74 75 70 61 53 47 42 35 24 13 7 5 4 4 5 4 4 5 8 10 8 5 2 4 14 34 55 67 71 75 76
30 39 53 65 73 79 82 85 86 82 75 74 76 78 77 75 69 64 62 58 43 24 14 9 5 4 5 7 7 6 5 7 8 6 2 1 5 20 41 60 70 75 78

GEFSSE_con_probscp_042.txt.gz
Probability
0 1 1 1 0 0 0 0 0 0 1 2 3 3 3 3 3 3 3 3 3 3 3 3 3 3 3 2 2 2 2 1 2 2 2 1 0 0 0 0 0 1 1
0 0 0 0 0 0 0 0 0 0 0 1 2 2 2 3 3 3 3 3 3 3 3 3 3 2 2 1 1 1 1 0 1 1 1 0 0 0 0 0 0 0 1
0 0 0 1 1 1 1 1 1 0 0 0 0 0 1 3 3 3 3 3 3 3 3 2 1 1 1 0 0 0 0 0 0 0 0 0 0 0 1 0 0 0 0
0 0 1 2 3 3 2 2 2 1 1 1 1 0 1 3 3 3 3 2 2 2 2 1 0 0 0 0 0 0 0 0 0 0 0 0 0 0 0 0 0 0 0
0 1 3 6 6 4 3 3 3 3 2 2 2 2 2 3 3 3 1 1 1 1 1 0 0 0 0 0 0 0 0 0 0 0 0 0 0 0 0 0 0 0 0
0 2 8 11 10 6 4 3 3 3 3 3 3 3 3 3 3 3 1 1 1 1 1 1 1 1 1 1 0 0 0 0 0 0 0 0 0 0 0 0 0 0 0
1 4 11 17 15 10 6 5 5 5 4 4 3 3 3 3 3 3 3 2 2 2 2 2 2 2 2 2 1 1 1 1 1 0 0 0 0 0 1 1 1 1 0
1 5 13 21 21 16 12 10 8 7 6 5 3 3 3 3 3 3 3 3 3 3 3 3 3 3 3 3 3 2 2 2 2 1 1 0 0 1 2 2 2 2 1
2 7 16 23 24 21 17 14 11 8 6 5 4 3 3 3 3 3 3 3 3 3 3 3 4 3 3 3 3 3 3 3 3 3 2 1 1 1 3 4 4 4 4
1 8 19 25 25 22 19 14 10 7 5 4 3 3 3 3 3 3 3 3 3 3 4 4 5 4 4 4 3 3 3 3 3 3 3 3 2 3 4 6 9 8 7
5 9 19 28 27 23 18 12 7 4 3 3 3 3 3 3 3 3 3 3 4 5 6 7 7 7 6 5 4 3 3 3 3 3 3 3 3 4 7 13 20 19 17
18 14 17 27 30 24 17 10 5 4 3 3 3 3 3 3 3 3 3 4 4 6 8 10 10 11 11 9 6 4 4 4 4 3 3 3 3 4 10 22 33 35 32
40 27 19 24 28 24 16 10 7 5 4 3 3 3 3 3 4 4 3 4 5 6 9 12 14 16 17 15 10 7 6 6 5 4 4 3 4 5 11 26 42 50 49
61 44 29 26 28 23 16 13 11 7 5 4 3 4 5 6 7 6 5 5 5 6 8 10 13 15 16 16 13 8 7 8 8 8 6 5 6 6 11 25 44 55 58
69 55 40 37 34 27 21 19 18 13 10 9 9 9 13 14 13 9 7 6 6 6 7 7 8 9 10 11 10 7 6 8 10 11 9 7 7 8 12 22 37 50 55
57 50 45 45 41 33 29 29 29 28 28 27 24 23 26 26 19 11 7 5 5 5 5 5 4 4 6 7 7 6 6 7 10 12 10 8 6 7 11 17 26 38 45
41 40 40 40 39 36 35 37 40 46 48 46 40 36 34 29 19 9 4 2 3 3 2 2 2 2 3 4 5 5 4 4 6 9 9 8 7 7 8 13 20 29 36
33 33 32 30 31 34 37 40 46 52 53 47 40 34 30 23 13 5 1 0 1 1 0 0 0 1 1 1 2 2 2 1 3 4 5 6 7 7 9 14 20 27 32
25 24 22 19 22 29 35 38 41 42 37 31 26 21 16 12 6 1 0 0 0 0 0 0 0 0 0 0 0 0 0 0 0 1 1 2 4 6 10 16 22 28 32
18 15 12 10 14 22 29 29 27 22 16 13 12 9 6 4 2 0 0 0 0 0 0 0 0 0 0 0 0 0 0 0 0 0 0 0 1 4 8 15 23 28 30
12 10 7 8 10 15 19 18 12 8 6 4 4 3 1 0 0 0 0 0 0 0 0 0 0 0 0 0 0 0 0 0 0 0 0 0 1 2 5 10 17 24 27
5 4 5 6 8 10 11 9 5 2 2 2 3 3 1 0 0 0 0 0 0 0 0 0 0 0 0 0 0 0 0 0 0 0 0 0 0 1 2 4 9 17 21
1 1 2 3 4 5 6 6 4 2 1 1 2 2 2 1 1 0 0 0 0 0 0 0 0 0 0 0 0 0 0 0 0 0 0 0 0 0 0 1 4 10 13
0 0 0 0 1 2 3 5 6 6 5 4 3 2 2 2 2 1 1 0 0 0 0 0 0 0 0 0 0 0 0 0 0 0 0 0 0 0 0 1 2 5 7
1 0 0 0 0 0 2 4 6 7 7 7 6 4 4 4 3 3 2 1 1 1 0 0 0 0 0 0 0 0 0 0 0 0 0 0 0 0 0 0 1 2 3
1 1 0 0 0 0 1 3 5 6 6 7 7 7 7 6 4 4 4 3 2 2 1 0 0 0 0 0 0 0 0 0 0 0 0 0 0 0 0 0 0 1 1

GEFSSE_con_probscp_048.txt.gz
Probability
0 0 1 0 0 0 0 0 0 0 0 0 0 0 0 0 0 0 0 0 0 0 0 0 0 0 0 0 0 0 0 0 0 0 0 0 0 0 0 0 0 0 0
0 1 1 1 0 0 0 0 0 0 0 0 0 0 0 0 0 0 0 0 0 0 0 0 0 0 0 0 0 0 0 0 0 0 0 0 0 0 0 0 0 0 0
1 2 2 1 0 0 0 0 0 0 0 0 0 0 0 0 0 0 0 0 0 0 0 0 0 0 0 0 0 0 0 0 0 0 0 0 0 0 0 0 0 0 0
3 2 2 2 2 1 0 0 0 0 0 0 0 0 0 0 0 0 0 0 0 0 0 0 0 0 0 0 0 0 0 0 0 0 0 0 0 0 0 0 0 0 0
3 2 4 8 7 4 3 3 3 2 1 0 0 0 0 0 0 0 0 0 0 0 0 0 0 0 0 0 0 0 0 0 0 0 0 0 0 0 0 0 0 0 0
3 3 9 18 19 13 9 8 8 7 6 4 2 1 1 0 0 0 0 0 0 0 0 0 0 0 0 0 0 0 0 0 0 0 0 0 0 0 0 0 0 0 0
7 9 19 33 36 29 21 18 15 13 10 8 6 4 2 1 0 0 0 0 0 0 0 0 0 0 0 0 0 0 0 0 0 0 0 0 0 0 0 0 0 0 0
18 22 33 47 50 43 36 31 28 22 17 12 8 5 3 2 0 0 0 0 0 0 0 0 0 0 0 0 0 0 0 0 0 0 0 0 0 0 0 0 0 0 0
32 40 50 57 59 53 47 44 39 31 23 15 9 6 4 2 1 1 0 0 0 0 0 0 0 0 0 0 0 0 0 0 0 0 0 0 0 0 0 0 0 0 0
38 50 63 68 67 62 55 50 44 36 25 16 11 8 5 3 2 2 1 0 0 0 0 0 0 0 0 0 0 0 0 0 0 0 0 0 0 0 0 1 1 0 0
40 50 62 67 67 64 58 52 47 39 30 22 16 11 6 4 2 2 2 1 0 0 0 0 0 0 0 0 0 0 0 0 0 0 0 0 0 0 1 2 2 1 0
46 48 51 55 58 60 57 54 49 42 35 29 22 16 11 8 5 4 3 2 1 1 0 0 0 0 0 1 1 1 1 1 1 0 0 0 0 0 1 2 2 2 1
48 47 45 45 49 51 49 47 44 39 34 31 28 24 22 18 13 8 5 4 3 2 2 1 0 1 2 3 2 2 2 2 1 0 0 0 0 1 1 2 2 3 2
47 46 43 39 40 39 35 33 33 32 31 31 31 32 33 31 23 14 9 7 6 5 4 2 1 1 2 2 2 2 1 1 0 0 0 0 0 1 2 3 4 3 2
47 44 39 35 32 30 26 24 25 26 28 30 32 34 37 35 28 19 13 10 9 7 5 2 2 2 2 1 1 1 1 1 0 0 0 0 0 2 4 5 4 2 1
45 40 35 32 28 25 23 21 21 21 22 25 28 31 32 32 29 22 14 9 7 6 4 3 2 2 2 2 2 2 2 1 0 0 0 0 1 3 4 4 3 2 2
37 35 31 27 24 21 18 17 15 14 17 21 24 26 29 28 25 18 10 5 3 2 3 3 2 1 1 1 1 1 2 1 0 0 0 1 1 2 3 3 3 3 3
24 24 23 20 17 15 13 11 10 10 14 18 20 22 25 24 18 10 5 1 0 0 1 1 1 0 0 0 0 0 0 0 0 0 0 0 0 1 2 2 3 3 2
12 13 12 10 9 8 8 7 8 9 11 13 13 14 16 15 9 5 2 1 0 0 0 0 0 0 0 0 0 0 0 0 0 0 0 0 0 0 1 1 1 1 1
6 7 5 4 2 3 4 6 8 9 9 8 7 6 6 6 4 3 2 1 0 0 0 0 0 0 0 0 0 0 0 0 0 0 0 0 0 0 0 0 0 0 0
5 5 4 2 0 0 2 4 6 6 5 3 3 2 2 2 3 3 2 1 0 0 0 0 0 0 0 0 0 0 0 0 0 0 0 0 0 0 0 0 0 0 0
3 3 3 2 0 0 0 1 2 2 1 1 1 1 1 2 3 2 1 0 0 0 0 0 0 0 0 0 0 0 0 0 0 0 0 0 0 0 0 0 0 0 0
1 1 1 1 0 0 0 0 0 0 0 0 0 0 0 1 2 1 0 0 0 0 0 0 1 0 0 0 0 0 0 0 0 0 0 0 0 0 0 0 0 0 0
0 0 0 0 0 0 0 0 0 0 0 0 0 0 0 0 0 0 0 0 0 0 0 0 0 0 0 0 0 0 0 0 0 0 0 0 0 0 0 0 0 0 0
0 0 0 0 0 0 0 0 0 0 0 0 0 0 0 0 0 0 0 0 0 0 0 0 0 0 0 0 0 0 0 0 0 0 0 0 0 0 0 0 0 0 0
0 0 0 0 0 0 0 0 0 0 0 0 0 0 0 0 0 0 0 0 0 0 0 0 0 0 0 0 0 0 0 0 0 0 0 0 0 0 0 0 0 0 0

GEFSSE_con_probscp_054.txt.gz
Probability
0 1 0 0 0 0 0 0 0 0 0 0 0 0 0 0 0 0 0 0 0 0 0 0 0 0 0 0 0 0 0 0 0 0 0 0 0 0 0 0 0 0 0
1 1 1 0 0 0 0 0 0 0 1 1 0 0 0 0 0 0 0 0 0 0 0 0 0 0 0 0 0 0 0 0 0 0 0 0 0 0 0 0 0 0 0
1 2 2 1 0 0 0 0 0 1 2 2 2 2 1 1 0 0 0 0 0 0 0 0 0 0 0 0 0 0 0 0 0 0 0 0 0 0 0 0 0 0 0
1 2 3 2 0 0 0 0 0 1 3 4 5 5 5 3 2 0 0 0 0 0 0 0 0 0 0 0 0 0 0 0 0 0 0 0 0 0 0 0 0 0 0
2 3 3 1 0 0 0 0 1 2 4 6 7 7 6 4 3 1 0 0 0 0 0 0 0 0 0 0 0 0 0 0 0 0 0 0 0 0 0 0 0 0 0
2 3 2 1 0 0 0 0 1 2 4 6 7 7 4 2 1 0 0 0 0 0 0 0 0 0 0 0 0 0 0 0 0 0 0 0 0 0 0 0 0 0 0
1 2 2 1 0 0 1 1 1 3 6 8 8 6 4 2 0 0 0 0 0 0 0 0 0 0 0 0 0 0 0 0 0 0 0 0 0 0 0 0 0 0 0
0 1 2 1 1 1 2 3 4 6 8 11 11 9 7 5 4 3 2 1 0 0 0 0 0 0 0 0 0 0 0 0 0 0 0 0 0 0 0 0 0 0 0
0 1 1 2 2 4 6 9 11 12 13 14 14 13 12 11 10 9 7 4 1 0 0 0 0 0 0 0 0 0 0 0 0 0 0 0 1 0 0 0 0 0 0
1 2 4 5 6 6 10 17 20 19 19 19 20 21 20 16 14 14 15 14 10 4 1 0 0 0 0 0 0 0 0 0 0 0 0 1 2 1 0 0 0 0 0
12 12 13 14 14 12 15 22 25 26 27 27 29 33 32 24 19 23 29 36 29 15 6 2 2 2 2 2 1 1 1 0 0 0 3 7 6 2 0 0 0 0 0
35 32 28 27 27 23 22 25 26 31 37 35 36 43 45 40 35 36 49 58 48 29 16 8 4 4 5 6 8 7 4 1 0 0 11 24 18 4 0 0 0 0 1
57 52 45 44 45 43 40 35 32 38 45 44 44 51 56 57 55 55 63 68 59 45 33 25 17 12 9 11 14 12 6 2 1 4 23 43 31 7 0 0 0 1 2
71 66 60 61 65 64 58 51 46 45 47 49 52 58 61 66 67 67 72 74 69 63 56 48 38 26 19 16 14 9 5 3 3 8 30 47 34 9 0 0 0 1 2
81 76 72 74 76 73 65 59 54 49 46 48 53 57 60 65 68 71 78 80 75 72 70 64 54 42 31 22 14 7 6 5 4 8 24 37 30 11 2 1 0 1 2
83 82 78 75 74 69 62 57 52 47 42 42 46 49 52 58 64 70 76 78 76 73 73 68 58 47 37 25 16 11 11 9 6 6 14 23 20 10 4 3 3 2 2
82 83 78 70 66 64 58 53 47 41 35 34 36 39 42 47 54 61 66 70 72 71 70 65 55 44 35 23 17 15 15 12 8 6 8 12 11 6 3 4 5 4 3
81 81 76 68 64 60 55 50 43 34 29 26 27 30 33 36 42 47 52 57 61 63 60 53 44 34 27 21 17 15 15 12 8 5 4 6 6 4 4 5 6 6 5
72 73 72 68 62 54 47 43 36 29 24 21 21 24 27 27 29 33 38 43 47 50 48 39 31 24 20 16 12 10 10 8 5 2 1 2 3 3 5 6 6 6 5
54 57 60 60 55 46 38 34 29 24 21 19 17 17 19 19 18 21 28 33 34 38 36 28 21 17 14 11 6 4 4 3 1 0 0 0 1 1 3 4 4 3 3
38 40 42 42 40 35 31 27 24 21 20 17 14 11 11 10 10 14 21 25 25 26 26 20 16 14 11 8 4 2 1 1 0 0 0 0 0 0 0 1 1 1 2
24 26 26 25 24 24 22 18 16 16 14 11 10 8 7 6 6 8 12 15 17 19 19 17 14 12 8 6 4 2 1 0 0 0 0 0 0 0 0 0 0 0 1
12 15 15 14 14 15 13 10 9 9 6 5 5 6 5 4 4 5 6 7 10 13 16 16 13 10 9 6 4 2 0 0 0 0 0 0 0 0 0 0 0 0 0
5 6 8 9 11 11 10 9 9 7 5 3 3 3 4 4 4 4 3 3 5 7 11 12 10 11 11 7 4 2 1 1 0 0 0 0 0 0 0 0 0 0 0
2 2 4 7 10 11 11 12 11 9 7 4 2 2 2 2 3 2 1 1 2 4 6 9 11 13 13 9 6 4 3 2 1 1 0 0 0 0 0 0 0 0 0
1 1 3 7 11 12 13 13 12 10 7 4 1 0 1 1 1 1 0 0 1 3 5 8 13 15 13 10 8 6 5 3 2 2 1 0 0 0 0 0 0 0 0

GEFSSE_con_probscp_060.txt.gz
Probability
18 10 4 3 3 1 0 0 0 0 0 0 0 0 0 0 0 0 0 0 0 0 0 0 0 0 0 0 0 0 0 0 0 0 0 0 0 0 0 0 0 0 0
22 11 4 3 3 2 1 1 0 0 0 0 0 0 0 0 0 0 0 0 0 0 0 0 0 0 0 0 0 0 0 0 0 0 0 0 0 0 0 0 0 0 0
20 10 3 3 3 3 3 2 1 0 0 0 0 0 0 0 0 0 0 0 0 0 0 0 0 0 0 0 0 0 0 0 0 0 0 0 0 0 0 0 0 0 0
12 7 4 3 3 3 3 3 2 1 0 0 0 0 0 0 0 0 0 0 0 0 0 0 0 0 0 0 0 0 0 0 0 0 0 0 0 0 0 0 0 0 0
10 7 5 4 3 3 3 3 2 1 0 0 1 1 1 1 0 0 0 0 0 0 0 0 0 0 0 0 0 0 0 0 0 0 0 0 0 0 0 0 0 0 0
14 11 8 5 4 3 3 3 1 0 0 1 1 2 3 2 1 0 0 1 1 0 0 0 0 0 0 0 0 0 0 0 0 0 0 0 0 0 0 0 0 0 0
24 19 12 7 5 4 4 3 2 2 1 1 2 3 4 4 3 1 2 3 3 1 1 1 0 0 0 0 0 0 0 0 0 0 0 2 3 2 0 0 0 0 0
41 32 18 11 9 7 6 5 5 4 3 3 4 5 5 6 6 4 6 9 10 8 6 4 2 0 1 1 1 0 0 0 0 0 2 8 11 7 3 0 0 0 0
61 45 26 17 14 9 6 6 6 6 6 6 6 6 6 7 8 10 14 19 21 21 18 13 7 5 7 6 3 1 0 0 0 0 4 17 26 23 11 4 1 0 0
70 54 32 22 18 9 6 9 10 9 9 9 9 9 9 9 11 18 26 31 34 37 34 27 21 19 19 15 8 4 1 0 0 0 5 25 49 48 29 13 4 0 0
67 56 39 33 25 11 10 18 20 17 16 15 16 20 19 13 14 28 41 52 56 56 55 51 45 40 34 24 15 10 6 2 0 0 8 37 70 73 51 27 10 2 0
60 55 52 54 44 26 28 38 32 29 34 29 30 41 40 25 20 33 58 76 80 77 76 76 71 61 46 32 29 29 20 7 1 0 14 50 81 85 67 41 18 6 2
53 54 63 75 71 55 57 61 47 45 57 52 49 62 64 52 40 45 69 89 91 89 87 87 85 75 54 38 44 51 36 15 5 3 21 55 80 83 70 48 27 12 6
60 59 70 87 90 81 79 78 66 64 72 71 69 75 78 77 68 67 78 88 89 89 87 84 84 79 63 49 51 56 46 26 12 10 26 52 70 75 68 51 32 17 11
77 74 80 92 96 92 89 87 82 79 79 79 80 80 83 86 85 83 85 86 84 83 82 79 78 76 69 59 53 53 51 38 23 21 32 48 59 65 64 52 33 17 11
91 88 89 93 93 91 89 90 89 87 86 84 83 83 83 86 86 84 84 81 77 76 75 73 70 66 62 58 52 50 51 46 38 34 39 48 52 52 53 45 31 17 11
96 95 94 94 93 91 90 90 91 91 89 88 86 84 83 82 80 78 77 74 69 68 68 65 60 52 46 43 41 39 42 45 45 43 44 48 46 40 37 34 27 19 13
97 97 97 95 95 95 94 92 91 90 88 87 86 84 81 77 72 71 70 66 62 61 58 53 46 38 33 29 26 26 29 36 40 42 42 42 38 32 28 25 21 16 12
92 93 94 95 95 95 95 92 87 84 82 81 84 83 77 69 65 64 63 61 57 52 47 38 31 28 26 22 17 15 18 25 31 32 32 32 28 25 23 20 15 9 6
75 79 85 87 90 91 90 86 83 80 76 75 77 76 67 58 56 56 58 59 53 44 35 27 23 22 20 16 9 6 8 14 20 21 19 18 16 16 18 19 15 8 3
50 58 66 71 75 78 79 78 77 75 69 65 65 62 53 44 41 43 47 50 45 34 26 21 19 16 11 7 3 1 2 6 9 9 8 8 9 9 11 17 18 12 6
31 36 45 52 58 61 63 65 67 66 60 56 57 53 41 32 27 27 34 37 33 28 23 20 16 12 7 4 2 1 1 2 3 2 2 3 4 4 5 10 14 14 11
19 24 34 45 50 50 51 53 56 56 51 50 53 48 35 24 18 17 21 25 25 26 25 22 17 12 8 5 4 5 3 3 2 1 0 1 2 2 1 2 7 11 11
13 21 37 49 53 52 52 52 52 49 45 43 44 42 33 21 13 11 12 15 18 21 22 21 19 16 10 7 8 8 6 5 4 2 1 2 4 3 1 1 4 9 10
12 22 39 56 62 61 59 57 53 49 44 39 35 35 30 23 15 10 8 8 9 11 12 15 18 17 12 9 9 10 7 6 5 4 3 3 3 3 3 2 4 7 9
14 22 40 59 67 66 63 60 56 53 48 39 32 30 27 24 19 13 9 8 6 4 6 11 14 14 13 10 9 10 9 6 5 5 4 3 2 2 3 3 4 7 9

GEFSSE_con_probscp_066.txt.gz
Probability
1 3 7 10 10 7 4 4 4 3 2 2 2 2 2 2 2 2 2 2 1 0 0 0 0 0 0 0 0 0 0 0 0 0 0 0 0 0 0 0 0 0 0
2 3 7 10 9 7 4 4 3 2 1 1 1 1 1 1 1 1 1 1 0 0 0 0 0 0 0 0 0 0 0 0 0 0 0 0 0 0 0 0 0 0 0
3 3 6 9 9 6 4 3 2 1 0 0 0 0 0 0 0 0 0 0 0 0 0 0 0 0 0 0 0 0 0 0 0 0 0 0 0 0 0 0 0 0 0
3 3 5 9 9 6 3 3 2 1 0 0 0 0 0 0 0 0 0 0 0 0 0 0 0 0 0 0 0 0 0 0 0 0 0 0 0 0 0 0 0 0 0
3 3 6 9 8 5 4 4 5 4 2 0 0 0 0 0 0 0 0 0 0 0 0 0 0 0 0 0 0 0 0 0 0 0 0 0 0 0 0 0 0 0 0
4 5 8 11 10 8 7 7 6 5 2 0 0 0 0 0 0 0 0 0 0 0 0 0 0 0 0 0 0 0 0 0 0 0 0 0 0 0 0 0 0 0 0
7 7 10 14 14 12 12 9 6 5 4 3 2 1 0 1 1 0 0 0 0 0 0 0 0 0 0 0 0 0 0 0 0 0 0 0 0 0 0 0 0 0 0
7 7 9 12 14 15 14 11 8 7 7 7 5 2 1 1 1 1 0 0 0 0 1 1 1 0 0 0 0 0 0 0 0 0 0 0 0 0 0 0 0 0 0
5 5 6 8 11 13 14 12 10 9 9 9 7 4 2 1 2 2 1 1 1 1 2 3 2 0 1 1 1 1 0 0 0 0 0 0 0 1 1 0 0 0 0
3 4 6 8 10 11 11 11 11 11 10 9 7 4 3 3 3 3 4 6 6 6 7 8 7 4 4 4 3 2 1 0 0 0 0 0 1 3 3 2 1 2 2
5 4 5 8 10 9 8 8 9 11 11 10 7 5 6 6 5 4 5 8 11 13 15 16 16 15 14 12 8 5 3 2 0 0 0 0 3 7 8 6 5 5 5
13 8 4 5 6 7 8 9 10 10 12 11 9 7 8 9 7 4 3 6 11 16 21 26 30 31 29 25 18 13 9 5 2 0 0 2 7 17 22 20 15 10 8
28 20 13 11 11 11 16 20 17 15 16 16 13 12 12 12 10 7 5 8 14 21 29 38 46 48 45 40 32 24 18 11 4 1 1 4 15 33 45 42 32 21 13
47 40 34 32 28 26 30 34 30 26 28 27 22 19 18 17 16 14 12 14 21 33 43 51 56 58 55 48 40 30 22 16 7 2 2 7 21 43 56 54 45 33 21
63 62 60 58 52 47 45 44 42 42 45 44 37 30 28 26 24 20 18 19 26 38 47 52 54 53 51 46 37 26 19 14 9 4 3 9 21 37 48 48 44 35 26
74 75 76 74 69 63 59 55 54 55 59 60 54 45 41 38 34 28 24 23 28 33 38 41 40 36 35 34 28 20 14 11 9 7 5 8 16 24 32 36 35 30 25
75 76 76 74 69 66 64 63 63 63 64 64 58 52 49 47 42 34 26 25 26 27 28 28 26 23 22 20 15 12 10 9 9 8 8 8 10 15 20 25 28 27 25
63 63 65 64 59 57 57 58 59 57 54 51 46 44 47 47 40 29 20 18 19 19 18 17 16 16 15 12 7 6 6 6 6 6 6 6 7 9 10 15 20 21 21
45 44 46 48 46 45 45 45 44 40 35 31 30 32 36 36 29 19 12 10 12 11 9 8 9 10 10 9 6 4 3 4 3 2 2 3 5 5 4 6 10 12 11
29 27 28 31 32 32 32 32 29 24 20 19 19 20 22 20 16 11 7 6 6 5 4 3 4 6 6 6 5 3 1 1 1 0 0 1 3 2 2 3 4 4 3
16 15 15 17 19 19 21 21 19 17 15 14 11 9 8 8 7 5 4 2 2 2 1 1 1 3 3 3 2 1 0 0 0 0 0 0 1 1 2 3 3 2 0
7 7 8 9 11 11 12 11 11 12 11 8 5 2 1 2 2 2 1 0 0 0 0 0 0 1 1 1 0 0 0 0 0 0 0 0 0 0 1 2 2 1 0
5 6 7 8 8 8 7 5 5 6 5 4 3 1 0 0 0 0 0 0 0 0 0 0 0 0 0 0 0 0 0 0 0 0 0 0 0 0 0 0 0 0 0
3 5 8 8 7 6 4 3 2 2 3 2 2 1 0 0 0 0 0 0 0 0 0 0 0 0 0 0 0 0 0 0 0 0 0 0 0 0 0 0 0 0 0
2 4 6 7 5 4 2 1 1 1 1 1 1 1 0 0 0 0 0 0 0 0 0 0 0 0 0 0 0 0 0 0 0 0 0 0 0 0 0 0 0 0 0
3 3 4 4 3 3 2 2 1 0 0 0 0 0 0 0 0 0 0 0 0 0 0 0 0 0 0 0 0 0 0 0 0 0 0 0 0 0 0 0 0 0 0

GEFSSE_con_probscp_072.txt.gz
Probability
1 1 1 1 5 9 11 14 17 19 19 15 10 6 3 1 0 0 0 0 0 0 0 0 0 0 0 0 0 0 0 0 0 0 0 0 0 0 0 0 0 0 0
3 3 2 2 4 7 8 9 11 13 13 11 7 3 2 1 0 0 0 0 0 0 0 0 0 0 0 0 0 0 0 0 0 0 0 0 0 0 0 0 0 0 0
6 5 3 3 4 5 6 6 7 7 6 4 2 1 1 1 0 0 0 0 0 0 0 0 0 0 0 0 0 0 0 0 0 0 0 0 0 0 0 0 0 0 0
7 6 4 4 5 6 6 7 8 7 3 1 0 0 0 0 0 0 0 0 0 0 0 0 0 0 0 0 0 0 0 0 0 0 0 0 0 0 0 0 0 0 0
9 6 4 4 5 6 7 8 10 7 4 1 1 0 0 0 0 0 0 0 0 0 0 0 0 0 0 0 0 0 0 0 0 0 0 0 0 0 0 0 0 0 0
10 7 5 6 6 8 9 11 11 8 5 3 2 1 1 1 0 0 0 0 0 0 0 0 0 0 0 0 0 0 0 0 0 0 0 0 0 0 0 0 0 0 0
10 7 6 8 10 10 11 12 10 8 6 4 3 3 2 2 1 1 0 0 0 0 0 0 0 0 0 0 0 0 0 0 0 0 0 0 0 0 0 0 0 0 0
12 9 8 11 12 12 12 12 10 8 7 6 4 3 3 2 2 1 1 0 0 0 0 0 0 0 0 0 0 0 0 0 0 0 0 0 0 0 0 0 0 0 0
12 11 11 13 13 12 12 13 12 10 9 7 5 4 3 1 1 1 1 0 0 0 0 0 0 0 0 0 0 0 0 0 0 0 0 0 0 0 0 0 0 0 0
11 12 15 17 16 15 13 13 14 15 13 10 8 6 4 1 0 0 0 0 0 0 0 0 0 0 0 0 0 0 0 0 0 0 0 0 0 0 0 0 0 0 0
13 15 19 23 23 19 16 16 19 21 20 16 12 10 6 2 1 2 2 1 1 0 0 0 1 1 1 1 0 0 0 0 0 0 0 0 0 0 0 0 0 0 0
16 16 20 25 26 24 22 23 25 27 26 22 17 15 11 7 5 6 7 6 4 3 3 3 3 3 3 4 4 3 3 2 1 1 0 0 0 0 0 0 1 1 0
16 16 19 23 25 23 24 26 29 32 31 26 23 20 17 15 13 13 14 13 9 9 10 11 10 9 9 9 10 9 9 8 6 3 1 0 1 1 2 3 4 3 2
18 18 19 21 21 21 21 22 25 29 31 29 25 24 24 23 21 20 21 18 14 14 15 17 18 17 16 16 14 14 15 15 11 7 3 1 3 5 5 7 8 6 5
23 21 19 19 20 20 19 18 18 20 24 25 24 24 26 26 24 23 23 20 16 15 15 16 18 21 21 20 16 14 15 15 12 9 5 3 6 10 9 8 8 9 9
26 22 18 17 18 20 20 17 13 13 16 18 18 19 21 22 21 20 19 18 16 14 12 12 14 18 20 19 16 14 13 12 9 8 7 5 7 10 10 8 9 12 14
29 24 19 16 16 17 19 16 12 10 12 13 11 11 12 14 15 14 13 13 12 10 10 11 12 13 13 13 12 11 11 10 8 8 9 7 7 7 7 6 9 14 17
26 23 20 17 14 13 14 14 11 9 9 8 6 5 5 6 8 9 9 8 7 6 7 9 9 8 7 6 5 5 6 7 6 6 8 8 7 6 5 6 9 14 16
18 18 16 14 10 9 9 10 9 7 6 6 5 4 2 2 4 6 6 5 4 4 3 4 5 4 3 2 1 1 2 3 3 3 5 6 7 8 7 6 10 12 13
10 10 9 7 6 6 6 6 6 5 4 4 4 3 2 2 3 4 4 3 3 2 1 2 2 1 1 0 0 0 0 1 1 2 3 4 6 7 6 5 7 10 12
5 5 4 3 3 3 4 4 3 2 2 2 1 1 2 2 1 1 1 1 1 1 0 0 0 0 0 0 0 0 0 0 1 1 2 2 3 4 3 2 3 5 8
2 1 1 1 1 1 1 1 1 0 0 0 0 0 1 1 0 0 0 0 0 0 0 0 0 0 0 0 0 0 0 0 0 0 0 1 1 1 1 1 1 2 3
1 0 0 0 0 0 0 0 0 0 0 0 0 0 0 0 0 0 0 0 0 0 0 0 0 0 0 0 0 0 0 0 0 0 0 0 0 0 0 0 0 1 1
0 0 0 0 0 0 0 0 0 0 0 0 0 0 0 0 0 0 0 0 0 0 0 0 0 0 0 0 0 0 0 0 0 0 0 0 0 0 0 0 0 0 1
0 0 0 0 0 0 0 0 0 0 0 0 0 0 0 0 0 0 0 0 0 0 0 0 0 0 0 0 0 0 0 0 0 0 0 0 0 0 0 0 0 0 1
0 0 0 0 0 0 0 0 0 0 0 0 0 0 0 0 0 0 0 0 0 0 0 0 0 0 0 0 0 0 0 0 0 0 0 0 0 0 0 0 0 1 1

GEFSSE_con_probscp_078.txt.gz
Probability
0 1 0 0 0 0 0 0 1 1 1 1 1 0 0 0 0 0 0 0 0 0 0 0 0 0 0 0 0 0 0 0 0 0 0 0 0 0 0 0 0 0 0
1 1 1 0 0 0 0 1 2 2 1 1 0 0 0 0 0 0 0 0 0 0 0 0 0 0 0 0 0 0 0 0 0 0 0 0 0 0 0 0 0 0 0
1 2 1 0 0 0 1 2 3 3 2 1 1 1 1 1 0 0 0 0 0 0 0 0 0 0 0 0 0 0 0 0 0 0 0 0 0 0 0 0 0 0 0
1 2 1 1 0 0 1 2 4 5 4 2 3 3 3 2 1 0 0 0 0 0 0 0 0 0 0 0 0 0 0 0 0 0 0 0 0 0 0 0 0 0 0
1 2 3 2 1 0 0 1 4 6 5 4 5 5 4 2 1 0 0 0 0 0 0 0 0 0 0 0 0 0 0 0 0 0 0 0 0 0 0 0 0 0 0
1 3 4 3 1 0 0 1 3 5 6 6 5 5 4 2 0 0 0 0 0 0 0 0 0 0 0 0 0 0 0 0 0 0 0 0 0 0 0 0 0 0 0
1 3 6 5 3 1 1 1 3 5 6 6 6 5 4 2 1 0 0 0 0 0 0 0 0 0 0 0 0 0 0 0 0 0 0 0 0 0 0 0 0 0 0
2 4 8 7 4 3 2 1 4 7 8 7 5 4 3 2 1 0 0 0 0 0 0 0 0 0 0 0 0 0 0 0 0 0 0 0 0 0 0 0 0 0 0
3 4 7 7 4 2 1 3 7 10 10 7 5 3 1 1 0 0 0 0 0 0 0 0 0 0 0 0 0 0 0 0 0 0 0 0 0 0 0 0 0 0 0
4 4 6 7 6 3 3 5 9 12 12 11 8 5 3 2 1 1 2 2 2 1 0 0 0 0 0 0 0 0 0 0 0 0 1 1 1 0 0 0 0 0 0
8 7 7 9 10 8 7 8 9 10 13 14 11 9 9 8 5 5 8 9 6 3 2 1 0 0 0 0 0 1 0 0 0 0 6 11 7 1 0 0 0 0 0
14 12 11 12 12 10 10 10 9 9 12 13 12 13 15 17 16 16 20 21 15 8 7 6 5 4 3 3 4 4 2 0 0 0 12 24 16 2 0 0 0 0 0
16 14 12 12 10 9 11 12 12 14 17 18 17 18 21 25 27 29 34 34 27 19 17 16 14 11 9 8 9 7 4 2 2 3 17 30 20 3 0 0 0 0 0
14 12 11 11 10 11 14 14 15 19 25 28 27 25 26 30 32 36 41 40 34 29 26 25 22 19 15 13 12 10 6 5 5 8 20 28 19 6 2 1 1 2 3
16 13 12 13 15 19 22 21 18 22 28 32 33 31 29 31 34 38 41 38 33 31 30 30 28 24 19 17 15 11 7 6 7 11 20 26 19 12 7 3 3 5 9
21 20 18 17 20 26 30 27 23 23 26 28 29 28 26 26 29 34 35 32 28 27 28 30 29 26 22 19 14 11 9 10 12 13 18 25 24 18 13 8 9 14 17
27 27 26 22 21 24 27 25 21 19 18 22 25 23 19 18 19 23 24 21 22 22 24 25 24 23 21 16 11 10 12 15 17 16 18 26 27 23 18 17 22 28 30
33 32 29 23 17 16 15 14 12 10 13 19 23 22 18 15 13 13 14 14 16 20 20 19 17 17 16 13 10 9 11 15 16 16 17 22 25 25 26 29 36 41 41
34 31 25 19 15 12 9 7 6 7 11 16 18 18 16 13 11 10 11 11 12 16 18 16 15 15 14 12 9 7 7 9 13 14 13 14 18 22 28 36 42 44 40
26 23 18 16 14 12 8 8 9 11 11 12 11 10 9 7 6 8 9 7 8 12 15 15 15 14 13 11 7 5 5 6 8 10 11 11 12 16 21 32 45 47 43
18 15 13 13 12 10 9 10 12 13 11 8 6 5 4 3 3 4 6 5 6 10 13 14 14 13 11 9 8 6 5 4 4 6 9 12 13 15 16 25 40 50 52
12 11 10 10 9 8 8 10 12 12 9 5 4 5 4 2 2 2 4 5 6 8 9 10 11 9 7 7 7 6 4 2 2 3 6 11 15 18 17 18 29 41 44
7 7 7 7 7 7 8 9 10 9 6 3 4 6 5 3 3 3 4 4 5 6 6 6 6 5 5 6 6 5 3 1 2 1 2 6 11 13 13 13 18 24 26
4 5 6 7 7 9 11 11 10 7 4 4 5 6 6 4 3 3 3 3 4 4 4 4 3 3 5 6 5 4 2 2 2 1 0 2 4 5 5 8 11 15 18
4 5 6 8 10 14 16 16 14 7 3 4 6 6 6 4 2 2 2 2 2 3 3 3 3 3 5 6 4 3 2 2 2 1 0 0 0 0 0 2 7 13 16
3 4 5 9 13 17 19 20 17 9 3 4 5 5 4 2 1 1 1 1 1 1 2 3 3 2 4 4 4 3 3 2 1 0 0 0 0 0 0 1 4 10 13

GEFSSE_con_probscp_084.txt.gz
Probability
7 4 3 1 0 0 0 0 0 0 0 0 0 0 0 0 0 0 0 0 0 0 0 0 0 0 0 0 0 0 0 0 0 0 0 0 0 0 0 0 0 0 0
11 6 2 1 0 0 0 0 0 0 0 0 0 0 0 0 0 0 0 0 0 0 0 0 0 0 0 0 0 0 0 0 0 0 0 0 0 0 0 0 0 0 0
12 7 3 2 1 0 0 0 0 0 0 0 0 0 0 0 0 0 0 0 0 0 0 0 0 0 0 0 0 0 0 0 0 0 0 0 0 0 0 0 0 0 0
10 7 4 3 1 0 0 0 0 0 0 0 0 0 0 0 0 0 0 0 0 0 0 0 0 0 0 0 0 0 0 0 0 0 0 0 0 0 0 0 0 0 0
9 8 7 5 3 1 0 0 0 0 0 0 0 0 0 0 0 0 0 0 0 0 0 0 0 0 0 0 0 0 0 0 0 0 0 0 0 0 0 0 0 0 0
10 10 10 9 6 4 2 0 0 0 0 1 1 1 2 1 1 1 0 0 0 0 0 0 0 0 0 0 0 0 0 0 0 0 0 0 0 0 0 0 0 0 0
13 12 12 12 10 7 4 2 1 1 1 2 3 5 5 4 3 2 1 0 0 0 0 0 0 0 0 0 0 0 0 0 0 0 0 0 0 0 0 0 0 0 0
18 15 12 13 13 11 7 4 4 4 4 4 5 7 7 5 4 4 2 1 1 0 0 0 0 0 0 0 0 0 0 0 0 0 0 0 0 0 0 0 0 0 0
23 17 12 12 12 10 7 6 7 6 5 5 6 6 5 4 4 4 3 2 2 1 1 0 0 0 0 0 0 0 0 0 0 0 2 5 6 3 1 0 0 0 0
23 18 13 12 10 8 7 9 8 6 6 6 5 3 3 3 3 4 4 4 3 3 3 2 1 1 0 0 1 1 0 0 0 1 7 18 21 14 6 2 0 0 0
23 20 17 16 13 10 13 15 10 6 6 6 4 4 5 5 6 8 12 14 11 6 5 5 5 4 2 2 3 4 2 0 1 5 17 35 40 30 18 9 4 1 0
28 27 29 29 24 21 24 25 18 17 18 13 11 14 14 12 14 19 26 28 20 11 8 10 11 8 6 5 8 10 5 1 3 9 26 47 54 45 32 21 12 5 2
34 36 44 47 40 36 38 36 30 33 36 28 28 34 31 27 28 34 40 37 26 17 14 17 18 15 11 9 13 13 7 2 4 11 29 51 59 53 43 35 25 12 5
42 46 55 60 55 53 53 48 42 45 46 43 46 51 49 44 40 43 47 43 34 29 27 28 28 24 18 16 16 14 9 5 6 12 28 47 56 56 52 46 39 24 14
48 52 60 65 65 65 65 60 52 48 48 49 50 51 51 49 44 43 46 44 40 38 38 38 35 30 27 25 21 19 17 14 11 15 27 43 53 59 59 56 50 40 32
49 53 59 64 66 66 65 60 52 46 45 46 45 43 42 42 41 40 40 39 37 38 39 39 36 31 29 27 23 21 23 22 19 19 26 38 49 56 61 62 59 53 48
53 56 57 57 59 60 54 46 39 37 36 36 36 35 34 33 32 32 32 31 31 33 34 33 31 27 22 20 18 16 20 22 21 21 25 33 40 47 56 62 64 60 54
61 63 59 53 52 51 44 34 28 27 27 25 25 27 28 25 22 22 24 25 26 28 27 26 25 22 18 16 13 11 13 16 16 17 21 25 30 38 47 55 60 60 56
60 61 58 51 46 43 37 30 24 21 17 15 16 19 21 18 15 15 18 21 20 21 22 22 23 24 20 15 11 7 8 11 11 10 13 17 23 31 38 43 49 53 52
50 50 49 45 40 36 33 30 25 18 11 9 11 15 15 13 11 11 15 17 15 16 19 21 22 23 19 13 7 3 4 7 8 9 9 11 17 24 31 38 46 48 47
37 39 39 36 31 26 26 26 23 17 11 8 10 12 10 7 7 8 11 12 13 15 17 17 17 16 13 9 4 1 1 4 7 9 10 11 13 19 25 35 45 49 49
27 28 30 30 25 19 18 17 16 15 12 10 13 14 10 7 7 7 8 9 10 12 13 11 10 10 9 7 4 1 0 3 7 8 8 10 12 16 20 26 37 46 51
17 18 23 27 23 16 12 9 9 11 12 12 18 22 18 12 9 7 6 6 7 8 8 6 6 6 7 7 5 3 1 2 4 4 3 5 9 13 14 17 24 36 44
7 12 22 28 23 15 10 9 8 10 11 14 21 25 21 15 11 7 5 5 5 5 5 4 4 4 4 5 5 4 3 2 1 1 1 2 5 7 9 10 16 27 35
4 10 22 30 27 19 13 12 11 11 10 11 16 17 14 13 10 6 4 5 5 5 3 3 4 3 3 3 4 4 3 2 1 0 0 1 1 2 4 8 13 21 28
4 10 20 30 30 23 16 14 14 12 10 9 9 9 8 9 7 4 4 5 5 4 2 1 2 2 3 4 4 4 3 1 0 0 0 0 0 1 5 11 15 20 25

GEFSSE_con_probscp_090.txt.gz
Probability
0 0 0 0 0 0 0 0 0 0 0 0 0 0 0 0 0 0 0 0 0 0 0 0 0 0 0 0 0 0 0 0 0 0 0 0 0 0 0 0 0 0 0
1 0 0 0 0 0 0 0 0 0 0 0 0 0 0 0 0 0 0 0 0 0 0 0 0 0 0 0 0 0 0 0 0 0 0 0 0 0 0 0 0 0 0
2 1 0 0 0 0 0 0 0 0 0 0 0 0 0 0 0 0 0 0 0 0 0 0 0 0 0 0 0 0 0 0 0 0 0 0 0 0 0 0 0 0 0
6 4 2 2 2 1 0 0 0 0 0 0 0 0 0 0 0 0 0 0 0 0 0 0 0 0 0 0 0 0 0 0 0 0 0 0 0 0 0 0 0 0 0
11 8 6 7 6 3 1 1 0 0 0 0 0 0 0 0 0 0 0 0 0 0 0 0 0 0 0 0 0 0 0 0 0 0 0 0 0 0 0 0 0 0 0
15 12 10 10 9 6 3 2 1 1 1 0 0 0 0 0 0 0 0 0 0 0 0 0 0 0 0 0 0 0 0 0 0 0 0 0 0 0 0 0 0 0 0
17 14 12 11 9 6 4 3 3 2 2 1 1 1 1 1 1 0 0 0 0 0 0 0 0 0 0 0 0 0 0 0 0 0 0 0 0 0 0 0 0 0 0
19 15 12 10 7 4 3 3 3 4 4 3 2 2 2 2 1 0 0 0 0 1 0 0 0 0 0 0 0 0 0 0 0 0 0 0 0 0 0 0 0 0 0
18 16 12 9 6 3 2 2 3 5 5 4 3 3 3 2 1 0 0 0 0 0 0 0 0 0 0 0 0 0 0 0 0 0 0 0 0 1 1 0 0 0 0
15 14 11 8 6 2 0 1 2 4 4 3 2 2 1 1 0 0 1 2 1 0 1 1 1 0 0 0 0 0 0 0 0 0 0 0 1 2 2 1 1 0 0
10 9 7 6 5 2 0 0 1 2 2 1 1 1 0 0 0 0 2 3 2 2 2 2 2 1 0 0 0 0 0 0 0 0 0 0 1 3 4 4 3 2 1
7 6 6 5 3 1 0 0 0 1 1 1 0 0 0 0 0 0 1 3 3 3 3 3 3 2 1 1 1 0 0 0 0 0 0 1 3 5 7 6 5 4 2
6 5 5 3 1 0 0 0 0 1 1 1 0 0 0 0 0 0 1 2 3 3 3 3 3 3 3 2 2 1 1 1 1 0 1 4 7 8 8 7 5 4 3
8 6 5 5 5 4 3 2 1 2 1 1 2 2 1 0 0 0 0 1 2 3 3 3 3 3 3 3 3 3 4 4 3 1 2 6 9 9 9 7 5 3 2
13 13 12 13 13 12 8 5 4 3 3 3 5 4 2 1 0 1 1 1 2 3 3 3 3 3 3 3 3 4 5 5 4 3 3 6 8 10 11 10 8 6 4
23 22 22 19 17 15 11 8 6 6 6 7 9 8 5 2 1 1 1 1 2 2 2 2 2 2 1 1 1 2 3 3 3 3 4 6 7 9 12 12 11 10 8
29 27 22 17 14 13 11 9 8 7 8 9 10 8 6 3 1 1 1 0 1 1 1 1 1 1 0 0 0 1 2 2 2 2 3 5 7 8 10 12 14 13 11
27 24 18 13 11 10 9 8 8 7 7 6 6 5 3 1 0 0 0 0 0 0 0 0 0 0 0 0 0 1 1 1 1 1 1 3 6 7 8 10 13 13 11
20 18 14 10 8 7 7 7 6 5 4 3 2 1 1 0 0 0 0 0 0 0 0 0 0 0 0 0 0 0 1 1 0 0 0 1 3 4 4 6 9 10 10
14 12 9 6 4 4 4 4 3 2 2 1 1 1 1 0 0 0 0 0 0 0 0 0 0 0 0 0 0 0 0 0 0 0 0 0 1 1 1 3 5 8 9
7 5 4 3 2 1 1 1 1 1 0 0 0 0 0 0 0 0 0 0 0 0 0 0 0 0 0 0 0 0 0 0 0 0 0 0 0 0 0 2 4 7 8
2 2 1 1 0 0 0 0 0 0 0 0 0 0 0 0 0 0 0 0 0 0 0 0 0 0 0 0 0 0 0 0 0 0 0 0 0 0 0 1 3 4 5
1 0 0 0 0 0 0 0 0 0 0 0 0 0 0 0 0 0 0 0 0 0 0 0 0 0 0 0 0 0 0 0 0 0 0 0 0 0 0 0 1 1 1
1 0 0 0 0 0 0 0 0 0 0 0 0 0 0 0 0 0 0 0 0 0 0 0 0 0 0 0 0 0 0 0 0 0 0 0 0 0 0 0 0 0 0
0 0 0 0 0 0 0 0 0 0 0 0 0 0 0 0 0 0 0 0 0 0 0 0 0 0 0 0 0 0 0 0 0 0 0 0 0 0 0 0 0 0 0
0 0 0 0 0 0 0 0 0 0 0 0 0 0 0 0 0 0 0 0 0 0 0 0 0 0 0 0 0 0 0 0 0 0 0 0 0 0 0 0 0 0 0

GEFSSE_con_probscp_096.txt.gz
Probability
1 2 3 2 2 4 7 9 7 3 2 2 2 1 0 0 0 0 0 0 0 0 0 0 0 0 0 0 0 0 0 0 0 0 0 0 0 0 0 0 0 0 0
3 4 5 4 3 4 6 6 5 3 2 1 1 1 0 0 0 0 0 0 0 0 0 0 0 0 0 0 0 0 0 0 0 0 0 0 0 0 0 0 0 0 0
6 6 7 6 6 6 6 4 3 3 2 1 0 0 0 0 0 0 0 0 0 0 0 0 0 0 0 0 0 0 0 0 0 0 0 0 0 0 0 0 0 0 0
8 7 7 8 8 7 6 4 3 3 2 1 0 0 0 0 0 0 0 0 0 0 0 0 0 0 0 0 0 0 0 0 0 0 0 0 0 0 0 0 0 0 0
11 9 8 9 9 8 6 4 3 3 2 1 0 0 0 0 0 0 0 0 0 0 0 0 0 0 0 0 0 0 0 0 0 0 0 0 0 0 0 0 0 0 0
13 11 9 9 10 8 7 5 3 2 1 1 0 0 0 0 0 0 0 0 0 0 0 0 0 0 0 0 0 0 0 0 0 0 0 0 0 0 0 0 0 0 0
14 12 11 12 11 8 7 6 4 3 2 2 1 1 0 0 0 0 0 0 0 0 0 0 0 0 0 0 0 0 0 0 0 0 0 0 0 0 0 0 0 0 0
16 13 12 13 12 10 8 6 4 3 3 3 2 2 1 0 0 1 0 0 0 0 0 0 0 0 0 0 0 0 0 0 0 0 0 0 0 0 0 0 0 0 0
18 15 12 12 13 12 8 5 4 3 2 2 2 2 1 0 0 0 0 0 0 0 0 0 0 0 0 0 0 0 0 0 0 0 0 0 0 0 0 0 0 0 0
18 17 13 11 12 12 9 5 4 3 2 1 1 1 1 0 0 0 0 0 0 0 0 0 0 0 0 0 0 0 0 0 0 0 0 0 0 0 0 0 0 0 0
16 15 13 11 11 12 10 7 4 4 2 0 0 0 0 0 0 0 0 0 0 0 0 1 1 1 0 0 0 0 0 0 0 0 0 0 0 0 0 0 0 0 0
14 12 11 10 10 11 11 8 6 4 1 0 0 0 0 0 0 0 0 0 0 0 0 1 2 2 1 0 0 0 0 0 0 0 0 1 1 0 0 0 0 0 0
14 13 13 12 11 10 10 9 6 3 1 0 0 0 0 0 0 0 0 0 0 0 0 1 1 2 2 2 1 1 1 1 0 0 0 1 1 0 0 1 2 1 1
18 18 17 15 12 10 9 7 5 3 1 0 0 0 0 0 0 0 0 0 0 0 0 0 0 1 2 2 1 1 1 2 1 1 1 1 2 1 2 3 4 3 2
19 18 16 13 11 9 7 5 2 1 1 0 0 0 0 0 0 0 0 0 0 0 0 0 1 1 1 2 1 1 2 3 3 2 2 3 4 4 3 3 4 4 3
18 16 13 10 8 7 5 3 2 1 0 0 0 0 0 0 0 0 0 0 0 0 0 0 1 2 2 2 2 3 3 3 3 3 2 4 6 6 4 3 4 4 4
19 18 15 11 7 5 4 3 3 2 1 0 0 0 0 0 0 0 0 0 0 0 0 0 1 1 1 1 2 2 2 2 2 2 1 3 5 5 3 3 4 4 5
20 19 17 13 7 3 3 2 2 2 1 0 0 0 0 0 0 0 0 0 0 0 0 0 0 0 0 0 1 1 1 1 1 1 0 1 3 3 3 4 4 4 4
17 16 14 11 6 3 1 1 1 1 1 0 0 0 0 0 0 0 0 0 0 0 0 0 0 0 0 0 0 0 0 0 0 0 0 0 1 2 3 3 4 4 3
14 13 10 6 3 1 0 0 0 0 0 0 0 0 0 0 0 0 0 0 0 0 0 0 0 0 0 0 0 0 0 0 0 0 0 0 0 1 2 2 2 2 2
11 10 6 2 1 0 0 0 0 0 0 0 0 0 0 0 0 0 0 0 0 0 0 0 0 0 0 0 0 0 0 0 0 0 0 0 0 0 0 1 2 3 2
6 5 3 1 0 0 0 0 0 0 0 0 0 0 0 0 0 0 0 0 0 0 0 0 0 0 0 0 0 0 0 0 0 0 0 0 0 0 0 1 2 3 3
2 1 1 1 0 0 0 0 0 0 0 0 0 0 0 0 0 0 0 0 0 0 0 0 0 0 0 0 0 0 0 0 0 0 0 0 0 0 0 0 1 2 3
2 2 1 1 0 0 0 0 0 0 0 0 0 0 0 0 0 0 0 0 0 0 0 0 0 0 0 0 0 0 0 0 0 0 0 0 0 0 0 0 0 1 2
3 3 2 1 0 0 0 0 0 0 0 0 0 0 0 0 0 0 0 0 0 0 0 0 0 0 0 0 0 0 0 0 0 0 0 0 0 0 0 0 0 1 1
3 3 2 1 0 0 0 0 0 0 0 0 0 0 0 0 0 0 0 0 0 0 0 0 0 0 0 0 0 0 0 0 0 0 0 0 0 0 0 0 0 1 0

GEFSSE_con_probscp_102.txt.gz
Probability
1 0 0 1 1 2 1 0 0 0 0 0 0 0 0 0 0 0 0 0 0 0 0 0 0 0 0 0 0 0 0 0 0 0 0 0 0 0 0 0 0 0 0
2 1 1 2 4 4 3 1 1 0 0 0 0 0 0 0 0 0 0 0 0 0 0 0 0 0 0 0 0 0 0 0 0 0 0 0 0 0 0 0 0 0 0
2 2 2 5 6 5 4 2 1 1 1 0 0 0 0 0 0 0 0 0 0 0 0 0 0 0 0 0 0 0 0 0 0 0 0 0 0 0 0 0 0 0 0
3 4 5 6 6 4 3 2 2 2 2 1 0 0 0 0 0 0 0 0 0 0 0 0 0 0 0 0 0 0 0 0 0 0 0 0 0 0 0 0 0 0 0
4 6 7 5 3 2 2 3 3 4 4 3 1 0 0 0 0 0 0 0 0 0 0 0 0 0 0 0 0 0 0 0 0 0 0 0 0 0 0 0 0 0 0
6 8 8 5 3 2 3 5 6 6 6 5 3 1 0 0 0 0 0 0 0 0 0 0 0 0 0 0 0 0 0 0 0 0 0 0 0 0 0 0 0 0 0
7 8 8 7 4 3 4 6 7 8 8 7 3 1 0 0 0 0 0 0 0 0 0 0 0 0 0 0 0 0 0 0 0 0 0 0 0 0 0 0 0 0 0
6 7 9 7 4 3 5 7 8 8 7 5 2 1 1 0 0 0 0 0 0 0 0 0 0 0 0 0 0 0 0 0 0 0 0 0 0 0 0 0 0 0 0
4 6 7 6 4 3 5 7 7 7 4 2 1 0 0 0 0 0 0 0 0 0 0 0 0 0 0 0 0 0 0 0 0 0 0 0 0 0 0 0 0 0 0
3 3 4 4 4 4 5 5 4 4 2 1 0 0 0 0 0 0 0 0 0 1 1 1 0 0 0 0 0 0 0 0 0 0 1 1 1 1 1 1 1 1 0
4 3 2 3 3 4 4 2 1 1 1 0 0 0 0 0 1 1 1 0 0 1 2 1 0 0 0 0 0 0 0 0 0 1 2 2 2 2 2 2 2 2 1
9 5 3 4 5 4 3 2 1 1 0 1 1 1 1 1 2 2 1 0 0 1 1 1 0 0 0 0 0 0 0 0 0 1 2 3 3 3 3 3 3 3 3
12 9 6 7 8 7 5 3 2 2 1 1 2 2 1 1 3 3 2 1 0 0 0 0 0 0 0 0 1 0 0 0 0 1 2 3 3 3 3 3 3 3 3
15 12 10 9 11 12 9 6 4 2 1 1 2 2 1 1 3 3 2 2 1 0 0 0 1 1 0 0 0 0 0 0 0 1 2 3 3 3 3 3 3 3 3
19 17 15 14 15 15 14 10 6 4 2 1 1 1 0 1 2 2 2 2 2 1 0 0 0 1 1 1 1 0 0 1 1 1 2 3 3 4 4 3 3 3 3
23 22 20 20 19 18 16 13 11 8 6 3 1 1 1 2 2 2 2 2 2 1 1 1 0 1 2 2 1 0 0 2 3 2 2 3 3 5 5 4 3 4 4
26 26 25 24 22 19 17 16 14 12 9 6 3 3 3 3 4 4 3 2 1 2 2 2 0 0 1 1 1 0 0 2 3 3 3 3 3 5 5 5 5 5 5
29 29 27 24 22 21 20 18 16 12 9 7 6 4 4 4 4 4 3 2 1 1 1 1 0 0 0 0 0 0 0 1 2 3 3 3 3 4 5 7 7 7 6
30 29 26 24 23 24 23 20 16 12 8 6 5 4 3 3 4 4 3 2 0 0 0 0 0 0 0 0 0 0 0 1 1 1 2 2 3 4 5 7 8 8 7
31 29 26 25 24 25 23 19 16 13 8 5 4 3 3 3 3 3 2 1 0 0 0 0 0 0 0 0 0 0 0 0 0 0 1 1 1 2 3 5 7 7 7
29 28 26 24 22 22 21 17 15 12 8 5 4 3 3 3 3 2 1 1 0 0 0 0 0 0 0 0 0 0 0 0 0 0 0 0 0 1 2 3 4 6 7
25 24 23 21 19 17 17 15 13 11 8 6 4 4 3 3 3 2 1 1 0 0 0 0 0 0 0 0 0 0 0 0 0 0 0 0 0 2 2 2 2 4 5
20 21 19 18 16 14 14 12 10 8 7 5 4 4 4 3 3 2 1 0 0 0 0 0 0 0 0 0 0 0 0 0 0 0 0 0 0 1 3 2 1 2 2
17 18 19 19 17 15 12 10 8 6 4 4 3 4 3 3 3 1 0 0 0 0 0 0 0 0 0 0 0 0 0 0 0 0 0 0 0 0 1 1 1 0 1
11 16 20 20 19 15 11 8 6 4 3 3 3 3 3 3 2 1 0 0 0 0 0 0 0 0 0 0 0 0 0 0 0 0 0 0 0 0 0 0 0 0 0
8 13 18 19 19 15 10 6 4 3 3 3 3 3 3 2 1 0 0 0 0 0 0 0 0 0 0 0 0 0 0 0 0 0 0 0 0 0 0 0 0 0 0

GEFSSE_con_probscp_108.txt.gz
Probability
11 11 9 4 1 0 0 0 0 0 0 0 0 0 0 0 0 0 0 0 0 0 0 0 0 0 0 0 0 0 0 0 0 0 0 0 0 0 0 0 0 0 0
15 13 10 7 3 1 0 0 0 0 0 0 0 0 0 0 0 0 0 0 0 0 0 0 0 0 0 0 0 0 0 0 0 0 0 0 0 0 0 0 0 0 0
17 13 10 8 6 3 1 1 0 0 0 0 0 0 0 0 0 0 0 0 0 0 0 0 0 0 0 0 0 0 0 0 0 0 0 0 0 0 0 0 0 0 0
15 12 11 10 7 4 3 1 0 0 0 0 0 0 0 0 0 0 0 0 0 0 0 0 0 0 0 0 0 0 0 0 0 0 0 0 0 0 0 0 0 0 0
18 18 17 14 9 6 3 1 0 0 0 0 0 0 0 0 0 0 0 0 0 0 0 0 0 0 0 0 0 0 0 0 0 0 0 0 0 0 0 0 0 0 0
25 24 22 20 14 8 4 1 0 0 0 0 0 0 0 0 0 0 0 0 0 0 0 0 0 0 0 0 0 0 0 0 0 0 0 0 0 0 0 0 0 0 0
28 26 24 23 19 12 7 3 1 0 0 0 0 0 0 0 0 0 0 0 0 0 0 0 0 0 0 0 0 0 0 0 0 0 0 0 0 0 0 0 0 0 0
32 28 24 23 20 14 9 6 3 1 0 0 0 0 0 0 0 0 0 0 0 0 0 0 0 0 0 0 0 0 0 0 0 0 0 0 0 0 0 0 0 0 0
37 31 23 19 16 13 9 6 4 3 1 1 0 0 0 0 0 0 0 0 0 0 0 0 0 0 0 0 0 0 0 0 0 0 0 0 0 0 0 0 0 0 0
37 30 22 17 13 10 7 5 4 4 3 2 1 0 0 0 0 0 0 0 0 0 0 0 0 0 0 0 0 0 0 0 0 0 0 0 0 0 0 0 0 0 0
38 31 23 18 12 8 5 4 4 4 4 3 2 1 1 1 1 1 1 1 1 0 0 0 0 0 0 0 0 0 0 0 0 1 1 1 0 0 0 0 0 0 0
42 34 29 25 17 10 7 5 3 3 4 4 3 2 3 4 3 2 2 2 1 0 0 0 0 0 0 0 0 0 0 0 0 2 3 2 1 0 0 0 0 0 0
46 40 38 36 29 21 16 11 5 4 4 5 5 5 6 6 5 4 4 2 1 1 1 1 1 0 0 1 2 1 0 0 0 2 4 4 1 0 0 0 0 1 1
51 46 46 49 44 39 32 22 13 9 7 8 10 9 8 7 6 6 6 5 3 2 2 2 2 1 1 2 3 2 1 0 0 1 3 4 3 2 2 1 1 3 3
55 53 55 57 57 53 44 32 23 18 15 15 15 13 11 9 7 5 6 6 4 3 3 2 1 1 1 1 2 2 1 1 1 2 2 3 4 4 4 3 3 3 4
59 59 61 62 61 56 45 35 28 24 21 20 19 17 14 11 8 5 5 5 5 5 4 2 0 0 0 0 1 1 1 1 2 2 2 2 4 5 5 5 5 5 4
61 61 61 61 59 51 40 33 29 25 22 22 22 20 16 12 8 6 5 6 6 6 4 1 1 1 0 0 0 0 0 1 1 2 2 2 3 4 5 6 6 7 7
59 58 56 56 56 49 39 34 31 27 24 23 22 19 14 9 7 6 6 6 5 4 2 1 1 1 0 0 0 0 0 0 0 1 1 1 1 3 4 5 6 8 9
55 54 51 50 51 47 40 35 32 30 28 25 20 15 9 6 5 6 5 4 4 3 1 0 1 1 0 0 0 0 0 0 0 0 0 0 1 2 3 4 5 6 7
51 50 48 47 47 45 39 34 31 29 26 22 16 11 6 4 4 4 4 3 3 2 1 0 0 0 0 0 0 0 0 0 0 0 0 0 0 1 2 4 5 4 4
47 47 46 44 43 41 36 32 29 25 19 15 11 7 5 5 4 3 3 3 3 2 1 0 0 0 0 0 0 0 0 1 0 0 0 0 0 0 1 4 5 5 4
43 44 44 41 37 35 31 27 25 21 15 12 9 6 4 4 3 3 3 3 3 2 1 0 0 0 0 0 0 0 0 0 0 0 0 0 0 0 0 1 3 4 3
39 41 42 40 35 31 28 25 21 16 13 11 9 6 4 3 3 3 3 3 3 2 1 0 0 0 0 0 0 0 0 0 0 0 0 0 0 0 0 0 0 1 1
34 37 40 39 35 30 26 23 18 12 10 9 8 6 4 3 3 3 3 3 3 3 1 0 0 0 0 0 0 0 0 0 0 0 0 0 0 0 0 0 0 0 0
29 30 34 35 32 27 23 20 15 11 10 9 9 7 4 3 3 3 3 3 3 3 2 2 1 1 0 0 0 0 0 0 0 0 0 0 0 0 0 0 0 0 0
24 25 28 30 29 25 21 18 15 12 11 11 10 6 4 3 3 3 3 3 3 3 3 3 2 1 0 0 0 0 0 0 0 0 0 0 0 0 0 0 0 0 0

GEFSSE_con_probscp_114.txt.gz
Probability
0 1 1 1 0 0 0 0 0 0 0 0 0 0 0 0 0 0 0 0 0 0 0 0 0 0 0 0 0 0 0 0 0 0 0 0 0 0 0 0 0 0 0
0 1 1 1 1 0 0 0 0 0 0 0 0 0 0 0 0 0 0 0 0 0 0 0 0 0 0 0 0 0 0 0 0 0 0 0 0 0 0 0 0 0 0
2 2 3 3 2 0 0 0 0 0 0 0 0 0 0 0 0 0 0 0 0 0 0 0 0 0 0 0 0 0 0 0 0 0 0 0 0 0 0 0 0 0 0
9 6 6 8 6 3 1 1 0 0 0 0 0 0 0 0 0 0 0 0 0 0 0 0 0 0 0 0 0 0 0 0 0 0 0 0 0 0 0 0 0 0 0
16 13 12 13 10 7 5 3 1 0 0 0 0 0 0 0 0 0 0 0 0 0 0 0 0 0 0 0 0 0 0 0 0 0 0 0 0 0 0 0 0 0 0
20 20 19 18 14 10 9 6 2 0 0 0 0 0 0 0 0 0 0 0 0 0 0 0 0 0 0 0 0 0 0 0 0 0 0 0 0 0 0 0 0 0 0
29 27 25 22 17 12 10 8 4 1 0 0 0 0 0 0 0 0 0 0 0 0 0 0 0 0 0 0 0 0 0 0 0 0 0 0 0 0 0 0 0 0 0
44 37 29 25 20 14 11 9 5 2 0 0 0 0 0 0 0 0 0 0 0 0 0 0 0 0 0 0 0 0 0 0 0 0 0 0 0 0 0 0 0 0 0
52 44 34 26 21 15 12 9 7 4 1 0 0 0 0 0 0 0 0 0 0 0 0 0 0 0 0 0 0 0 0 0 0 0 0 0 0 0 0 0 0 0 0
47 43 36 29 23 18 13 9 6 4 1 0 0 0 0 0 0 0 0 0 0 0 0 0 0 0 0 0 0 0 0 0 0 0 0 0 0 0 0 0 0 0 0
41 40 36 31 27 22 15 10 7 4 2 0 0 1 0 0 0 0 0 0 0 0 0 0 0 0 0 0 0 0 0 0 0 0 0 0 0 0 0 0 0 0 0
39 36 31 27 25 22 17 13 9 6 3 1 0 0 0 0 0 0 0 0 0 0 0 0 0 0 1 0 0 0 0 0 0 0 0 0 0 0 0 0 0 0 0
32 28 26 24 21 19 17 15 11 6 3 1 0 0 0 0 0 0 0 0 0 0 0 0 0 0 0 0 0 0 0 0 0 0 0 0 0 0 0 0 0 0 0
25 22 23 23 19 16 15 14 9 4 2 0 0 0 0 0 0 0 0 0 0 0 0 0 0 0 0 0 0 0 0 0 0 0 1 1 0 0 0 0 0 0 0
25 23 22 22 19 16 15 12 7 2 0 0 0 0 0 0 0 0 0 0 0 0 0 0 0 0 0 0 0 0 0 0 0 0 1 1 1 0 0 0 0 0 0
28 28 26 24 22 19 17 14 8 3 1 1 0 0 0 0 0 0 0 0 0 0 0 0 0 0 0 0 0 0 0 0 0 0 1 1 1 1 0 0 0 0 0
33 33 31 27 24 23 21 18 12 6 4 2 1 0 0 0 0 0 0 0 0 0 0 0 0 0 0 0 0 0 0 0 0 0 0 0 0 0 0 0 0 0 0
35 36 35 30 26 25 24 20 16 11 7 4 1 2 3 2 2 1 0 0 0 0 0 0 0 0 0 0 0 0 0 0 0 0 0 0 0 0 0 0 0 0 0
34 35 35 32 29 28 27 23 18 13 9 6 4 4 5 4 3 2 1 0 0 0 0 0 0 0 0 0 0 0 0 0 0 0 0 0 0 0 0 0 0 0 0
33 34 34 33 33 32 30 26 19 14 11 8 7 5 4 4 3 3 1 0 0 0 0 0 0 0 0 0 0 0 0 0 0 0 0 0 0 0 0 0 0 0 0
32 33 33 33 33 32 30 27 22 16 11 9 7 4 3 3 3 3 2 1 0 0 0 0 0 0 0 0 0 0 0 0 0 0 0 0 0 0 0 0 0 0 0
28 29 30 30 29 28 27 26 22 18 12 7 4 4 3 3 3 3 3 2 0 0 0 0 0 0 0 0 0 0 0 0 0 0 0 0 0 0 0 0 0 0 0
23 23 24 24 23 23 23 22 20 16 11 6 3 3 3 3 3 3 3 1 0 0 0 0 0 0 0 0 0 0 0 0 0 0 0 0 0 0 0 0 0 0 0
20 19 19 18 18 19 18 18 17 14 10 7 4 3 3 3 3 3 3 1 0 0 0 0 0 0 0 0 0 0 0 0 0 0 0 0 0 0 0 0 0 0 0
18 17 16 14 14 14 13 13 13 11 8 6 5 3 3 3 3 3 3 2 0 0 0 0 0 0 0 0 0 0 0 0 0 0 0 0 0 0 0 0 0 0 0
17 15 13 11 10 10 10 10 10 8 6 5 5 2 2 3 3 3 3 1 0 0 0 0 0 0 0 0 0 0 0 0 0 0 0 0 0 0 0 0 0 0 0

GEFSSE_con_probscp_120.txt.gz
Probability
0 0 0 0 0 0 0 1 2 3 2 2 2 1 0 0 0 0 0 0 0 0 0 0 0 0 0 0 0 0 0 0 0 0 0 0 0 0 0 0 0 0 0
0 0 0 0 0 0 0 0 1 2 1 1 1 0 0 0 0 0 0 0 0 0 0 0 0 0 0 0 0 0 0 0 0 0 0 0 0 0 0 0 0 0 0
0 0 0 1 1 0 0 0 0 0 0 0 0 0 0 0 0 0 0 0 0 0 0 0 0 0 0 0 0 0 0 0 0 0 0 0 0 0 0 0 0 0 0
1 1 3 5 4 2 1 1 0 0 0 0 0 0 0 0 0 0 0 0 0 0 0 0 0 0 0 0 0 0 0 0 0 0 0 0 0 0 0 0 0 0 0
2 3 7 13 12 6 3 2 1 0 0 0 0 0 0 0 0 0 0 0 0 0 0 0 0 0 0 0 0 0 0 0 0 0 0 0 0 0 0 0 0 0 0
6 8 14 21 20 13 8 6 4 2 0 0 0 0 0 0 0 0 0 0 0 0 0 0 0 0 0 0 0 0 0 0 0 0 0 0 0 0 0 0 0 0 0
12 14 20 25 24 19 14 9 6 3 1 0 0 0 0 0 0 0 0 0 0 0 0 0 0 0 0 0 0 0 0 0 0 0 0 0 0 0 0 0 0 0 0
21 21 24 26 24 21 17 12 7 4 1 0 0 0 0 0 0 0 0 0 0 0 0 0 0 0 0 0 0 0 0 0 0 0 0 0 0 0 0 0 0 0 0
30 29 29 28 26 21 17 12 8 4 2 1 0 0 0 0 0 0 0 0 0 0 0 0 0 0 0 0 0 0 0 0 0 0 0 0 0 0 0 0 0 0 0
36 35 35 33 29 23 16 12 7 4 2 1 0 0 0 0 0 0 0 0 0 0 0 0 0 0 0 0 0 0 0 0 0 0 0 0 0 0 0 0 0 0 0
37 36 36 35 30 24 18 14 10 6 3 1 0 0 0 0 0 0 0 0 0 0 0 0 0 0 0 0 0 0 0 0 0 0 0 0 0 0 0 0 0 0 0
38 36 35 35 31 26 21 17 14 11 7 3 1 0 0 0 0 0 0 0 0 0 0 0 1 0 0 0 0 0 0 0 0 0 0 0 0 0 0 0 0 0 0
40 38 36 34 32 27 22 19 18 15 12 7 2 0 0 0 0 0 0 0 0 0 0 0 0 0 0 0 0 0 0 0 0 0 0 0 0 0 0 0 0 0 0
42 40 37 32 27 24 21 19 17 16 14 8 2 0 0 0 0 0 0 0 0 0 0 0 0 0 0 0 0 0 0 0 0 0 0 0 0 0 0 0 0 0 0
42 39 34 28 24 22 21 20 18 16 12 6 2 0 0 0 0 0 0 0 0 0 0 0 0 0 0 0 0 0 0 0 0 0 0 0 0 0 0 0 0 0 0
35 33 29 26 22 21 22 22 18 14 9 3 1 0 0 0 0 0 0 0 0 0 0 0 0 0 0 0 0 0 0 0 0 0 0 0 0 0 0 0 0 0 0
25 25 24 22 20 19 19 19 16 12 7 2 0 0 0 0 0 0 0 0 0 0 0 0 0 0 0 0 0 0 0 0 0 0 0 0 0 0 0 0 0 0 0
19 19 19 19 18 16 14 14 12 9 6 3 1 0 0 0 0 0 0 0 0 0 0 0 0 0 0 0 0 0 0 0 0 0 0 0 0 0 0 0 0 0 0
18 17 18 19 19 16 12 10 9 8 6 3 1 0 0 0 0 0 0 0 0 0 0 0 0 0 0 0 0 0 0 0 0 0 0 0 0 0 0 0 0 0 0
18 18 18 20 22 20 12 7 6 7 5 2 1 0 0 0 0 0 0 0 0 0 0 0 0 0 0 0 0 0 0 0 0 0 0 0 0 1 1 1 0 0 0
17 18 18 20 22 19 12 7 5 6 5 2 0 0 0 0 0 0 0 0 0 0 0 0 0 0 0 0 0 0 0 0 0 0 0 0 0 1 1 1 0 0 0
15 16 16 16 16 14 10 8 6 6 5 2 0 1 1 1 1 0 0 0 0 0 0 0 0 0 0 0 0 0 0 0 0 0 0 0 0 0 0 0 0 0 0
14 14 14 13 12 10 9 9 9 7 5 2 0 1 2 3 2 1 0 0 0 0 0 0 0 0 0 0 0 0 0 0 0 0 0 0 0 0 0 0 0 0 0
12 12 12 12 11 10 10 11 11 9 6 3 1 1 2 3 3 2 1 0 0 0 0 0 0 0 0 0 0 0 0 0 0 0 0 0 0 0 0 0 0 0 0
9 9 11 11 10 9 10 11 11 9 7 4 2 1 1 2 2 2 1 0 0 0 0 0 0 0 0 0 0 0 0 0 0 0 0 0 0 0 0 0 0 0 0
7 8 9 11 9 8 10 11 10 8 7 5 2 1 1 1 1 1 0 0 0 0 0 0 0 0 0 0 0 0 0 0 0 0 0 0 0 0 0 0 0 0 0

GEFSSE_con_probscp_126.txt.gz
Probability
0 0 0 0 0 0 0 0 1 2 1 0 0 0 0 0 0 0 0 0 0 0 0 0 0 0 0 0 0 0 0 0 0 0 0 0 0 0 0 0 0 0 0
0 0 0 0 0 0 0 0 1 1 1 0 0 0 0 0 0 0 0 0 0 0 0 0 0 0 0 0 0 0 0 0 0 0 0 0 0 0 0 0 0 0 0
0 0 0 0 0 0 0 0 0 1 0 0 0 0 0 0 0 0 0 0 0 0 0 0 0 0 0 0 0 0 0 0 0 0 0 0 0 0 0 0 0 0 0
0 0 0 0 0 0 0 0 0 1 0 0 0 0 0 0 0 0 0 0 0 0 0 0 0 0 0 0 0 0 0 0 0 0 0 0 0 0 0 0 0 0 0
0 0 1 1 1 1 0 0 0 0 0 0 0 0 0 0 0 0 0 0 0 0 0 0 0 0 0 0 0 0 0 0 0 0 0 0 0 0 0 0 0 0 0
0 0 1 2 2 1 1 1 0 0 0 0 0 0 0 0 0 0 0 0 0 0 0 0 0 0 0 0 0 0 0 0 0 0 0 0 0 0 0 0 0 0 0
0 1 2 3 3 2 2 2 1 1 1 0 0 0 0 0 0 0 0 0 0 0 0 0 0 0 0 0 0 0 0 0 0 0 0 0 0 0 0 0 0 0 0
2 3 4 5 3 3 4 3 2 2 2 1 0 0 0 0 0 0 0 0 0 0 0 0 0 0 0 0 0 0 0 0 0 0 0 0 0 0 0 0 0 0 0
4 5 6 6 4 4 5 5 4 3 3 2 1 0 0 0 0 0 0 0 0 0 0 0 0 0 0 0 0 0 0 0 0 0 0 0 0 0 0 0 0 0 0
4 6 7 7 6 5 5 5 5 4 3 3 2 1 0 0 0 0 0 0 0 0 0 0 0 0 0 0 0 0 0 0 0 0 0 0 0 0 0 0 0 0 0
10 10 11 11 9 6 5 5 4 3 3 3 3 1 0 0 0 0 0 0 0 0 0 0 0 0 0 0 0 0 0 0 0 0 0 0 0 0 0 0 0 0 0
22 19 18 17 15 12 11 11 9 8 6 4 3 2 1 0 0 0 0 0 0 0 0 0 0 0 0 0 0 0 0 0 0 0 0 0 0 0 0 0 0 0 0
31 27 25 24 22 21 22 22 20 16 11 7 5 4 2 1 0 0 0 0 0 0 0 0 0 0 0 0 0 0 0 0 0 0 0 0 0 0 0 0 0 0 0
36 33 31 31 32 33 35 34 27 20 14 12 11 9 5 2 0 0 0 0 0 0 0 0 0 0 0 0 0 0 0 0 0 0 0 0 0 0 0 0 0 0 0
42 39 38 39 41 44 47 43 31 22 18 17 17 15 9 4 2 0 0 0 0 0 0 0 0 0 0 0 0 0 0 0 0 0 0 0 0 0 0 0 0 0 0
47 46 45 46 47 49 51 46 34 25 22 20 20 19 13 7 4 2 1 0 0 0 0 0 0 0 0 0 0 0 0 0 0 0 0 0 0 0 0 0 0 0 0
49 49 48 47 50 51 48 42 33 27 24 22 22 22 16 10 7 5 3 1 0 0 0 0 0 0 0 0 0 0 0 0 0 0 0 1 0 0 0 0 0 0 0
46 48 46 43 46 48 47 42 33 28 26 25 24 24 19 12 8 7 5 3 1 0 0 0 0 0 0 0 0 0 0 0 0 0 0 0 0 0 0 0 0 0 0
41 43 40 36 37 40 43 44 36 30 28 26 24 23 20 14 9 7 7 6 3 1 0 0 0 0 0 0 0 0 0 0 0 0 0 0 0 0 0 0 0 0 0
36 36 33 29 31 34 39 42 40 31 25 24 24 22 19 15 10 8 8 7 5 2 1 0 0 0 0 0 0 0 0 0 0 0 0 0 0 0 0 0 0 0 0
33 31 28 26 27 32 38 44 42 34 24 22 23 22 18 14 11 8 7 7 6 4 2 1 0 0 0 0 0 0 0 0 0 0 0 0 0 0 0 0 0 0 0
28 27 25 25 26 30 38 43 41 35 26 22 22 20 17 14 12 8 7 6 6 5 3 2 1 0 0 0 0 0 0 0 0 0 0 0 0 0 0 0 0 0 0
21 24 25 27 29 29 32 34 34 31 26 23 21 19 17 16 12 9 7 6 6 4 3 3 2 1 1 0 0 0 0 0 0 0 0 0 0 0 0 0 0 0 0
14 18 22 25 27 28 26 25 25 25 25 24 22 21 19 17 13 9 7 6 6 4 3 3 3 3 2 1 0 0 0 0 0 0 0 0 0 0 0 0 0 0 0
9 11 14 16 19 25 25 22 21 21 23 24 23 21 18 16 12 9 7 7 6 4 3 3 3 3 3 1 0 0 0 0 0 0 0 0 0 0 0 0 0 0 0
5 7 8 9 13 20 24 22 19 18 20 22 21 18 16 14 12 10 8 7 7 5 3 3 3 3 3 2 1 0 0 0 0 0 0 0 0 0 0 0 0 0 0

GEFSSE_con_probscp_132.txt.gz
Probability
4 4 4 2 0 0 0 0 0 0 0 0 0 0 0 0 0 0 0 0 0 0 0 0 0 0 0 0 0 0 0 0 0 0 0 0 0 0 0 0 0 0 0
9 6 5 3 0 0 0 0 0 0 0 0 0 0 0 0 0 0 0 0 0 0 0 0 0 0 0 0 0 0 0 0 0 0 0 0 0 0 0 0 0 0 0
12 8 5 3 1 0 0 0 0 0 0 0 0 0 0 0 0 0 0 0 0 0 0 0 0 0 0 0 0 0 0 0 0 0 0 0 0 0 0 0 0 0 0
10 7 6 4 2 0 0 0 0 0 0 0 0 0 0 0 0 0 0 0 0 0 0 0 0 0 0 0 0 0 0 0 0 0 0 0 0 0 0 0 0 0 0
12 11 10 9 4 0 0 0 0 0 0 0 0 0 0 0 0 0 0 0 0 0 0 0 0 0 0 0 0 0 0 0 0 0 0 0 0 0 0 0 0 0 0
17 14 15 14 8 2 0 0 0 0 0 0 0 0 0 0 0 0 0 0 0 0 0 0 0 0 0 0 0 0 0 0 0 0 0 0 0 0 0 0 0 0 0
18 15 16 18 13 4 1 0 0 0 0 0 0 0 0 0 0 0 0 0 0 0 0 0 0 0 0 0 0 0 0 0 0 0 0 0 0 0 0 0 0 0 0
24 18 15 17 14 6 2 0 0 0 0 0 0 0 0 0 0 0 0 0 0 0 0 0 0 0 0 0 0 0 0 0 0 0 0 0 0 0 0 0 0 0 0
34 25 15 11 11 7 3 1 0 0 0 0 0 0 0 0 0 0 0 0 0 0 0 0 0 0 0 0 0 0 1 1 1 0 0 0 0 0 0 0 0 0 0
40 29 16 10 9 7 5 2 0 0 0 0 0 0 0 0 0 0 0 0 0 0 0 0 0 0 0 0 0 1 2 2 1 0 0 0 0 0 0 0 0 0 0
41 31 20 15 11 8 6 5 3 1 1 0 0 0 0 0 0 0 1 1 0 0 0 0 0 0 0 0 0 1 2 2 1 0 0 0 0 0 0 0 0 0 0
39 33 29 27 20 12 10 11 7 4 3 2 1 2 1 1 1 1 2 1 0 0 0 0 0 0 0 0 0 0 1 1 0 0 0 0 0 0 0 0 0 0 0
37 34 36 41 34 24 20 18 13 10 9 7 5 4 3 3 3 3 3 2 0 0 0 0 0 0 0 0 0 0 1 0 0 0 0 0 0 0 0 0 0 0 0
43 38 42 52 51 44 36 26 20 18 14 13 13 9 5 5 5 5 5 3 1 0 0 0 0 0 0 0 0 0 0 0 0 0 0 0 1 1 0 0 0 0 0
55 49 53 62 64 61 53 41 33 28 22 23 23 17 11 10 11 11 9 6 1 0 0 0 0 0 0 0 0 0 0 0 0 0 0 0 1 1 0 0 0 0 0
65 61 66 71 71 69 64 56 49 41 34 33 33 26 18 17 19 18 15 8 3 1 1 0 0 0 0 0 0 0 0 0 0 0 0 0 1 1 0 0 0 0 0
69 69 71 72 70 68 67 63 56 49 44 42 40 34 25 23 23 22 18 11 6 4 2 0 0 0 0 0 0 0 0 1 1 1 0 0 0 0 0 0 0 0 0
73 73 71 68 67 66 65 63 57 51 49 48 45 39 32 27 24 21 17 12 9 7 3 1 0 0 0 0 0 0 0 2 2 1 0 1 1 0 0 0 0 0 0
75 74 71 66 64 63 61 60 56 52 51 49 46 41 37 31 25 20 16 13 10 8 5 2 0 0 0 0 0 0 0 1 1 1 1 1 1 0 0 0 0 0 0
73 73 70 65 62 60 57 54 53 52 51 48 43 40 37 31 25 20 18 15 11 9 7 5 2 1 0 0 0 0 0 0 0 1 1 1 1 0 0 0 0 0 0
69 69 66 62 59 56 53 49 48 49 48 45 39 35 31 26 22 21 21 19 15 13 11 9 6 2 0 0 0 0 0 0 0 0 0 0 0 0 0 1 0 0 0
66 65 62 59 55 51 47 43 41 42 43 41 36 30 24 20 19 20 22 20 18 16 13 11 8 5 2 0 0 0 0 0 0 0 0 0 0 0 0 0 0 0 0
63 62 59 54 49 44 40 37 34 35 36 35 33 28 23 19 18 21 22 20 17 15 12 11 9 6 4 2 2 1 0 0 0 0 0 0 0 0 0 0 0 0 0
59 56 52 47 42 36 33 32 29 29 31 33 33 31 26 21 20 22 24 22 18 14 11 10 9 7 6 5 3 2 1 1 0 0 0 0 0 0 0 0 0 0 0
51 47 43 39 34 31 29 27 26 26 28 31 33 33 28 23 21 22 24 23 19 14 12 10 9 9 7 6 4 3 3 2 1 0 0 0 0 0 0 0 0 0 0
44 41 38 35 30 28 27 25 24 25 27 28 30 30 28 25 22 19 21 23 20 16 13 11 10 9 8 6 4 3 3 2 1 0 0 0 0 0 0 0 0 0 0

GEFSSE_con_probscp_138.txt.gz
Probability
0 0 0 0 0 0 0 0 0 0 0 0 0 0 0 0 0 0 0 0 0 0 0 0 0 0 0 0 0 0 0 0 0 0 0 0 0 0 0 0 0 0 0
0 0 0 0 0 0 0 0 0 0 0 0 0 0 0 0 0 0 0 0 0 0 0 0 0 0 0 0 0 0 0 0 0 0 0 0 0 0 0 0 0 0 0
0 0 0 0 0 0 0 0 0 0 0 0 0 0 0 0 0 0 0 0 0 0 0 0 0 0 0 0 0 0 0 0 0 0 0 0 0 0 0 0 0 0 0
1 1 2 3 2 0 0 0 0 0 0 0 0 0 0 0 0 0 0 0 0 0 0 0 0 0 0 0 0 0 0 0 0 0 0 0 0 0 0 0 0 0 0
3 4 6 7 5 2 0 0 0 0 0 0 0 0 0 0 0 0 0 0 0 0 0 0 0 0 0 0 0 0 0 0 0 0 0 0 0 0 0 0 0 0 0
4 5 8 9 7 3 1 0 0 0 0 0 0 0 0 0 0 0 0 0 0 0 0 0 0 0 0 0 0 0 0 0 0 0 0 0 0 0 0 0 0 0 0
5 6 9 11 9 5 2 0 0 0 0 0 0 0 0 0 0 0 0 0 0 0 0 0 0 0 0 0 0 0 0 0 0 0 0 0 0 0 0 0 0 0 0
7 8 11 13 10 7 4 2 0 0 0 0 0 0 0 0 0 0 0 0 0 0 0 0 0 0 0 0 0 0 0 0 0 0 0 0 0 0 0 0 0 0 0
7 9 12 11 9 7 5 2 0 0 0 0 0 0 0 0 0 0 0 0 0 0 0 0 0 0 0 0 0 1 1 1 0 0 0 0 0 0 0 0 0 0 0
5 7 9 10 9 8 6 2 0 0 0 0 0 0 0 0 0 0 0 0 0 0 0 0 0 0 0 0 1 2 2 1 0 0 0 0 0 0 0 0 0 0 0
6 6 7 10 12 11 9 4 2 1 0 0 0 0 0 0 0 0 0 0 0 0 0 0 0 0 0 0 1 1 1 0 0 0 0 0 1 0 0 0 0 0 0
9 9 10 14 16 16 14 10 6 3 1 0 0 0 0 0 0 0 0 0 0 0 0 0 0 0 0 0 0 0 0 0 0 0 0 0 0 0 0 0 0 0 0
14 13 13 15 18 19 18 15 9 4 2 1 0 0 0 0 0 0 0 0 0 0 0 0 0 0 0 0 0 0 0 0 0 0 0 0 0 0 0 0 0 0 0
16 14 14 15 15 16 17 14 8 4 2 1 0 0 0 0 0 0 0 0 0 0 0 0 0 0 0 0 0 0 0 0 0 0 0 0 0 0 0 0 0 0 0
17 16 16 15 12 11 14 11 5 3 1 1 0 0 0 0 0 0 0 0 0 0 0 0 0 0 0 0 0 0 0 0 0 0 0 0 0 0 0 0 0 0 0
22 21 20 18 13 11 12 10 5 3 1 1 0 0 0 0 0 0 0 0 0 0 0 0 0 0 0 0 0 0 0 0 0 0 0 0 0 0 0 0 0 0 0
29 26 24 23 19 16 15 14 11 7 4 3 2 0 0 1 1 0 0 0 0 0 0 0 0 0 0 0 0 0 0 0 0 0 0 0 0 0 0 0 0 0 0
37 34 30 29 28 25 22 22 20 14 11 9 6 3 3 4 4 2 1 0 0 0 0 0 0 0 0 0 0 0 0 0 0 0 0 0 0 0 0 0 0 0 0
45 41 38 38 37 32 28 28 26 21 17 15 11 6 6 8 7 5 3 2 1 1 0 0 0 0 0 0 0 0 0 0 0 0 0 0 0 0 0 0 0 0 0
47 45 45 45 41 35 30 27 26 23 19 16 14 10 8 8 9 7 5 3 3 2 1 0 0 0 0 0 0 0 0 0 0 0 0 0 0 0 0 0 0 0 0
48 47 47 46 41 33 26 23 23 22 18 15 13 12 9 7 8 7 5 4 4 3 1 0 0 0 0 0 0 0 0 0 0 0 0 0 0 0 0 0 0 0 0
50 49 47 43 36 28 21 17 17 17 15 11 10 10 9 6 6 5 4 4 4 3 2 1 0 0 0 0 0 0 0 0 0 0 0 0 0 0 0 0 0 0 0
49 48 45 39 32 23 17 14 13 12 11 8 8 8 7 5 4 3 3 4 3 3 2 1 0 0 0 0 0 0 0 0 0 0 0 0 0 0 0 0 0 0 0
45 44 42 36 28 21 16 14 13 10 8 7 7 7 6 4 4 4 3 3 3 3 2 1 0 0 0 0 0 0 0 0 0 0 0 0 0 0 0 0 0 0 0
41 40 39 34 26 20 16 14 11 8 6 6 7 6 4 4 5 5 4 4 2 1 1 0 0 0 0 0 0 0 0 0 0 0 0 0 0 0 0 0 0 0 0
39 38 37 32 26 20 17 14 11 7 5 5 6 5 2 2 5 6 6 4 2 0 0 0 0 0 0 0 0 0 0 0 0 0 0 0 0 0 0 0 0 0 0

GEFSSE_con_probscp_144.txt.gz
Probability
0 0 0 0 0 1 3 4 4 3 3 2 1 0 0 0 0 0 0 0 0 0 0 0 0 0 0 0 0 0 0 0 0 0 0 0 0 0 0 0 0 0 0
0 0 0 0 0 1 2 3 3 3 3 2 1 0 0 0 0 0 0 0 0 0 0 0 0 0 0 0 0 0 0 0 0 0 0 0 0 0 0 0 0 0 0
0 0 0 0 0 0 1 2 2 3 3 2 1 0 0 0 0 0 0 0 0 0 0 0 0 0 0 0 0 0 0 0 0 0 0 0 0 0 0 0 0 0 0
0 0 0 0 0 0 0 0 1 2 2 1 0 0 0 0 0 0 0 0 0 0 0 0 0 0 0 0 0 0 0 0 0 0 0 0 0 0 0 0 0 0 0
0 0 0 0 0 0 0 0 0 1 1 0 0 0 0 0 0 0 0 0 0 0 0 0 0 0 0 0 0 0 0 0 0 0 0 0 0 0 0 0 0 0 0
1 0 1 2 2 0 0 0 0 0 0 0 0 0 0 0 0 0 0 0 0 0 0 0 0 0 0 0 0 0 0 0 0 0 0 0 0 0 0 0 0 0 0
2 1 2 5 4 2 0 0 0 0 1 1 1 1 0 0 0 0 0 0 0 0 0 0 0 0 0 0 0 0 0 0 0 0 0 0 0 0 0 0 0 0 0
5 4 4 6 6 3 1 1 0 1 2 2 2 2 1 0 0 0 0 0 0 0 0 0 0 0 0 0 0 0 0 0 0 0 0 0 0 0 0 0 0 0 0
6 5 6 7 6 3 3 2 2 2 3 3 3 2 1 0 0 0 0 0 0 0 0 0 0 0 0 0 0 0 0 0 0 0 0 0 0 0 0 0 0 0 0
6 5 6 7 5 3 3 4 4 4 3 3 3 1 0 0 0 0 0 0 0 0 0 0 0 0 0 0 1 0 0 0 0 0 0 0 0 0 0 0 0 0 0
4 4 4 4 4 4 3 4 4 4 3 3 3 1 0 0 0 0 0 0 0 0 0 0 0 0 0 0 0 0 0 1 0 0 0 0 0 0 0 0 0 0 0
5 3 2 2 3 3 3 3 3 3 3 3 2 1 0 0 0 0 0 0 0 0 0 0 0 0 0 0 0 0 0 0 0 0 0 0 0 0 0 0 0 0 0
7 5 3 2 1 2 3 3 2 2 2 1 1 1 0 0 0 0 0 0 0 0 0 0 0 0 0 0 0 0 0 0 0 0 0 0 0 0 0 0 0 0 0
10 7 5 4 2 1 3 4 4 3 1 0 0 0 0 0 0 0 0 0 0 0 0 0 0 0 0 0 0 0 0 0 0 0 0 0 0 0 0 0 0 0 0
13 10 8 7 5 4 5 7 7 4 1 0 0 0 0 0 0 0 0 0 0 0 0 0 0 0 0 0 0 0 0 0 0 0 0 0 0 0 0 0 0 0 0
15 13 11 11 9 9 9 10 9 5 2 1 0 0 0 0 0 0 0 0 0 0 0 0 0 0 0 0 0 0 0 0 0 0 0 0 0 0 0 0 0 0 0
13 12 12 12 12 12 11 11 9 6 3 1 1 0 0 0 0 0 0 0 0 0 0 0 0 0 0 0 0 0 0 0 0 0 0 0 0 0 0 0 0 0 0
10 11 13 13 14 13 12 11 9 6 5 4 3 1 0 0 0 0 0 0 0 0 0 0 0 0 0 0 0 0 0 0 0 0 0 0 0 0 0 0 0 0 0
12 14 16 17 16 13 10 9 8 7 6 6 5 2 0 0 0 0 0 1 0 0 0 0 0 0 0 0 0 0 0 0 0 0 0 0 0 0 0 0 0 0 0
18 18 18 18 16 13 12 10 8 7 7 6 5 3 1 0 0 0 0 0 0 0 0 0 0 0 0 0 0 0 0 0 0 0 0 0 0 0 0 0 0 0 0
24 22 19 15 14 16 16 12 8 7 7 6 5 4 2 0 0 0 0 0 0 0 0 0 0 0 0 0 0 0 0 0 0 0 0 0 0 0 0 0 0 0 0
31 27 21 17 17 17 16 12 8 6 6 6 5 3 1 0 0 0 0 0 0 0 1 1 0 0 0 0 0 0 0 0 0 0 0 0 0 0 0 0 0 0 0
33 29 24 21 19 17 14 10 8 6 6 5 4 3 1 0 0 0 0 0 0 0 1 2 1 0 0 0 0 0 0 0 0 0 0 0 0 0 0 0 0 0 0
29 27 23 21 18 14 11 9 7 6 5 5 4 3 1 0 0 0 1 1 0 0 1 1 1 0 0 0 0 0 0 0 0 0 0 0 0 0 0 0 0 0 0
23 21 18 17 15 10 7 6 6 5 5 4 3 2 1 0 0 0 1 1 0 0 0 0 0 0 0 0 0 0 0 0 0 0 0 0 0 0 0 0 0 0 0
19 17 14 14 12 9 5 3 4 5 4 3 3 2 1 0 0 0 1 1 0 0 0 0 0 0 0 0 0 0 0 0 0 0 0 0 0 0 0 0 0 0 0

GEFSSE_con_probscp_150.txt.gz
Probability
0 0 0 0 0 0 0 1 2 4 3 1 0 0 0 0 0 0 0 0 0 0 0 0 0 0 0 0 0 0 0 0 0 0 0 0 0 0 0 0 0 0 0
0 0 0 1 1 0 0 1 2 3 3 1 0 0 0 0 0 0 0 0 0 0 0 0 0 0 0 0 0 0 0 0 0 0 0 0 0 0 0 0 0 0 0
0 0 0 1 2 1 0 0 1 2 1 0 0 0 0 0 0 0 0 0 0 0 0 0 0 0 0 0 0 0 0 0 0 0 0 0 0 0 0 0 0 0 0
0 0 0 1 1 1 1 2 3 3 1 0 0 0 0 0 0 0 0 0 0 0 0 0 0 0 0 0 0 0 0 0 0 0 0 0 0 0 0 0 0 0 0
0 0 0 0 0 1 2 4 5 5 2 1 0 0 0 0 0 0 0 0 0 0 0 0 0 0 0 0 0 0 0 0 0 0 0 0 0 0 0 0 0 0 0
0 0 0 0 0 0 1 2 3 3 2 1 0 0 0 0 0 0 0 0 0 0 0 0 0 0 0 0 0 0 0 0 0 0 0 0 0 0 0 0 0 0 0
0 0 0 0 0 0 0 0 1 1 1 0 0 0 0 0 0 0 0 0 0 0 0 0 0 0 0 0 0 0 0 0 0 0 0 0 0 0 0 0 0 0 0
0 1 1 1 0 0 0 0 0 0 0 0 0 0 0 0 0 0 0 0 0 0 0 0 0 0 0 0 0 0 0 0 0 0 0 0 0 0 0 0 0 0 0
1 2 2 1 0 0 0 0 0 0 0 0 0 0 0 0 0 0 0 0 0 0 0 0 0 0 0 0 0 0 0 0 0 0 0 0 0 0 0 0 0 0 0
2 3 3 1 1 1 0 0 0 0 0 0 0 0 0 0 0 0 0 0 0 0 0 0 0 0 0 0 0 0 0 0 0 0 0 0 0 0 0 0 0 0 0
4 5 4 3 2 1 1 1 1 0 0 0 0 0 0 0 0 0 0 0 0 0 0 0 0 0 0 0 0 0 0 0 0 0 0 0 0 0 0 0 0 0 0
6 6 5 4 2 1 1 2 1 1 1 1 0 0 0 0 0 0 0 0 0 0 0 0 0 0 0 0 0 0 0 0 0 0 0 0 0 0 0 0 0 0 0
7 7 6 5 3 1 2 3 3 2 2 2 1 0 0 0 0 0 0 0 0 0 0 0 0 0 0 0 0 0 0 0 0 0 0 0 0 0 0 0 0 0 0
11 9 8 9 7 4 4 4 3 3 3 4 3 1 0 0 0 0 0 0 0 0 0 0 0 0 0 0 0 0 0 0 0 0 0 0 0 0 0 0 0 0 0
17 14 12 13 13 10 9 7 5 5 6 6 4 2 0 0 0 0 1 1 1 0 0 0 0 0 0 0 0 0 0 0 0 0 0 0 0 0 0 0 0 0 0
21 17 14 16 17 15 13 11 10 9 9 7 5 3 1 0 0 0 1 2 2 1 0 0 0 0 0 0 0 0 0 0 0 0 0 0 0 0 0 0 0 0 0
22 19 16 15 15 14 13 13 14 13 11 8 7 5 3 0 0 0 1 2 2 1 0 0 0 0 0 0 0 0 0 0 0 0 0 0 0 0 0 0 0 0 0
24 24 20 16 14 14 13 14 17 18 16 13 10 8 5 2 1 1 1 1 1 0 0 0 0 0 0 0 0 0 0 0 0 0 0 0 0 0 0 0 0 0 0
28 28 25 22 21 21 19 19 22 24 23 21 18 14 9 4 3 3 2 1 0 0 1 2 2 1 0 0 0 0 0 0 0 0 0 0 0 0 0 0 0 0 0
32 32 30 30 31 31 28 27 27 26 25 24 23 18 12 8 6 5 3 2 1 1 3 4 3 1 0 0 0 0 0 0 0 0 0 0 0 0 0 0 0 0 0
39 37 35 35 36 37 36 35 34 29 24 22 21 18 14 11 9 6 5 4 5 4 5 5 4 3 2 0 0 0 0 0 0 0 0 0 0 0 0 0 0 0 0
43 40 36 34 35 38 39 38 37 34 26 20 18 17 15 14 10 7 7 6 7 7 5 5 6 5 4 1 0 0 0 0 0 0 0 0 0 0 0 0 0 0 0
42 40 36 33 35 39 40 37 35 34 28 20 18 20 18 16 12 9 7 6 6 5 4 5 6 6 5 3 1 0 0 0 0 0 0 0 0 0 0 0 0 0 0
38 37 36 36 36 38 38 35 33 29 23 18 19 22 22 18 14 10 8 7 5 4 3 4 5 6 7 6 4 2 0 0 0 0 0 0 0 0 0 0 0 0 0
34 33 35 37 36 35 35 34 30 24 18 15 16 19 20 17 13 9 9 10 9 5 3 3 4 6 9 8 6 4 2 0 0 0 0 0 0 0 0 0 0 0 0
31 32 34 35 33 30 31 30 27 21 16 14 14 15 15 14 11 8 8 12 12 6 2 3 4 6 9 9 7 6 4 1 0 0 0 0 0 0 0 0 0 0 0

GEFSSE_con_probscp_156.txt.gz
Probability
2 1 1 2 1 0 0 0 0 0 0 0 0 0 0 0 0 0 0 0 0 0 0 0 0 0 0 0 0 0 0 0 0 0 0 0 0 0 0 0 0 0 0
2 1 1 1 1 0 0 0 0 0 0 0 0 0 0 0 0 0 0 0 0 0 0 0 0 0 0 0 0 0 0 0 0 0 0 0 0 0 0 0 0 0 0
2 1 0 0 0 0 0 0 0 0 0 0 0 0 0 0 0 0 0 0 0 0 0 0 0 0 0 0 0 0 0 0 0 0 0 0 0 0 0 0 0 0 0
1 1 0 0 0 0 0 0 0 0 0 0 0 0 0 0 0 0 0 0 0 0 0 0 0 0 0 0 0 0 0 0 0 0 0 0 0 0 0 0 0 0 0
2 1 1 1 1 0 0 0 0 0 0 0 0 0 0 0 0 0 0 0 0 0 0 0 0 0 0 0 0 0 0 0 0 0 0 0 0 0 0 0 0 0 0
3 2 1 2 2 1 0 0 0 0 0 0 0 0 0 0 0 0 0 0 0 0 0 0 0 0 0 0 0 0 0 0 0 0 0 0 0 0 0 0 0 0 0
5 3 2 3 2 1 0 0 0 0 0 0 0 0 0 0 0 0 0 0 0 0 0 0 0 0 0 0 0 0 0 0 0 0 0 0 0 0 0 0 0 0 0
7 6 4 2 1 0 0 0 0 0 0 0 0 0 0 0 0 0 0 0 0 0 0 0 0 0 0 0 0 0 0 0 0 0 0 0 0 0 0 0 0 0 0
8 6 4 2 1 0 0 0 0 0 0 0 0 0 0 0 0 0 0 0 0 0 0 0 0 0 0 0 0 0 0 0 0 0 0 0 0 0 0 0 0 0 0
9 7 5 3 2 1 0 0 0 0 0 0 0 0 0 0 0 0 0 0 0 0 0 0 0 0 0 0 0 0 0 0 0 0 0 0 0 0 0 0 0 0 0
10 9 8 6 4 2 1 0 0 0 0 0 0 0 0 0 0 0 0 0 0 0 0 0 1 1 0 0 0 0 0 0 0 0 0 0 0 0 0 0 0 0 0
12 12 11 10 7 4 2 1 1 0 1 1 0 0 0 0 0 0 0 0 0 0 0 0 1 1 0 0 0 0 0 0 0 0 0 0 0 0 0 0 0 0 0
13 12 13 14 13 8 4 3 1 2 3 3 1 1 1 0 0 0 0 0 0 0 0 0 1 1 0 0 0 0 0 0 0 0 0 0 0 0 0 0 0 0 0
15 14 16 20 20 15 10 6 3 3 4 5 5 5 2 1 1 1 1 1 0 0 0 0 0 0 0 0 0 0 0 0 0 0 0 0 0 0 0 0 0 0 0
19 19 23 27 27 25 21 13 8 6 5 7 11 9 4 2 1 2 4 3 1 0 0 0 0 0 0 0 0 0 0 0 0 0 0 0 0 0 0 0 0 0 0
25 28 32 33 32 32 27 20 14 8 6 11 17 14 8 5 5 6 7 5 1 0 1 0 0 0 0 0 0 0 0 0 0 0 0 0 0 0 0 0 0 0 0
35 39 40 36 34 34 28 22 17 12 10 16 23 21 14 12 12 12 10 6 3 3 3 1 0 0 0 0 0 0 0 0 0 0 0 0 0 0 0 0 0 0 0
49 52 49 40 36 36 31 26 23 21 20 25 31 30 24 20 20 18 13 10 9 8 6 2 0 0 0 0 0 0 0 0 0 0 0 0 0 0 0 0 0 0 0
62 64 60 51 47 43 38 36 35 34 34 36 40 40 36 31 27 23 19 17 16 14 9 5 2 1 0 0 0 0 0 0 0 0 0 0 0 0 0 0 0 0 0
73 74 72 67 61 55 48 45 44 45 47 46 47 50 48 39 32 27 24 24 23 19 13 8 7 5 2 1 0 0 0 0 0 0 0 0 0 0 0 0 0 0 0
83 82 79 74 69 63 57 51 48 49 50 47 47 52 50 42 35 30 28 30 27 23 18 13 12 10 6 4 2 0 0 0 0 0 0 0 0 0 0 0 0 1 1
87 85 81 76 71 65 61 55 50 49 44 39 41 48 48 42 38 33 32 33 29 26 23 19 15 12 9 6 5 2 0 0 0 0 0 0 0 0 0 0 1 2 1
86 83 80 77 71 64 61 57 53 49 41 35 37 44 45 42 39 36 36 35 32 28 25 22 17 13 10 9 8 5 2 1 1 1 0 0 0 0 0 0 1 2 2
77 76 76 75 71 65 59 56 53 49 42 39 40 42 42 39 35 36 39 39 34 29 26 24 21 17 14 13 11 7 4 3 2 1 0 0 1 1 1 0 1 3 4
66 67 69 71 70 65 56 51 48 45 41 40 40 41 41 36 31 34 41 42 37 32 29 27 25 22 17 15 13 11 8 6 4 3 1 0 1 2 1 0 1 3 5
61 62 64 68 69 65 56 48 45 43 40 37 37 40 40 35 30 33 41 44 40 35 32 30 29 25 19 15 13 13 11 8 6 4 1 0 1 1 0 0 1 3 6

GEFSSE_con_probscp_162.txt.gz
Probability
0 0 0 0 0 0 0 0 0 0 0 0 0 0 0 0 0 0 0 0 0 0 0 0 0 0 0 0 0 0 0 0 0 0 0 0 0 0 0 0 0 0 0
0 0 0 0 0 0 0 0 0 0 0 0 0 0 0 0 0 0 0 0 0 0 0 0 0 0 0 0 0 0 0 0 0 0 0 0 0 0 0 0 0 0 0
1 1 1 1 1 1 0 0 0 0 0 0 0 0 0 0 0 0 0 0 0 0 0 0 0 0 0 0 0 0 0 0 0 0 0 0 0 0 0 0 0 0 0
3 2 2 2 2 2 1 0 0 0 0 0 0 0 0 0 0 0 0 0 0 0 0 0 0 0 0 0 0 0 0 0 0 0 0 0 0 0 0 0 0 0 0
2 2 4 4 4 3 1 0 0 0 0 0 0 0 0 0 0 0 0 0 0 0 0 0 0 0 0 0 0 0 0 0 0 0 0 0 0 0 0 0 0 0 0
2 4 6 6 5 3 2 0 0 0 0 0 0 0 0 0 0 0 0 0 0 0 0 0 0 0 0 0 0 0 0 0 0 0 0 0 0 0 0 0 0 0 0
6 7 8 8 7 4 1 0 0 0 0 0 0 0 0 0 0 0 0 0 0 0 0 0 0 0 0 0 0 0 0 0 0 0 0 0 0 0 0 0 0 0 0
9 9 9 9 8 5 2 0 0 0 0 0 0 0 0 0 0 0 0 0 0 0 0 0 0 0 0 0 0 0 0 0 0 0 0 0 0 0 0 0 0 0 0
8 9 9 9 7 5 2 1 0 0 0 0 0 0 0 0 0 0 0 0 0 0 0 0 0 0 0 0 0 0 0 0 0 0 0 0 0 0 0 0 0 0 0
8 9 8 7 6 3 2 1 0 0 0 0 0 0 0 0 0 0 0 0 0 0 0 0 0 0 0 0 0 1 0 0 0 0 0 0 0 0 0 0 0 0 0
10 8 7 6 5 2 1 0 0 0 0 0 0 0 0 0 0 0 0 0 0 0 0 1 1 0 0 0 0 0 0 0 0 0 0 0 0 0 0 0 0 0 0
11 8 6 5 4 2 0 0 0 0 0 0 0 0 0 0 0 0 0 0 0 0 0 1 1 0 0 0 0 0 0 0 0 0 0 0 0 0 0 0 0 0 0
9 7 5 4 3 1 0 0 0 0 0 0 0 0 0 0 0 0 0 0 0 0 0 0 0 0 0 0 0 0 0 0 0 0 0 0 0 0 0 0 0 0 0
7 5 3 2 1 0 0 0 0 0 0 0 0 0 0 0 0 0 0 0 0 0 0 0 0 0 0 0 0 0 0 0 0 0 0 0 0 0 0 0 0 0 0
10 6 2 1 1 1 0 0 0 0 0 0 0 0 0 0 0 0 0 0 0 0 0 0 0 0 0 0 0 0 0 0 0 0 0 0 0 0 0 0 0 0 0
18 13 7 3 2 3 3 2 1 0 0 0 0 0 0 0 0 0 0 0 0 0 0 0 0 0 0 0 0 0 0 0 0 0 0 0 0 0 0 0 0 0 0
27 23 16 8 6 7 8 6 3 2 1 1 0 0 0 0 1 1 0 0 0 0 0 0 0 0 0 0 0 0 0 0 0 0 0 0 0 0 0 1 1 0 0
35 33 26 17 12 11 11 9 6 5 4 3 2 2 2 2 2 2 1 0 0 0 0 0 0 0 0 0 0 0 0 0 0 0 0 0 0 0 0 1 2 1 0
40 38 34 28 22 17 15 11 8 6 6 6 6 6 6 6 5 3 1 1 1 1 0 0 0 0 0 0 0 0 0 0 0 0 0 0 0 0 0 1 2 1 1
42 41 41 40 34 28 23 17 13 11 9 10 10 10 11 10 8 5 3 3 3 3 1 1 1 0 0 0 0 0 0 0 0 0 0 0 0 0 0 0 1 1 0
48 48 48 47 43 37 31 25 22 18 13 11 10 10 12 13 12 9 6 5 4 4 3 2 2 1 0 0 0 0 0 0 0 0 0 0 0 0 0 0 0 0 0
54 54 53 50 47 41 35 31 28 23 15 10 9 8 9 12 14 13 10 6 4 3 2 2 3 2 1 0 0 0 0 0 0 0 0 0 0 0 0 0 0 0 0
55 55 54 53 50 44 39 36 33 26 16 11 8 7 8 12 16 17 13 8 5 3 1 1 2 3 2 1 1 1 0 0 0 0 0 0 0 0 0 0 0 0 0
53 53 52 52 51 47 41 38 35 27 17 10 8 7 8 11 15 17 14 10 6 2 0 0 1 2 2 1 1 1 0 0 0 0 0 0 0 0 0 0 0 0 0
48 49 49 49 50 46 41 37 30 21 13 8 6 7 7 7 8 11 11 9 6 4 2 1 0 1 1 0 0 0 0 0 0 0 0 0 0 0 0 0 0 0 0
43 44 46 47 47 44 39 34 26 16 9 6 6 7 6 5 4 6 7 6 5 5 4 2 1 0 0 0 0 0 0 0 0 0 0 0 0 0 0 0 0 0 0

GEFSSE_con_probscp_168.txt.gz
Probability
0 0 0 0 0 0 1 2 2 1 0 0 0 0 0 0 0 0 0 0 0 0 0 0 0 0 0 0 0 0 0 0 0 0 0 0 0 0 0 0 0 0 0
0 0 0 0 0 0 0 1 1 0 0 0 0 0 0 0 0 0 0 0 0 0 0 0 0 0 0 0 0 0 0 0 0 0 0 0 0 0 0 0 0 0 0
0 0 0 0 0 0 0 0 0 0 0 0 0 0 0 0 0 0 0 0 0 0 0 0 0 0 0 0 0 0 0 0 0 0 0 0 0 0 0 0 0 0 0
0 0 0 0 0 0 0 0 0 0 0 0 0 0 0 0 0 0 0 0 0 0 0 0 0 0 0 0 0 0 0 0 0 0 0 0 0 0 0 0 0 0 0
0 0 0 1 1 0 0 0 0 0 0 0 0 0 0 0 0 0 0 0 0 0 0 0 0 0 0 0 0 0 0 0 0 0 0 0 0 0 0 0 0 0 0
1 0 1 2 1 0 0 0 0 0 0 0 0 0 0 0 0 0 0 0 0 0 0 0 0 0 0 0 0 0 0 0 0 0 0 0 0 0 0 0 0 0 0
2 2 2 3 2 0 0 0 0 0 0 0 0 0 0 0 0 0 0 0 0 0 0 0 0 0 0 0 0 0 0 0 0 0 0 0 0 0 0 0 0 0 0
3 3 3 3 2 1 0 0 0 0 0 0 0 0 0 0 0 0 0 0 0 0 0 0 0 0 0 0 0 0 0 0 0 0 0 0 0 0 0 0 0 0 0
3 3 3 3 3 2 1 0 0 0 0 0 0 0 0 0 0 0 0 0 0 0 0 0 0 0 0 0 0 0 0 0 0 0 0 0 0 0 0 0 0 0 0
3 3 3 4 5 3 1 0 0 0 0 0 0 0 0 0 0 0 0 0 0 0 0 0 0 0 0 0 0 0 0 0 0 0 0 0 0 0 0 0 0 0 0
4 4 4 5 5 3 1 0 0 0 0 0 0 0 0 0 0 0 0 0 0 0 0 0 0 0 0 0 0 0 0 0 0 0 0 0 0 0 0 0 0 0 0
4 3 4 5 4 2 1 0 0 0 0 0 0 0 0 0 0 0 0 0 0 0 0 0 0 0 0 0 0 0 0 0 0 0 0 0 0 0 0 0 0 0 0
2 2 2 2 1 1 0 0 0 0 0 0 0 0 0 0 0 0 0 0 0 0 0 0 0 0 0 0 0 0 0 0 0 0 0 0 0 0 0 0 0 0 0
2 1 2 1 0 0 0 0 0 0 0 0 0 0 0 0 0 0 0 0 0 0 0 0 0 0 0 0 0 0 0 0 0 0 0 0 0 0 0 0 0 0 0
3 3 3 2 1 0 0 0 0 0 0 0 0 0 0 0 0 0 0 0 0 0 0 0 0 0 0 0 0 0 0 0 0 0 0 0 0 0 0 0 0 0 0
4 5 5 4 2 1 0 0 0 0 1 0 0 0 0 0 0 0 0 0 0 0 0 0 0 0 0 0 0 0 0 0 0 0 0 0 0 0 0 0 0 0 0
5 5 5 4 3 1 1 0 0 0 0 0 0 0 0 0 0 0 0 0 0 0 0 0 0 0 0 0 0 0 0 0 0 0 0 0 0 0 0 0 0 0 0
5 5 3 3 3 3 2 1 0 0 0 0 0 0 0 0 0 0 0 0 0 0 0 0 0 0 0 0 0 0 0 0 0 0 0 0 0 0 0 0 0 0 0
6 4 2 1 2 3 3 1 0 0 0 0 0 0 0 0 0 0 0 0 0 0 0 0 0 0 0 0 0 0 0 0 0 0 0 0 0 0 0 0 0 0 0
7 5 3 1 1 1 1 1 1 1 1 1 0 0 0 0 0 0 0 0 0 0 0 0 0 0 0 0 0 0 0 0 0 0 0 0 0 0 0 0 0 0 0
12 10 6 4 2 2 2 3 3 3 4 3 1 1 1 1 1 1 2 1 1 0 0 0 0 0 0 0 0 0 0 0 0 0 0 0 0 0 0 0 0 0 0
17 15 13 10 8 7 8 8 7 7 6 6 4 3 3 3 3 3 3 3 2 1 1 1 0 0 0 0 0 0 0 0 0 0 0 0 0 0 0 0 0 0 0
18 19 19 18 16 15 16 15 13 11 10 8 8 6 5 5 4 3 3 3 3 3 2 2 1 1 1 1 1 1 0 0 0 0 0 0 0 0 0 0 0 0 0
19 19 19 21 23 23 23 22 21 17 13 11 9 7 5 4 4 3 3 3 3 3 3 3 3 2 2 2 1 1 0 0 0 0 0 0 0 0 0 0 0 0 0
19 17 17 22 27 28 26 27 26 21 16 11 8 6 4 3 2 2 2 2 3 3 3 3 3 3 3 2 2 2 1 0 0 0 0 0 0 0 0 0 0 0 1
17 16 17 23 28 29 28 29 27 22 17 11 7 5 3 2 2 1 1 1 2 3 3 3 3 3 3 2 2 2 1 0 0 0 0 0 0 0 0 0 0 1 1

GEFSSE_con_probscp_174.txt.gz
Probability
0 0 0 0 0 0 0 1 2 1 0 0 0 0 0 0 0 0 0 0 0 0 0 0 0 0 0 0 0 0 0 0 0 0 0 0 0 0 0 0 0 0 0
0 0 0 0 0 0 0 1 2 1 0 0 0 0 0 0 0 0 0 0 0 0 0 0 0 0 0 0 0 0 0 0 0 0 0 0 0 0 0 0 0 0 0
0 0 0 0 0 0 0 1 2 1 0 0 0 0 0 0 0 0 0 0 0 0 0 0 0 0 0 0 0 0 0 0 0 0 0 0 0 0 0 0 0 0 0
0 0 0 0 0 0 0 0 1 1 0 0 0 0 0 0 0 0 0 0 0 0 0 0 0 0 0 0 0 0 0 0 0 0 0 0 0 0 0 0 0 0 0
0 0 0 0 0 0 0 0 0 0 0 0 0 0 0 0 0 0 0 0 0 0 0 0 0 0 0 0 0 0 0 0 0 0 0 0 0 0 0 0 0 0 0
0 0 0 0 0 0 0 0 0 0 0 0 0 0 0 0 0 0 0 0 0 0 0 0 0 0 0 0 0 0 0 0 0 0 0 0 0 0 0 0 0 0 0
0 0 0 0 0 0 0 0 0 0 0 0 0 0 0 0 0 0 0 0 0 0 0 0 0 0 0 0 0 0 0 0 0 0 0 0 0 0 0 0 0 0 0
0 1 1 1 0 0 0 0 0 0 0 0 0 0 0 0 0 0 0 0 0 0 0 0 0 0 0 0 0 0 0 0 0 0 0 0 0 0 0 0 0 0 0
0 1 1 1 0 0 0 0 0 0 0 0 0 0 0 0 0 0 0 0 0 0 0 0 0 0 0 0 0 0 0 0 0 0 0 0 0 0 0 0 0 0 0
0 0 0 0 0 0 0 0 0 0 0 0 0 0 0 0 0 0 0 0 0 0 0 0 0 0 0 0 0 0 0 0 0 0 0 0 0 0 0 0 0 0 0
0 0 0 0 0 0 0 0 0 0 0 0 0 0 0 0 0 0 0 0 0 0 0 0 0 0 0 0 0 0 0 0 0 0 0 0 0 0 0 0 0 0 0
0 0 0 1 1 1 0 0 0 0 0 0 0 0 0 0 0 0 0 0 0 0 0 0 0 0 0 0 0 0 0 0 0 0 0 0 0 0 0 0 0 0 0
0 0 0 1 2 1 1 1 1 1 0 0 0 0 0 0 0 0 0 0 0 0 0 0 0 0 0 0 0 0 0 0 0 0 0 0 0 0 0 0 0 0 0
1 0 1 2 2 1 1 2 2 1 0 0 0 0 0 0 0 0 0 0 0 0 0 0 0 0 0 0 0 0 0 0 0 0 0 0 0 0 0 0 0 0 0
2 2 2 3 3 1 1 1 1 0 0 1 0 0 0 0 0 0 0 0 0 0 0 0 0 0 0 0 0 0 0 0 0 0 0 0 0 0 0 0 0 0 0
4 3 4 5 5 3 2 1 1 1 0 1 1 0 0 0 0 0 0 0 0 0 0 0 0 0 0 0 0 0 0 0 0 0 0 0 0 0 0 0 0 0 0
6 5 4 5 5 5 4 2 2 2 1 1 1 1 0 0 0 0 0 0 0 0 0 0 0 0 0 0 0 0 0 0 0 0 0 0 0 0 0 0 0 0 0
9 8 5 4 4 4 4 4 3 2 1 2 2 1 1 1 0 0 0 0 0 1 1 0 0 0 0 0 0 0 0 0 0 0 0 0 0 0 0 0 0 0 0
11 10 7 5 4 4 4 4 4 2 2 2 2 2 2 2 2 1 1 1 1 3 3 1 0 0 0 0 0 0 0 0 0 0 0 0 0 0 0 0 0 0 0
15 13 9 7 7 6 5 5 5 5 5 4 3 4 4 4 4 4 3 3 4 5 4 2 1 0 0 0 0 0 0 0 0 0 0 0 0 0 0 0 0 0 0
22 21 17 13 13 12 10 10 10 9 10 10 9 7 7 6 5 5 5 5 5 5 4 3 2 1 1 0 0 0 0 0 0 0 0 0 0 0 0 0 0 0 0
27 27 25 23 22 19 17 17 17 17 17 18 17 14 11 9 7 6 6 6 5 5 4 3 3 3 1 1 2 1 0 0 0 0 0 0 0 0 0 0 0 0 0
29 29 29 29 28 25 22 23 25 26 26 25 23 19 15 13 10 8 7 7 6 6 5 5 4 4 3 4 7 6 3 1 1 1 0 0 1 2 1 0 0 1 1
27 28 28 29 29 27 27 29 31 30 28 28 26 21 17 14 11 10 10 11 11 8 8 7 6 7 8 9 11 11 8 5 3 2 1 1 1 3 3 2 2 3 3
23 25 27 30 31 31 32 35 34 29 27 27 27 23 18 14 12 12 13 15 15 14 13 12 12 13 14 14 15 15 13 10 8 6 4 3 2 3 3 4 5 5 5
19 21 27 33 36 35 35 36 33 29 26 27 28 25 19 14 12 13 14 15 16 18 19 17 17 17 16 16 17 16 15 14 11 9 7 6 4 2 3 5 6 7 6

GEFSSE_con_probscp_180.txt.gz
Probability
0 0 0 0 0 0 0 0 0 0 0 0 0 0 0 0 0 0 0 0 0 0 0 0 0 0 0 0 0 0 0 0 0 0 0 0 0 1 1 1 0 0 0
0 0 0 0 0 0 0 0 0 0 0 0 0 0 0 0 0 0 0 0 0 0 0 0 0 0 0 0 0 0 0 0 0 0 0 0 0 0 0 0 0 0 0
0 0 0 0 0 0 0 0 0 0 0 0 0 0 0 0 0 0 0 0 0 0 0 0 0 0 0 0 0 0 0 0 0 0 0 0 0 0 0 0 0 0 0
0 0 0 0 0 0 0 0 0 0 0 0 0 0 0 0 0 0 0 0 0 0 0 0 0 0 0 0 0 0 0 0 0 0 0 0 0 0 0 0 0 0 0
1 0 1 1 0 0 0 0 0 0 0 0 0 0 0 0 0 0 0 0 0 0 0 0 0 0 0 0 0 0 0 0 0 0 0 0 0 0 0 0 0 0 0
2 1 1 2 1 0 0 0 0 0 0 0 0 0 0 0 0 0 0 0 0 0 0 0 0 0 0 0 0 0 0 0 0 0 0 0 0 0 0 0 0 0 0
2 1 1 2 1 0 0 0 0 0 0 0 0 0 0 0 0 0 0 0 0 0 0 0 0 0 0 0 0 0 0 0 0 0 0 0 0 0 0 0 0 0 0
3 2 1 1 1 0 0 0 0 0 0 0 0 0 0 0 0 0 0 0 0 0 0 0 0 0 0 0 0 0 0 0 0 0 0 0 0 0 0 0 0 0 0
3 3 1 1 0 0 0 0 0 0 0 0 0 0 0 0 0 0 0 0 0 0 0 0 0 0 0 0 0 0 0 0 0 0 0 0 0 0 0 0 0 0 0
3 3 2 1 1 0 0 0 0 0 0 0 0 0 0 0 0 0 0 0 0 0 0 0 0 0 0 0 0 0 0 1 0 0 0 0 0 0 0 0 0 0 0
4 3 3 3 2 1 1 1 1 0 0 0 0 0 0 0 0 0 0 0 0 0 0 0 0 0 0 0 0 0 0 0 0 0 0 0 0 0 0 0 0 0 0
5 4 3 3 2 1 1 1 1 0 0 0 0 0 0 0 0 0 0 0 0 0 0 0 0 0 0 0 0 0 0 0 0 0 0 0 0 0 0 0 0 0 0
6 5 4 3 3 1 1 1 1 1 1 1 1 1 0 0 0 0 0 0 0 0 0 0 0 0 0 0 0 0 1 0 0 0 0 0 0 0 0 0 0 0 0
8 7 6 5 4 3 2 1 1 1 0 1 2 3 1 0 0 0 0 0 0 0 0 0 0 0 0 0 0 0 0 0 0 0 0 0 0 0 0 0 0 0 0
11 10 9 9 7 5 4 3 3 2 1 2 4 5 3 1 1 2 2 1 1 0 0 0 0 0 0 0 0 0 0 0 0 0 0 0 0 0 0 0 0 0 0
14 13 12 12 10 8 7 6 5 3 3 4 7 9 8 5 5 6 5 3 1 1 2 2 0 0 0 0 0 0 0 0 0 0 0 0 0 0 0 0 0 1 1
19 17 15 14 14 13 12 9 6 5 7 10 13 15 14 10 9 10 8 6 3 2 4 4 1 0 0 0 0 0 1 1 0 0 0 1 1 0 0 1 2 2 2
28 27 22 19 19 19 17 13 9 9 13 16 16 18 19 16 12 11 10 8 7 6 7 6 3 1 0 0 0 1 2 2 1 1 1 1 3 3 3 4 4 3 3
40 37 31 26 25 25 23 20 17 17 20 20 18 18 20 18 15 12 10 10 11 11 10 7 5 3 1 0 0 2 3 3 3 3 3 3 6 8 7 7 6 4 3
50 48 41 34 33 33 32 30 26 25 26 26 22 23 23 21 18 14 11 11 12 14 13 10 8 7 4 2 1 1 2 2 3 6 6 5 8 10 12 13 11 6 4
59 58 52 45 44 45 44 39 34 32 33 31 30 32 31 27 22 16 12 12 14 15 15 14 12 11 8 5 3 1 1 1 3 6 8 8 7 9 14 19 17 12 9
65 63 59 56 57 57 53 45 39 37 37 37 40 41 37 31 24 17 13 14 15 16 19 20 18 14 11 10 9 5 2 1 2 5 9 11 10 10 14 19 20 18 17
68 67 66 67 67 63 58 50 45 44 43 44 47 46 38 30 24 19 15 15 15 18 22 23 21 17 13 13 16 13 6 4 3 4 8 12 15 15 14 16 20 22 24
68 71 74 75 73 68 61 56 53 52 51 49 49 46 38 29 23 20 18 17 17 19 20 21 20 20 16 16 18 16 10 8 5 3 5 10 16 17 16 15 18 23 25
66 70 76 78 76 71 65 62 59 56 53 51 48 44 37 30 25 22 20 19 19 17 16 18 21 22 18 16 16 15 13 12 9 5 4 7 11 14 15 15 16 19 22
63 67 73 77 76 73 68 65 62 56 53 52 48 42 36 31 26 23 20 20 19 15 14 17 22 23 19 16 15 15 15 16 14 9 6 6 7 9 12 15 16 16 18

GEFSSE_con_probscp_186.txt.gz
Probability
0 1 2 2 1 1 1 0 0 0 0 0 0 0 0 0 0 0 0 0 0 0 0 0 0 0 0 0 0 0 1 2 1 0 0 0 0 0 0 0 0 0 0
0 1 2 2 1 0 0 0 0 0 0 0 0 0 0 0 0 0 0 0 0 0 0 0 0 0 0 0 0 0 1 1 1 0 0 0 0 0 0 0 0 0 0
0 0 1 2 1 0 0 0 0 0 0 0 0 0 0 0 0 0 0 0 0 0 0 0 0 0 0 0 0 0 0 0 0 0 0 0 0 0 0 0 0 0 0
0 0 1 2 1 0 0 0 0 0 0 0 0 0 0 0 0 0 0 0 0 0 0 0 0 0 0 0 0 0 0 0 0 0 0 0 0 0 0 0 0 0 0
0 0 1 2 1 0 0 0 0 0 0 0 0 0 0 0 0 0 0 0 0 0 0 0 0 0 0 0 0 0 0 0 0 0 0 0 0 0 0 0 0 0 0
0 0 2 2 1 0 0 0 0 0 0 0 0 0 0 0 0 0 0 0 0 0 0 0 0 0 0 0 0 0 0 0 0 0 0 0 0 0 0 0 0 0 0
0 0 1 3 3 1 1 1 0 0 0 0 0 0 0 0 0 0 0 0 0 0 0 0 0 0 0 0 0 0 0 0 0 0 0 0 0 0 0 0 0 0 0
0 1 1 2 3 2 2 1 0 0 0 0 0 0 0 0 0 0 0 0 0 0 0 0 0 0 0 0 0 0 0 0 0 0 0 0 0 0 0 0 0 0 0
1 2 2 2 1 1 1 1 0 0 0 0 0 0 0 0 0 0 0 0 0 0 0 0 0 0 0 0 0 0 0 0 0 0 0 0 0 0 0 0 0 0 0
1 2 3 1 0 0 0 0 0 0 0 0 0 0 0 0 0 0 0 0 0 0 0 0 0 0 0 0 0 0 0 0 0 0 0 0 0 0 0 0 0 0 0
0 1 1 0 0 0 0 0 0 0 0 0 0 0 0 0 0 0 0 0 0 0 0 0 0 0 0 0 0 0 0 0 0 0 0 0 0 0 0 0 0 0 0
0 0 0 0 0 0 0 0 0 0 0 0 0 0 0 0 0 0 0 0 0 0 0 0 0 0 0 0 0 0 0 0 0 0 0 0 0 0 0 0 0 0 0
1 0 0 0 0 0 0 0 0 0 0 0 0 0 0 0 0 0 0 0 0 0 0 0 0 0 0 0 0 0 0 0 0 0 0 0 0 0 0 0 0 0 0
4 3 1 1 1 0 0 1 1 1 0 0 0 0 1 1 1 0 0 0 0 0 0 0 0 0 0 0 0 0 0 0 0 0 0 0 0 0 0 0 0 0 0
10 8 5 3 1 0 0 1 2 1 0 0 0 1 2 2 2 1 0 0 0 0 0 0 0 0 0 0 0 0 0 0 0 0 0 0 0 0 0 0 0 0 0
17 16 12 6 3 0 0 1 1 1 0 0 1 1 3 3 2 1 0 0 1 1 0 0 0 0 0 0 0 0 0 0 0 0 0 0 0 0 0 0 0 0 0
24 22 17 12 7 3 2 1 1 0 0 0 1 2 3 4 3 2 2 1 2 2 1 1 0 0 0 0 0 0 0 0 0 0 0 0 0 0 0 0 0 0 0
27 24 20 15 11 8 6 4 3 1 0 1 2 3 4 6 6 5 4 3 3 3 2 1 0 0 0 0 0 0 0 0 0 0 0 0 0 0 0 0 1 2 2
26 24 20 17 15 12 9 6 4 3 2 2 3 5 6 7 8 7 5 4 3 3 1 1 1 0 0 0 0 0 0 0 0 0 0 0 0 0 0 1 3 4 6
25 24 22 20 17 14 11 7 5 4 4 4 5 7 8 8 8 6 4 3 3 2 1 0 1 0 0 0 0 0 0 0 0 0 0 0 0 0 1 2 3 5 7
25 27 27 25 21 19 16 12 9 6 5 5 6 7 8 9 8 6 4 3 3 1 0 0 0 0 0 0 0 0 0 0 0 0 0 0 0 1 2 4 4 4 5
29 31 31 30 28 25 23 20 16 10 6 6 6 6 7 9 10 7 4 3 2 1 1 1 1 1 1 0 0 0 0 0 0 0 0 0 0 1 2 4 4 4 3
35 35 34 33 32 30 27 26 23 16 10 8 7 8 9 11 11 9 6 4 3 3 3 3 2 2 2 1 0 0 0 0 0 0 0 0 0 0 1 1 3 3 3
41 40 39 37 35 33 30 29 27 21 14 10 9 9 10 11 11 10 7 6 5 5 5 4 3 3 3 1 0 0 0 0 0 0 0 0 0 0 0 0 1 2 3
44 43 41 39 36 34 32 29 25 21 15 11 9 10 10 10 10 10 8 7 6 5 4 3 2 2 2 1 0 0 0 0 0 0 0 0 0 0 0 0 1 1 1
44 43 40 37 35 34 31 26 22 19 14 10 9 9 8 8 9 10 9 7 5 4 3 2 1 1 1 1 0 0 0 0 0 0 0 0 0 0 0 0 0 1 0

GEFSSE_con_probscp_192.txt.gz
Probability
0 0 0 0 0 0 0 0 0 0 0 0 0 0 0 0 0 0 0 0 0 0 0 0 0 0 0 0 0 0 0 0 0 0 0 0 0 0 0 0 0 0 0
1 0 0 0 0 0 0 0 0 0 0 0 0 0 0 0 0 0 0 0 0 0 0 0 0 0 0 0 0 0 0 0 0 0 0 0 0 0 0 0 0 0 0
2 1 0 0 0 0 0 0 0 0 0 0 0 0 0 0 0 0 0 0 0 0 0 0 0 0 0 0 0 0 0 0 0 0 0 0 0 0 0 0 0 0 0
2 1 0 1 0 0 0 0 0 0 0 0 0 0 0 0 0 0 0 0 0 0 0 0 0 0 0 0 0 0 0 0 0 0 0 0 0 0 0 0 0 0 0
2 1 0 0 0 0 0 0 0 0 0 0 0 0 0 0 0 0 0 0 0 0 0 0 0 0 0 0 0 0 0 0 0 0 0 0 0 0 0 0 0 0 0
1 0 0 0 0 0 0 0 0 0 0 0 0 0 0 0 0 0 0 0 0 0 0 0 0 0 0 0 0 0 0 0 0 0 0 0 0 0 0 0 0 0 0
0 0 1 2 1 0 0 0 0 0 0 0 0 0 0 0 0 0 0 0 0 0 0 0 0 0 0 0 0 0 0 0 0 0 0 0 0 0 0 0 0 0 0
0 0 2 3 2 1 0 0 0 0 0 0 0 0 0 0 0 0 0 0 0 0 0 0 0 0 0 0 0 0 0 0 0 0 0 0 0 0 0 0 0 0 0
0 0 1 2 3 2 0 0 0 0 0 0 0 0 0 0 0 0 0 0 0 0 0 0 0 0 0 0 0 0 0 0 0 0 0 0 0 0 0 0 0 0 0
0 0 0 2 2 1 0 0 0 0 0 0 0 0 0 0 0 0 0 0 0 0 0 0 0 0 0 0 0 0 0 0 0 0 0 0 0 0 0 0 0 0 0
1 0 0 2 2 1 0 0 0 0 0 0 0 0 0 0 0 0 0 0 0 0 0 0 0 0 0 0 0 0 0 0 0 0 0 0 0 0 0 0 0 0 0
2 1 0 1 1 1 0 0 0 0 0 0 0 0 0 0 0 0 0 0 0 0 0 0 0 0 0 0 0 0 0 0 0 0 0 0 0 0 0 0 0 0 0
2 1 0 0 0 0 0 0 0 0 0 0 0 0 0 0 0 0 0 0 0 0 0 0 0 0 0 0 0 0 0 0 0 0 0 0 0 0 0 0 0 0 0
1 1 0 0 0 0 0 0 0 0 0 0 0 0 0 0 0 0 0 0 0 0 0 0 0 0 0 0 0 0 0 0 0 0 0 0 0 0 0 0 0 0 0
0 0 0 0 0 0 0 0 0 0 0 0 0 0 1 1 0 0 0 0 0 0 0 0 0 0 0 0 0 0 0 0 0 0 0 0 0 0 0 0 0 0 0
0 0 0 0 0 0 0 0 0 0 0 0 0 1 2 2 1 1 1 1 1 1 0 0 0 0 0 0 0 0 0 0 0 0 0 0 0 0 0 0 0 0 0
1 1 0 0 0 0 0 0 0 0 0 0 1 1 2 3 3 2 2 2 2 1 0 0 0 0 0 0 0 0 0 0 0 0 0 0 0 0 0 0 0 0 0
4 3 1 0 0 0 0 0 0 0 0 0 0 0 1 2 3 2 2 2 1 1 0 0 0 0 0 0 0 0 0 0 0 0 0 0 0 0 0 0 0 0 0
6 4 3 1 0 0 0 0 0 0 0 0 0 0 0 1 2 2 1 1 0 0 0 0 0 0 0 0 0 0 0 0 0 0 0 0 0 0 0 0 0 0 0
6 6 5 3 2 1 2 1 0 0 0 0 1 1 2 3 3 2 2 1 1 0 0 0 0 0 0 0 0 0 0 0 0 0 0 0 0 0 0 0 0 0 0
7 8 8 6 5 5 5 3 1 0 0 1 2 3 5 6 5 3 2 2 1 0 0 0 0 0 0 0 0 0 0 0 0 0 0 0 0 0 0 0 0 0 0
9 10 10 8 9 10 10 7 4 3 2 2 2 3 4 6 7 5 2 1 1 0 0 0 0 0 0 0 0 0 0 0 0 0 0 0 0 0 0 0 0 0 0
10 10 10 10 12 15 15 13 10 7 6 5 3 2 2 3 5 4 2 1 1 0 0 0 0 1 1 1 1 0 0 0 0 0 0 0 0 0 0 0 0 0 0
8 9 9 11 15 18 18 17 15 11 9 7 4 2 2 2 2 1 2 2 1 0 0 1 1 1 2 2 1 0 0 0 0 0 0 0 0 0 0 0 0 0 0
6 8 10 13 17 19 19 19 17 14 11 8 5 3 2 2 1 1 2 3 2 1 1 1 1 1 1 1 1 0 0 0 0 0 0 0 0 0 0 0 0 0 0
8 9 11 14 17 19 20 20 18 16 13 8 4 3 2 1 0 1 3 4 4 2 1 1 1 0 0 0 0 0 0 0 0 0 0 0 0 0 0 0 0 0 0

GEFSSE_con_probscp_198.txt.gz
Probability
0 0 0 0 0 0 0 0 0 0 0 0 0 0 1 2 3 2 1 0 0 0 0 0 0 0 0 0 0 0 0 0 0 0 0 0 0 0 0 0 0 0 0
0 0 0 0 0 0 0 0 0 0 0 0 0 0 0 1 2 1 0 0 0 0 0 0 0 0 0 0 0 0 0 0 0 0 0 0 0 0 0 0 0 0 0
0 0 0 0 0 0 0 0 0 0 0 0 0 0 0 0 0 0 0 0 0 0 0 0 0 0 0 0 0 0 0 0 0 0 0 0 0 0 0 0 0 0 0
0 0 0 0 0 0 0 0 0 0 0 0 0 0 0 0 0 0 0 0 0 0 0 0 0 0 0 0 0 0 0 0 0 0 0 0 0 0 0 0 0 0 0
0 1 1 1 0 0 0 0 0 0 0 0 0 0 0 0 0 0 0 0 0 0 0 0 0 0 0 0 0 0 0 0 0 0 0 0 0 0 0 0 0 0 0
0 1 2 1 0 0 0 0 0 0 0 0 0 0 0 0 0 0 0 0 0 0 0 0 0 0 0 0 0 0 0 0 0 0 0 0 0 0 0 0 0 0 0
0 1 1 1 0 0 0 0 0 0 0 0 0 0 0 0 0 0 0 0 0 0 0 0 0 0 0 0 0 0 0 0 0 0 0 0 0 0 0 0 0 0 0
0 0 0 0 0 0 0 0 0 0 0 0 0 0 0 0 0 0 0 0 0 0 0 0 0 0 0 0 0 0 0 0 0 0 0 0 0 0 0 0 0 0 0
0 0 0 0 0 0 0 0 0 0 0 0 0 0 0 0 0 0 0 0 0 0 0 0 0 0 0 0 0 0 0 0 0 0 0 0 0 0 0 0 0 0 0
0 0 0 0 0 0 0 0 0 0 0 0 0 0 0 0 0 0 0 0 0 0 0 0 0 0 0 0 0 0 0 0 0 0 0 0 0 0 0 0 0 0 0
1 1 0 0 0 0 0 0 0 1 0 0 0 0 0 0 0 0 0 0 0 0 0 0 0 0 0 0 0 0 0 0 0 0 0 0 0 0 0 0 0 0 0
2 2 1 0 0 0 0 0 0 0 0 0 0 0 0 0 0 0 0 0 0 0 0 0 0 0 0 0 0 0 0 0 0 0 0 0 0 0 0 0 0 0 0
3 3 2 0 0 0 0 0 0 0 0 0 0 0 0 0 0 0 0 0 0 0 0 0 0 0 0 0 0 0 0 0 0 0 0 0 0 0 0 0 0 0 0
4 3 2 0 0 0 0 0 0 0 0 0 0 0 0 0 0 0 0 0 0 0 0 0 0 0 0 0 0 0 0 0 0 0 0 0 0 0 0 0 0 0 0
4 3 1 0 0 0 1 1 0 0 0 0 0 0 1 2 1 1 0 1 1 1 0 0 0 0 0 0 0 0 0 0 0 0 0 0 0 0 0 0 0 0 0
3 2 1 0 0 0 1 1 0 0 0 0 0 0 2 3 3 2 2 2 2 2 1 1 0 0 0 0 0 0 0 0 0 0 0 0 0 0 0 0 0 0 0
2 1 0 0 1 1 1 1 0 0 0 0 0 0 1 2 3 3 3 3 3 2 2 2 1 0 0 0 0 0 0 0 0 0 0 0 0 0 0 1 1 0 0
2 2 2 2 3 3 2 1 0 0 0 0 1 1 1 1 2 4 4 4 3 2 2 2 1 1 1 1 1 1 0 0 0 0 0 0 0 0 1 2 2 1 0
5 7 8 8 7 6 4 3 2 1 2 2 3 3 2 1 2 4 5 4 3 3 3 2 1 2 2 2 2 2 1 0 0 0 0 0 0 0 1 2 3 2 1
10 12 14 14 15 13 10 9 8 6 5 5 6 5 4 3 3 4 6 5 4 5 4 2 1 2 3 3 3 3 2 1 0 0 0 0 0 0 0 2 3 3 2
14 16 17 19 21 20 17 16 16 14 11 9 8 6 5 4 4 5 7 6 5 6 5 3 3 3 4 5 6 5 2 1 0 0 0 1 1 1 1 3 4 5 5
15 16 18 21 24 24 23 21 20 18 14 11 10 8 6 5 4 6 8 8 7 8 7 6 6 6 6 8 10 8 4 1 1 0 0 1 2 2 2 3 4 5 6
12 14 17 20 24 26 23 21 21 19 15 13 13 11 7 6 6 8 9 10 10 11 10 9 7 7 8 9 11 10 6 2 1 1 0 1 1 1 2 1 1 4 6
7 11 16 20 25 25 22 21 21 19 14 13 15 11 8 8 9 10 10 11 12 13 12 9 6 6 7 8 9 10 7 3 3 2 1 1 1 1 1 1 1 4 7
6 9 16 22 27 28 26 24 23 19 14 13 14 12 9 9 11 12 12 12 13 13 11 9 6 4 4 6 8 9 8 6 4 3 2 3 3 3 3 3 3 5 8
6 10 17 24 29 33 32 28 25 21 15 15 16 13 9 9 12 13 14 14 13 12 12 10 6 3 3 5 7 8 8 7 4 2 2 3 5 6 6 5 5 5 6

GEFSSE_con_probscp_204.txt.gz
Probability
0 0 0 0 0 0 0 0 0 0 0 1 1 1 0 0 0 1 2 2 1 0 0 0 0 0 0 0 0 0 0 0 0 0 0 0 0 0 0 0 0 0 0
0 0 0 0 0 0 0 0 0 0 0 0 0 0 0 0 0 0 1 2 1 0 0 0 0 0 0 0 0 0 0 0 0 0 0 0 0 0 0 0 0 0 0
0 0 0 0 0 0 0 0 0 0 0 0 0 0 0 0 0 0 0 1 1 0 0 0 0 0 0 0 0 0 0 0 0 0 0 0 0 0 0 0 0 0 0
0 0 0 0 0 0 0 0 0 0 0 0 0 0 0 0 0 0 0 0 0 0 0 0 0 0 0 0 0 0 0 0 0 0 0 0 0 0 0 0 0 0 0
0 0 0 0 0 0 0 0 0 0 0 0 0 0 0 0 0 0 0 0 0 0 0 0 0 0 0 0 0 0 0 0 0 0 0 0 0 0 0 0 0 0 0
0 0 0 0 0 0 0 0 0 0 0 0 0 0 0 0 0 0 0 0 0 0 0 0 0 0 0 0 0 0 1 1 0 0 0 0 0 0 0 0 0 0 0
1 0 0 0 0 0 0 0 0 0 0 0 0 0 0 0 0 0 0 0 0 0 0 0 0 0 0 0 0 1 2 2 1 0 0 0 0 0 0 0 0 0 0
2 1 0 0 0 0 0 0 0 0 0 0 0 0 0 0 0 0 0 0 0 0 0 0 0 0 0 0 0 1 2 2 1 0 0 0 0 0 0 0 0 0 0
3 2 0 0 0 0 0 0 0 0 0 0 0 0 0 0 0 0 0 0 0 0 0 0 0 0 0 0 0 0 1 1 0 0 0 0 0 0 0 0 0 0 0
3 2 1 1 2 1 0 0 0 0 0 0 0 0 0 0 0 0 0 0 0 0 0 0 0 0 0 0 0 0 1 0 0 0 0 0 0 0 0 0 0 0 0
3 3 2 3 3 1 0 1 2 1 1 1 2 1 1 1 0 0 0 0 0 0 0 0 0 0 0 0 0 0 0 0 0 0 0 0 0 0 0 0 0 0 0
5 4 3 3 3 1 1 2 3 3 2 3 3 2 2 1 1 1 1 0 0 0 0 1 1 0 0 0 0 0 0 0 0 0 0 0 0 0 0 0 0 0 0
5 4 3 3 3 2 2 2 3 3 3 4 4 3 1 2 2 2 2 1 0 0 0 1 1 0 0 0 0 0 0 0 0 0 0 0 0 0 0 0 0 0 0
5 4 3 4 3 3 2 2 2 3 3 4 5 3 2 3 3 3 4 3 1 0 1 1 1 0 0 0 0 0 0 0 0 1 1 1 1 0 0 0 0 0 0
7 6 5 5 4 3 3 2 2 3 3 4 5 6 6 5 4 5 6 6 3 1 1 0 0 0 0 0 0 0 0 0 1 2 2 2 2 1 0 1 1 1 1
9 9 9 9 7 6 4 4 4 4 4 5 7 9 11 9 7 8 9 8 5 3 2 1 0 0 1 1 0 0 0 1 1 2 2 2 2 2 2 3 4 3 2
12 13 13 13 14 14 10 8 7 7 6 6 8 10 12 12 10 9 9 8 7 6 5 4 3 2 2 1 1 1 2 2 2 3 3 3 3 3 5 7 7 5 4
18 19 17 16 20 21 17 12 10 9 8 7 9 10 12 13 10 9 9 9 9 9 9 8 8 6 3 1 1 2 3 4 4 3 3 3 3 5 8 11 11 9 7
26 24 20 19 22 24 22 19 16 14 12 10 11 13 15 14 11 9 10 11 11 12 11 10 10 8 4 2 2 3 4 5 5 4 3 3 4 6 9 13 14 12 10
33 32 28 25 26 26 26 25 22 20 17 14 15 18 18 15 12 10 10 12 13 13 11 10 9 7 5 4 2 2 4 5 4 4 4 4 5 6 9 13 14 13 12
40 42 41 35 32 33 31 28 25 22 19 17 17 19 19 16 13 13 13 13 13 13 12 11 10 9 7 6 3 2 2 4 4 5 7 8 7 7 9 14 17 17 16
48 50 49 45 42 40 35 29 25 23 20 18 17 17 17 16 14 14 15 14 13 12 11 11 11 10 9 7 4 3 2 3 5 5 8 10 10 9 10 15 22 25 24
53 53 51 51 51 47 39 32 29 28 24 20 19 18 16 15 13 13 14 14 12 10 10 10 11 11 9 7 5 3 3 3 5 6 7 9 11 12 11 13 20 25 26
47 49 54 57 57 53 45 38 36 36 31 24 22 22 19 16 13 12 14 14 12 9 8 9 10 10 8 6 5 4 3 4 5 6 6 8 11 13 13 12 15 20 23
37 43 55 62 60 54 48 43 41 39 33 26 24 25 24 20 14 12 15 17 16 12 9 8 8 8 8 7 6 5 4 5 6 6 5 7 9 12 13 13 14 16 19
33 41 55 65 63 54 47 44 41 38 32 28 25 27 27 22 17 13 15 20 19 14 11 9 8 7 8 8 6 5 5 6 6 5 5 6 6 9 12 13 14 15 16

GEFSSE_con_probscp_210.txt.gz
Probability
3 3 3 3 3 3 4 6 6 4 3 4 5 6 5 4 4 6 7 7 6 5 5 5 4 3 3 3 3 3 3 3 3 3 3 3 3 3 3 2 1 1 0
3 3 3 3 3 3 4 5 5 4 3 3 4 5 5 5 4 5 6 5 5 5 5 4 3 3 3 3 3 3 3 3 3 3 2 2 3 3 2 1 0 0 0
3 3 3 3 3 3 3 4 4 3 3 3 3 4 4 5 4 4 4 4 4 4 4 4 3 3 3 3 3 3 3 3 2 1 1 1 2 2 1 0 0 0 0
2 3 3 3 3 3 3 3 3 3 3 3 3 3 3 4 3 3 3 3 3 4 4 3 3 3 3 3 3 3 3 3 1 0 0 0 1 1 0 0 0 0 0
3 3 3 3 3 3 3 3 4 4 4 4 3 3 3 3 3 3 3 3 3 3 3 3 3 3 3 3 3 3 3 2 1 0 0 0 0 0 0 0 0 0 0
3 3 4 4 3 3 3 4 5 6 6 5 4 3 3 3 3 3 3 3 3 3 3 3 3 3 3 3 2 2 2 2 1 0 0 0 0 0 0 0 0 0 0
3 4 4 4 4 3 3 4 5 6 6 5 4 3 3 3 3 3 3 3 3 3 3 3 3 3 2 1 1 1 1 1 0 0 0 0 0 0 0 0 0 0 0
3 3 4 4 3 3 3 3 4 4 4 4 3 3 3 3 3 3 3 3 3 3 3 3 2 2 1 1 0 0 1 1 0 0 0 0 0 0 0 0 0 0 0
1 2 3 3 3 3 3 3 3 3 3 3 4 4 3 3 3 3 3 3 3 3 3 2 1 0 0 0 0 0 1 2 1 0 0 0 0 0 0 0 0 0 0
0 1 1 2 3 3 3 3 3 3 3 4 5 5 4 3 3 3 3 3 3 2 1 1 0 0 0 0 0 0 1 1 1 0 0 0 0 0 0 0 0 0 0
0 0 0 1 1 2 2 2 2 3 3 4 5 4 3 2 2 2 2 2 1 1 0 0 0 0 0 0 0 0 0 0 0 0 0 0 0 0 0 0 0 0 0
0 0 1 1 1 1 1 1 1 1 3 3 3 3 1 1 1 1 1 1 0 0 0 0 0 0 0 0 0 0 0 0 0 0 0 0 0 0 0 0 0 0 0
0 0 1 2 1 0 0 0 0 1 3 3 3 2 2 1 1 0 0 0 0 0 0 0 0 0 0 0 0 0 0 0 0 0 0 0 1 1 0 0 0 0 0
1 1 2 3 2 0 0 0 1 2 3 3 3 3 2 2 2 1 0 0 0 0 0 0 0 0 0 0 0 0 0 0 0 0 0 1 2 3 2 1 1 1 1
4 4 4 5 4 1 0 1 2 3 3 3 3 3 3 3 3 2 1 0 0 0 0 0 0 0 0 0 0 0 0 0 0 0 0 1 3 5 6 5 4 3 3
7 6 6 7 6 3 3 4 4 4 3 3 3 3 3 3 3 3 2 1 0 0 0 0 0 0 0 0 0 0 0 0 0 0 0 1 4 7 10 11 9 7 5
8 7 6 6 6 5 5 6 5 4 4 3 3 3 4 5 4 4 3 2 1 0 0 0 0 0 0 0 0 0 0 0 0 0 0 1 3 6 10 12 11 9 8
8 7 4 2 3 4 5 5 4 4 3 3 3 4 5 6 6 4 3 2 1 0 0 0 0 0 0 0 0 0 0 0 0 0 0 0 1 3 6 9 10 10 10
6 5 2 1 3 3 4 3 3 3 3 3 3 3 5 6 5 4 4 3 1 0 0 0 0 0 0 0 0 0 0 0 0 0 0 0 0 1 2 5 8 9 10
5 4 3 3 4 4 4 4 4 3 3 2 2 2 4 5 5 4 4 3 1 1 1 0 0 0 0 0 0 0 0 0 0 0 0 0 0 0 0 2 4 6 7
6 5 4 5 7 7 7 6 5 4 2 1 1 2 4 5 4 3 3 3 3 3 3 1 1 0 0 0 0 0 0 0 0 0 0 0 0 0 0 0 1 2 4
11 9 8 8 8 9 8 8 7 5 3 2 1 1 3 4 5 4 3 3 4 4 4 3 2 1 1 0 0 0 0 0 0 0 0 0 0 0 0 0 0 0 1
16 15 14 12 11 11 11 11 11 9 6 3 2 2 3 4 5 5 4 3 3 4 4 3 3 3 2 1 0 0 0 0 0 0 0 0 0 0 0 0 0 0 0
21 21 19 17 17 16 15 15 14 12 9 6 4 4 3 4 4 4 3 3 3 3 3 3 3 3 2 1 0 0 0 0 0 0 0 0 0 0 0 0 1 1 1
25 24 21 21 20 19 16 15 16 13 10 8 6 5 3 3 3 3 3 3 3 3 3 3 3 3 3 1 0 0 0 0 0 0 0 0 0 0 0 0 1 1 1
27 25 22 22 20 18 16 16 16 13 9 8 6 5 3 2 2 3 3 3 3 3 3 3 3 3 3 2 1 0 0 0 0 0 0 0 0 0 0 0 0 1 2

GEFSSE_con_probscp_216.txt.gz
Probability
0 1 2 2 1 1 1 1 0 0 0 0 0 0 1 1 1 1 1 1 0 0 1 2 2 1 0 0 0 0 0 0 0 0 0 0 0 0 0 0 1 0 0
0 1 2 2 1 0 0 0 0 0 0 0 0 0 0 1 2 2 2 1 1 1 2 2 1 0 0 0 0 0 0 0 0 0 0 0 0 0 0 1 1 1 0
0 0 1 1 0 0 0 0 0 0 0 0 0 0 0 1 2 3 2 1 1 1 2 1 0 0 0 0 0 0 0 0 0 0 0 0 0 0 0 1 1 1 0
0 0 0 1 0 0 0 0 0 0 0 0 0 0 0 1 1 1 1 0 0 1 1 0 0 0 0 0 0 0 0 0 0 0 0 0 0 0 0 0 0 0 0
0 0 0 0 0 0 0 0 0 0 0 0 0 0 0 0 0 0 0 0 0 0 0 0 0 0 0 0 0 0 0 0 0 0 0 0 0 0 0 0 0 0 0
0 0 0 0 0 0 0 0 0 0 0 0 0 0 0 0 0 0 0 0 0 0 0 0 0 0 0 0 0 0 0 0 0 0 0 0 0 0 0 0 0 0 0
0 0 0 0 0 0 0 0 0 0 0 0 0 0 0 0 0 0 0 0 0 0 0 0 0 0 0 0 0 0 0 0 0 0 0 0 0 0 0 0 0 0 0
0 0 0 0 0 0 0 0 0 0 0 0 0 0 0 0 0 0 0 0 0 0 0 0 0 0 0 0 0 0 0 0 0 0 0 0 0 0 0 0 0 0 0
0 0 0 0 0 0 0 0 0 0 0 0 1 0 0 0 0 0 0 0 0 0 0 0 0 0 0 0 0 0 0 0 0 0 0 0 0 0 0 0 0 0 0
0 0 0 0 0 0 0 0 0 0 0 0 0 0 0 0 0 0 0 0 0 0 0 0 0 0 0 0 0 0 0 0 0 0 0 0 0 0 0 0 0 0 0
0 0 0 0 0 0 0 0 1 1 1 0 0 0 0 0 0 0 0 0 0 0 0 0 0 0 0 0 0 0 0 0 0 0 0 0 0 0 0 0 0 0 0
0 0 0 0 0 0 0 0 1 2 2 1 0 0 0 0 0 0 0 0 0 0 0 0 0 0 0 0 0 0 0 0 0 0 0 0 0 0 0 0 0 0 0
0 0 0 0 0 0 0 1 2 3 3 2 1 1 0 0 0 0 0 0 0 0 0 0 0 0 0 0 0 0 0 0 0 0 0 0 0 0 0 0 0 0 0
0 0 0 0 0 0 0 1 2 3 3 3 3 2 1 0 0 0 0 0 0 0 0 0 0 0 0 0 0 0 0 0 0 0 0 0 0 0 0 0 0 0 0
1 1 0 0 1 1 0 1 2 3 3 3 3 3 1 1 1 0 0 0 0 0 0 0 0 0 0 0 0 0 0 0 0 0 0 0 0 0 0 0 0 0 0
3 2 1 0 1 2 1 1 3 3 3 3 3 3 3 2 2 1 0 0 0 0 0 0 0 0 0 0 0 0 0 0 0 0 0 0 0 0 0 0 1 1 1
4 3 1 0 1 2 2 2 2 3 3 3 3 3 3 3 2 2 2 1 1 0 0 0 0 0 0 0 0 0 0 0 0 0 0 0 0 0 0 0 1 3 4
3 2 0 0 0 1 1 2 1 1 2 3 3 3 3 3 2 2 3 3 2 1 0 0 0 0 0 0 0 0 0 0 0 0 0 0 0 0 0 0 1 3 5
2 1 0 0 0 0 1 1 1 0 1 1 2 3 3 3 3 3 3 3 3 2 1 0 0 0 0 0 0 0 0 0 0 0 0 0 0 0 0 0 1 2 4
2 1 0 1 1 1 1 1 0 0 0 0 1 2 3 3 3 3 3 3 3 3 1 1 1 0 0 0 0 0 0 0 0 0 0 0 0 0 0 0 1 2 2
1 0 1 2 3 3 2 1 0 0 0 0 1 2 2 2 3 3 3 3 3 3 2 2 2 1 0 0 0 0 0 0 0 0 0 0 0 0 0 0 1 2 2
1 1 2 5 6 5 4 2 0 0 0 0 1 2 1 1 1 3 3 3 3 3 2 3 3 2 1 1 1 0 0 0 0 0 0 0 0 0 0 0 0 1 1
2 1 3 5 6 5 4 2 1 0 0 0 1 1 1 1 1 2 3 3 3 3 3 3 3 3 3 2 1 0 0 0 0 0 0 0 0 0 0 0 0 0 0
3 2 2 3 4 4 4 3 1 0 0 0 0 1 1 1 0 1 1 3 3 3 3 3 3 3 3 3 1 0 0 0 0 0 0 0 0 0 0 0 0 0 0
7 5 3 3 4 3 3 3 2 1 0 0 0 1 1 0 0 0 1 2 3 3 3 3 3 3 3 3 2 1 0 0 0 0 0 0 0 0 0 0 0 0 0
10 7 4 3 4 4 3 3 2 2 1 0 1 1 1 0 0 0 0 1 2 3 3 3 3 3 3 3 3 2 1 0 0 0 0 0 0 0 0 0 0 0 0

GEFSSE_con_probscp_222.txt.gz
Probability
0 0 0 1 1 1 1 2 2 1 0 0 1 1 1 1 2 3 3 4 3 3 3 1 0 0 0 0 0 0 0 0 0 1 2 2 2 3 3 1 0 0 0
0 0 0 1 2 2 2 1 1 0 0 0 0 0 0 0 1 2 3 3 3 3 2 1 1 0 0 0 0 0 0 0 0 0 1 1 1 2 2 1 0 0 0
0 0 0 2 3 3 2 1 0 0 0 0 0 0 0 0 0 1 2 2 2 1 1 1 1 1 0 0 0 0 0 0 0 0 0 0 0 1 1 1 0 0 0
0 0 0 2 3 3 2 1 0 0 0 0 0 1 1 0 0 1 2 1 1 0 0 1 1 1 0 0 0 0 0 0 0 0 0 0 0 0 0 0 0 0 0
0 0 0 1 2 1 1 1 1 1 0 0 0 1 1 0 0 1 2 1 0 0 0 1 1 0 0 0 0 0 0 0 0 0 0 0 0 0 0 0 0 0 0
0 0 0 1 1 0 0 1 1 1 0 0 0 1 1 0 0 1 1 0 0 0 0 0 0 0 0 0 0 1 1 1 0 0 0 0 0 0 0 0 0 0 0
0 0 0 0 0 0 0 0 0 0 0 0 0 0 0 0 0 0 0 0 0 0 0 0 0 0 0 0 0 1 2 1 0 0 0 0 0 0 0 0 0 0 0
0 0 0 0 0 0 0 0 0 0 0 0 0 0 0 0 0 0 0 1 0 0 0 0 0 0 0 0 0 1 2 1 0 0 0 0 0 0 0 0 0 0 0
0 0 0 0 0 0 0 0 0 0 0 0 0 1 0 0 0 0 0 0 0 0 0 0 0 0 0 0 0 1 1 1 0 0 0 0 0 0 0 0 0 0 0
0 0 0 0 0 0 0 0 0 0 0 0 0 0 0 0 0 0 0 0 0 0 0 0 0 0 0 0 0 0 0 0 0 0 0 0 0 0 0 0 0 0 0
0 0 0 0 0 1 1 1 1 1 0 0 0 0 0 0 0 0 0 0 0 0 0 0 0 0 0 0 0 0 0 0 0 0 0 0 0 0 0 0 0 0 0
0 0 0 0 1 2 2 2 2 2 1 1 1 1 1 1 1 0 0 0 0 0 0 0 0 0 0 0 0 0 0 0 0 0 0 0 0 0 0 0 0 0 0
0 0 0 1 2 3 3 2 2 3 3 2 2 2 2 2 2 1 0 0 0 0 0 0 0 0 0 0 0 0 0 0 0 0 1 1 1 0 0 0 0 0 0
1 1 1 1 2 2 1 2 2 3 3 3 3 3 3 3 2 1 0 0 0 0 0 0 0 0 0 0 0 0 0 0 0 0 1 2 2 1 0 0 0 0 0
2 2 2 1 1 1 1 3 4 3 3 3 3 3 3 3 1 0 0 0 0 0 0 0 0 0 0 0 0 0 0 0 0 0 1 2 2 1 0 1 1 0 0
3 3 3 3 2 2 3 4 4 4 3 3 3 3 3 3 1 1 0 0 0 0 0 0 0 0 0 0 0 0 0 1 2 2 2 2 2 1 1 2 3 2 1
3 3 3 3 3 3 4 4 3 3 3 3 3 3 4 4 4 3 1 1 0 1 1 1 0 0 1 0 0 0 1 3 4 3 3 3 3 3 3 4 5 4 3
4 4 4 3 2 2 3 3 2 2 3 3 4 4 5 7 7 5 3 2 2 2 2 1 0 0 0 0 0 0 1 2 3 3 3 4 4 5 4 5 6 5 4
6 6 6 4 3 2 3 4 3 3 3 3 5 5 6 7 6 4 3 3 3 2 1 1 0 0 0 0 0 0 0 1 1 1 2 3 3 3 3 5 6 6 4
7 8 9 7 6 5 5 5 4 3 2 2 5 6 6 6 5 4 3 4 3 2 1 0 1 1 1 1 1 1 1 0 0 0 1 1 1 1 1 2 3 4 5
6 9 11 9 8 6 6 6 5 3 1 1 3 5 6 6 6 4 3 2 1 1 1 1 2 2 2 2 2 2 2 1 0 0 0 0 0 0 0 0 2 3 5
6 8 10 9 7 6 6 6 6 5 3 1 1 2 4 5 5 3 2 1 0 1 2 3 3 3 3 3 3 3 3 1 1 0 0 0 0 0 0 1 2 4 4
6 6 8 9 9 9 8 6 6 7 5 2 1 1 3 3 2 2 1 1 1 2 3 3 3 3 3 3 3 3 3 3 2 1 0 0 0 0 0 1 3 4 4
5 6 8 11 14 15 12 9 8 8 5 2 2 3 4 3 2 1 1 2 3 3 3 3 3 3 3 3 3 3 3 4 3 2 2 2 2 2 2 3 4 5 5
6 8 10 14 18 18 15 14 13 9 5 3 3 4 4 3 2 1 1 3 3 3 3 3 3 3 3 3 3 3 4 5 5 5 4 4 4 4 5 6 6 6 5
7 9 12 16 19 18 15 16 16 11 6 4 3 4 3 2 1 2 2 3 3 3 3 3 3 3 3 3 3 4 5 7 8 7 5 5 6 5 6 7 7 6 6

GEFSSE_con_probscp_228.txt.gz
Probability
0 0 0 0 0 1 0 0 0 0 0 1 1 2 4 4 3 2 1 1 1 2 3 2 2 1 0 0 0 0 0 1 1 1 0 0 0 1 1 0 0 0 0
0 0 0 0 0 1 1 1 1 1 1 2 3 3 4 3 3 1 1 1 2 3 3 1 1 0 0 0 0 0 0 0 0 0 0 0 1 2 2 1 0 0 0
0 0 0 0 1 1 1 2 2 2 3 3 3 4 4 3 2 1 1 1 2 3 3 1 0 0 0 0 0 0 0 0 0 0 0 0 1 2 2 1 0 0 0
0 0 0 1 1 2 3 3 3 3 3 2 2 2 3 2 2 1 0 1 1 2 2 1 0 0 0 0 0 0 0 0 0 0 0 0 1 1 1 0 0 0 0
0 0 1 1 1 2 2 2 2 2 1 1 0 1 1 1 1 0 0 1 1 1 1 1 1 0 0 0 0 0 0 0 0 0 0 0 0 0 0 0 0 0 0
0 0 1 1 1 1 1 1 1 1 0 0 0 0 0 0 0 0 0 1 1 0 0 0 1 1 0 0 0 1 1 0 0 0 0 0 0 0 0 0 0 0 0
0 0 1 1 1 0 0 0 0 0 0 0 0 1 1 1 1 0 0 0 0 0 0 0 1 1 2 1 1 2 1 1 1 0 0 0 0 0 0 0 0 0 0
0 0 0 0 0 0 0 0 0 0 0 0 0 1 2 2 1 0 0 0 0 0 0 0 0 1 2 2 2 2 1 0 0 0 0 0 0 0 0 0 0 0 0
0 0 0 0 0 0 1 1 0 0 0 0 0 1 1 1 1 0 0 0 0 0 0 0 0 1 1 1 1 1 0 0 0 0 0 0 0 0 0 0 0 0 0
0 0 0 0 0 0 1 1 0 0 0 0 0 0 0 0 0 0 0 0 0 0 0 0 0 0 0 0 0 0 0 0 0 0 0 1 2 1 0 0 0 0 0
1 1 0 0 1 0 0 0 0 0 0 0 0 0 1 0 0 0 1 0 0 0 0 0 0 0 0 0 0 1 0 0 0 0 0 2 4 3 1 0 0 0 0
0 0 0 0 0 0 0 0 0 0 1 1 1 1 1 0 0 1 1 1 1 0 0 0 0 0 0 0 0 1 1 0 0 0 1 4 5 4 1 0 0 0 0
0 0 0 0 0 0 0 1 1 2 3 5 5 5 3 2 1 2 3 3 2 0 0 0 0 0 0 0 0 1 1 1 0 0 2 5 6 6 3 1 0 0 0
0 0 0 1 1 0 1 2 3 4 5 7 9 8 6 4 2 2 3 3 2 2 1 1 1 1 1 0 0 1 1 1 0 0 2 5 7 7 5 3 1 0 0
0 0 2 5 5 3 3 5 7 7 7 8 10 11 9 5 2 2 3 3 3 4 4 4 3 2 1 0 0 0 0 0 1 1 2 5 7 7 5 3 2 0 0
1 2 4 8 9 6 6 8 10 9 8 8 10 12 11 8 5 5 5 4 4 5 5 5 4 3 1 1 1 1 0 0 1 2 2 4 5 5 4 3 2 1 0
3 4 5 7 10 9 8 8 9 10 10 11 12 13 12 11 9 8 7 5 5 5 5 4 3 3 2 2 2 1 1 1 2 2 3 4 4 4 4 4 3 2 1
7 7 5 5 8 11 10 9 9 11 12 12 12 13 12 11 10 8 7 6 5 4 4 3 3 3 3 1 1 1 1 2 2 2 3 6 5 4 5 5 4 4 5
12 12 10 6 7 11 12 11 10 12 13 13 13 14 13 10 8 8 7 6 4 3 3 3 3 3 2 1 1 0 1 3 3 3 5 6 5 5 5 4 5 6 7
18 19 17 12 10 11 12 12 11 12 12 12 13 13 11 9 8 7 6 5 4 3 3 2 3 3 2 2 2 1 1 2 4 4 5 4 3 3 4 5 5 5 5
26 26 24 19 17 16 13 11 10 9 10 11 11 10 9 9 9 8 6 5 4 3 3 2 3 3 2 3 4 3 2 2 2 3 3 2 1 2 5 7 6 5 4
31 30 27 24 23 22 18 12 9 8 8 10 11 11 10 9 8 7 7 6 4 4 3 3 3 3 2 3 4 4 3 2 1 1 2 1 1 1 5 8 8 7 7
30 29 28 27 27 25 21 16 12 10 10 12 14 15 14 11 8 7 7 6 4 4 4 4 4 4 3 3 4 4 3 3 2 2 1 1 2 3 4 6 8 9 9
24 27 30 30 29 26 23 22 20 17 15 14 16 18 17 14 12 10 9 7 6 5 5 5 5 6 6 4 3 3 3 3 3 2 1 2 4 5 5 6 7 9 10
19 26 33 35 34 30 27 26 26 23 18 16 17 19 19 19 17 15 12 10 8 8 7 7 8 8 9 7 5 4 4 4 4 3 2 2 4 5 6 7 8 9 10
18 26 36 39 37 34 30 28 28 25 20 17 18 19 20 21 20 18 15 11 10 9 9 10 9 10 10 9 7 6 5 5 5 4 3 3 3 3 4 7 9 9 10

GEFSSE_con_probscp_234.txt.gz
Probability
0 1 2 2 1 0 0 0 0 0 1 2 2 1 0 0 0 0 0 0 0 0 1 1 1 0 1 2 3 2 1 0 1 0 0 0 1 1 1 0 0 0 0
0 0 1 1 0 0 0 0 0 1 2 3 2 1 0 0 0 0 0 0 0 0 0 0 0 0 1 2 2 1 0 1 1 1 0 0 0 0 0 0 0 0 0
0 0 0 0 0 0 1 1 1 2 3 3 2 1 0 0 0 0 0 0 0 0 0 0 1 1 1 1 1 0 0 1 2 1 0 0 0 0 0 0 0 0 0
0 0 0 0 1 1 2 2 2 2 2 2 1 1 0 0 0 0 0 0 0 0 1 1 1 1 1 0 0 0 0 1 2 1 0 0 1 1 1 0 0 0 0
0 0 0 0 1 2 2 2 1 1 0 1 2 2 1 1 2 1 1 1 1 0 1 1 1 0 0 0 1 0 0 1 1 1 0 0 1 2 1 0 0 0 0
1 1 1 0 1 1 1 1 0 0 0 1 2 3 3 3 4 3 2 2 1 0 1 1 0 0 0 0 0 0 0 0 0 0 0 0 1 1 1 0 0 0 0
3 2 2 1 1 1 1 0 1 1 0 0 1 3 3 5 6 6 4 2 1 0 0 0 0 0 0 0 0 1 1 0 0 0 0 0 0 0 0 0 0 0 0
3 3 3 3 3 2 2 2 2 2 1 0 1 2 2 3 5 6 4 2 1 1 0 0 0 0 0 0 0 1 1 0 0 0 0 0 0 0 0 0 0 0 0
2 2 3 3 3 3 2 2 2 2 2 1 0 1 1 1 3 4 3 2 2 1 0 0 0 0 0 0 0 1 1 0 0 0 0 0 0 0 0 0 0 0 0
1 1 1 1 2 2 1 1 1 1 2 1 0 1 1 0 1 1 2 3 2 1 0 0 0 0 0 0 0 0 0 0 0 0 0 0 0 0 0 0 0 0 0
1 0 0 0 1 1 0 0 0 0 1 1 1 1 1 0 0 0 1 2 1 0 0 0 0 0 0 0 0 0 0 0 0 0 0 0 0 0 0 0 0 0 0
1 0 0 0 0 0 0 0 0 0 0 0 0 1 1 0 0 0 1 1 0 0 0 0 0 0 0 0 0 0 0 0 0 0 0 0 1 1 0 0 0 0 0
1 1 0 1 1 0 0 0 0 0 0 0 0 0 0 0 0 0 0 0 0 0 0 0 0 0 0 0 0 0 0 0 0 0 0 1 2 2 1 1 0 0 0
2 2 2 1 1 1 1 1 1 0 0 0 1 0 0 0 0 0 0 0 0 0 0 0 0 0 0 0 0 0 0 0 0 0 0 1 2 3 3 2 1 0 0
4 4 3 2 2 2 2 3 2 1 1 0 0 0 0 0 0 0 0 0 0 0 0 0 0 0 0 0 0 0 0 0 0 0 0 1 2 4 4 4 3 2 1
5 5 3 2 3 3 4 4 5 4 2 1 0 0 0 0 0 0 0 0 0 0 0 0 0 0 0 0 0 0 0 0 0 0 0 0 2 4 5 5 4 3 2
5 5 4 3 3 4 5 6 6 5 3 1 0 0 0 0 0 0 0 1 1 1 1 0 0 0 0 0 0 0 0 0 0 0 0 0 1 2 3 4 3 3 3
4 5 4 4 5 6 6 6 6 6 4 3 1 0 0 1 1 1 1 2 2 2 1 0 0 0 0 0 1 0 0 0 0 0 0 0 0 1 1 2 3 3 3
2 4 5 5 6 7 7 6 6 6 6 5 2 0 1 2 4 3 3 2 2 1 1 0 0 0 0 0 0 0 0 0 0 0 0 0 0 0 0 1 1 2 2
2 4 4 4 5 6 6 6 5 5 6 6 4 2 2 4 5 5 3 1 1 0 0 0 0 0 0 0 0 0 0 0 0 0 0 0 0 1 0 0 0 1 1
4 4 4 3 4 5 6 6 5 5 6 6 6 5 4 4 4 3 2 1 0 0 0 0 0 0 0 0 0 0 0 0 0 0 0 0 0 0 0 0 0 0 0
7 6 6 5 5 5 6 5 4 4 4 5 5 5 4 3 1 1 1 0 0 0 0 0 0 0 0 0 0 0 0 0 0 0 0 0 0 0 0 0 0 0 0
9 9 9 9 9 7 5 4 4 3 3 4 5 5 3 2 1 1 1 1 1 1 1 1 1 1 0 0 0 1 1 2 1 0 0 0 0 0 0 0 0 0 0
12 12 12 12 11 8 5 5 5 5 5 5 5 5 4 3 3 3 3 3 3 3 2 2 2 2 1 0 1 2 3 3 2 1 0 0 0 0 0 0 0 0 0
14 15 16 16 14 10 7 7 8 8 7 6 5 4 4 5 5 5 5 5 5 4 4 3 3 3 2 1 1 2 3 2 2 1 0 0 0 0 0 0 0 0 0
16 17 19 18 16 11 9 9 11 11 10 8 6 4 5 6 5 4 4 5 6 6 5 4 3 3 3 2 2 2 2 1 1 0 0 0 0 0 0 0 0 0 0